<?xml version="1.0" encoding="UTF-8" standalone="no" ?>
<gpx xmlns="http://www.topografix.com/GPX/1/1" xmlns:xsi="http://www.w3.org/2001/XMLSchema-instance" xsi:schemaLocation="http://www.topografix.com/GPX/1/1 http://www.topografix.com/GPX/1/1/gpx.xsd" version="1.1" creator="VisuGPX - https://www.visugpx.com">
  <metadata>
    <name>VTT ENDURO / St jean de la Blaquière</name>
    <desc><![CDATA[Sortie de reconnaissance sur st jean de la Blaquière.
Départ de St jean en direction de la Sauvageonne. ça grimpe fort pour arriver au départ de la 1ère descente mais ça vaut le coup. Belle descente avec virages dans la pente et devers. On atterrit sur la route d'Usclas du Bosc. On remonte par un chemin puis sentier peu entretenu pour se retrouver au départ d'une ancienne piste DH où il reste encore quelques sauts, virages relevés mais c'est difficilement exploitable en l'état (et puis il faut du niveau quand même !). retour sur St jean par chemins et route.]]></desc>
  </metadata>
  <trk>
    <name><![CDATA[VTT ENDURO / St jean de la Blaquière_1]]></name>
    <trkseg>
      <trkpt lat="43.71459" lon="3.42227">
        <ele>216.7</ele>
        <time>2017-04-12T06:35:04Z</time>
      </trkpt>
      <trkpt lat="43.71459" lon="3.42227">
        <ele>216.7</ele>
        <time>2017-04-12T06:35:13Z</time>
      </trkpt>
      <trkpt lat="43.71451" lon="3.42229">
        <ele>225.1</ele>
        <time>2017-04-12T06:35:25Z</time>
      </trkpt>
      <trkpt lat="43.71453" lon="3.42203">
        <ele>221.8</ele>
        <time>2017-04-12T06:40:06Z</time>
      </trkpt>
      <trkpt lat="43.71453" lon="3.4219">
        <ele>221.8</ele>
        <time>2017-04-12T06:40:10Z</time>
      </trkpt>
      <trkpt lat="43.71452" lon="3.4218">
        <ele>221.8</ele>
        <time>2017-04-12T06:40:13Z</time>
      </trkpt>
      <trkpt lat="43.71452" lon="3.42167">
        <ele>221.8</ele>
        <time>2017-04-12T06:40:17Z</time>
      </trkpt>
      <trkpt lat="43.71449" lon="3.42155">
        <ele>221.7</ele>
        <time>2017-04-12T06:40:21Z</time>
      </trkpt>
      <trkpt lat="43.71447" lon="3.42143">
        <ele>221.7</ele>
        <time>2017-04-12T06:40:25Z</time>
      </trkpt>
      <trkpt lat="43.71444" lon="3.42132">
        <ele>221.6</ele>
        <time>2017-04-12T06:40:28Z</time>
      </trkpt>
      <trkpt lat="43.71439" lon="3.4212">
        <ele>221.7</ele>
        <time>2017-04-12T06:40:31Z</time>
      </trkpt>
      <trkpt lat="43.71434" lon="3.42109">
        <ele>221.1</ele>
        <time>2017-04-12T06:40:33Z</time>
      </trkpt>
      <trkpt lat="43.71427" lon="3.42099">
        <ele>219.4</ele>
        <time>2017-04-12T06:40:35Z</time>
      </trkpt>
      <trkpt lat="43.71422" lon="3.42087">
        <ele>218.2</ele>
        <time>2017-04-12T06:40:37Z</time>
      </trkpt>
      <trkpt lat="43.71415" lon="3.42073">
        <ele>217.8</ele>
        <time>2017-04-12T06:40:39Z</time>
      </trkpt>
      <trkpt lat="43.71407" lon="3.42061">
        <ele>217</ele>
        <time>2017-04-12T06:40:41Z</time>
      </trkpt>
      <trkpt lat="43.71399" lon="3.4205">
        <ele>216.7</ele>
        <time>2017-04-12T06:40:43Z</time>
      </trkpt>
      <trkpt lat="43.71392" lon="3.42038">
        <ele>216.9</ele>
        <time>2017-04-12T06:40:45Z</time>
      </trkpt>
      <trkpt lat="43.71385" lon="3.42024">
        <ele>216.7</ele>
        <time>2017-04-12T06:40:47Z</time>
      </trkpt>
      <trkpt lat="43.71379" lon="3.42012">
        <ele>216.2</ele>
        <time>2017-04-12T06:40:49Z</time>
      </trkpt>
      <trkpt lat="43.71373" lon="3.42">
        <ele>215.2</ele>
        <time>2017-04-12T06:40:51Z</time>
      </trkpt>
      <trkpt lat="43.71368" lon="3.4199">
        <ele>215.4</ele>
        <time>2017-04-12T06:40:53Z</time>
      </trkpt>
      <trkpt lat="43.71363" lon="3.4198">
        <ele>216</ele>
        <time>2017-04-12T06:40:55Z</time>
      </trkpt>
      <trkpt lat="43.71359" lon="3.41971">
        <ele>216.3</ele>
        <time>2017-04-12T06:40:57Z</time>
      </trkpt>
      <trkpt lat="43.71353" lon="3.4196">
        <ele>216.4</ele>
        <time>2017-04-12T06:41:00Z</time>
      </trkpt>
      <trkpt lat="43.71347" lon="3.41948">
        <ele>216.6</ele>
        <time>2017-04-12T06:41:03Z</time>
      </trkpt>
      <trkpt lat="43.71341" lon="3.41938">
        <ele>216.6</ele>
        <time>2017-04-12T06:41:06Z</time>
      </trkpt>
      <trkpt lat="43.71334" lon="3.41928">
        <ele>216.5</ele>
        <time>2017-04-12T06:41:09Z</time>
      </trkpt>
      <trkpt lat="43.71328" lon="3.41917">
        <ele>216.4</ele>
        <time>2017-04-12T06:41:12Z</time>
      </trkpt>
      <trkpt lat="43.71322" lon="3.41906">
        <ele>216.5</ele>
        <time>2017-04-12T06:41:15Z</time>
      </trkpt>
      <trkpt lat="43.71318" lon="3.41895">
        <ele>216.7</ele>
        <time>2017-04-12T06:41:18Z</time>
      </trkpt>
      <trkpt lat="43.71313" lon="3.41887">
        <ele>216.7</ele>
        <time>2017-04-12T06:41:20Z</time>
      </trkpt>
      <trkpt lat="43.71307" lon="3.41875">
        <ele>217.3</ele>
        <time>2017-04-12T06:41:23Z</time>
      </trkpt>
      <trkpt lat="43.71301" lon="3.41864">
        <ele>217.6</ele>
        <time>2017-04-12T06:41:25Z</time>
      </trkpt>
      <trkpt lat="43.71294" lon="3.41854">
        <ele>217</ele>
        <time>2017-04-12T06:41:27Z</time>
      </trkpt>
      <trkpt lat="43.71288" lon="3.41843">
        <ele>217.1</ele>
        <time>2017-04-12T06:41:29Z</time>
      </trkpt>
      <trkpt lat="43.71283" lon="3.41831">
        <ele>217.4</ele>
        <time>2017-04-12T06:41:31Z</time>
      </trkpt>
      <trkpt lat="43.71277" lon="3.4182">
        <ele>217.9</ele>
        <time>2017-04-12T06:41:33Z</time>
      </trkpt>
      <trkpt lat="43.7127" lon="3.41808">
        <ele>217.6</ele>
        <time>2017-04-12T06:41:35Z</time>
      </trkpt>
      <trkpt lat="43.71264" lon="3.41795">
        <ele>216.9</ele>
        <time>2017-04-12T06:41:37Z</time>
      </trkpt>
      <trkpt lat="43.71256" lon="3.41782">
        <ele>215.8</ele>
        <time>2017-04-12T06:41:39Z</time>
      </trkpt>
      <trkpt lat="43.71248" lon="3.41769">
        <ele>214.7</ele>
        <time>2017-04-12T06:41:41Z</time>
      </trkpt>
      <trkpt lat="43.71239" lon="3.41757">
        <ele>213.6</ele>
        <time>2017-04-12T06:41:43Z</time>
      </trkpt>
      <trkpt lat="43.71229" lon="3.41743">
        <ele>213.4</ele>
        <time>2017-04-12T06:41:45Z</time>
      </trkpt>
      <trkpt lat="43.71223" lon="3.41736">
        <ele>213.4</ele>
        <time>2017-04-12T06:41:46Z</time>
      </trkpt>
      <trkpt lat="43.71216" lon="3.41729">
        <ele>212.8</ele>
        <time>2017-04-12T06:41:47Z</time>
      </trkpt>
      <trkpt lat="43.71208" lon="3.41723">
        <ele>211.7</ele>
        <time>2017-04-12T06:41:48Z</time>
      </trkpt>
      <trkpt lat="43.712" lon="3.41717">
        <ele>211.1</ele>
        <time>2017-04-12T06:41:49Z</time>
      </trkpt>
      <trkpt lat="43.71194" lon="3.41712">
        <ele>210.3</ele>
        <time>2017-04-12T06:41:50Z</time>
      </trkpt>
      <trkpt lat="43.71179" lon="3.41704">
        <ele>209.3</ele>
        <time>2017-04-12T06:41:52Z</time>
      </trkpt>
      <trkpt lat="43.71172" lon="3.417">
        <ele>208.4</ele>
        <time>2017-04-12T06:41:53Z</time>
      </trkpt>
      <trkpt lat="43.71159" lon="3.41692">
        <ele>207.4</ele>
        <time>2017-04-12T06:41:56Z</time>
      </trkpt>
      <trkpt lat="43.71146" lon="3.41685">
        <ele>207.1</ele>
        <time>2017-04-12T06:41:58Z</time>
      </trkpt>
      <trkpt lat="43.71134" lon="3.41677">
        <ele>206.6</ele>
        <time>2017-04-12T06:42:00Z</time>
      </trkpt>
      <trkpt lat="43.71127" lon="3.41672">
        <ele>206.3</ele>
        <time>2017-04-12T06:42:01Z</time>
      </trkpt>
      <trkpt lat="43.71121" lon="3.41667">
        <ele>205.9</ele>
        <time>2017-04-12T06:42:02Z</time>
      </trkpt>
      <trkpt lat="43.71114" lon="3.41661">
        <ele>205.6</ele>
        <time>2017-04-12T06:42:03Z</time>
      </trkpt>
      <trkpt lat="43.71108" lon="3.41655">
        <ele>205.3</ele>
        <time>2017-04-12T06:42:04Z</time>
      </trkpt>
      <trkpt lat="43.71099" lon="3.41639">
        <ele>204.8</ele>
        <time>2017-04-12T06:42:06Z</time>
      </trkpt>
      <trkpt lat="43.71095" lon="3.41631">
        <ele>204.7</ele>
        <time>2017-04-12T06:42:07Z</time>
      </trkpt>
      <trkpt lat="43.7109" lon="3.41622">
        <ele>204.8</ele>
        <time>2017-04-12T06:42:08Z</time>
      </trkpt>
      <trkpt lat="43.71083" lon="3.41605">
        <ele>205.2</ele>
        <time>2017-04-12T06:42:10Z</time>
      </trkpt>
      <trkpt lat="43.71078" lon="3.41592">
        <ele>205.9</ele>
        <time>2017-04-12T06:42:12Z</time>
      </trkpt>
      <trkpt lat="43.71074" lon="3.41592">
        <ele>205.7</ele>
        <time>2017-04-12T06:42:19Z</time>
      </trkpt>
      <trkpt lat="43.71079" lon="3.41603">
        <ele>205.4</ele>
        <time>2017-04-12T06:42:23Z</time>
      </trkpt>
      <trkpt lat="43.71083" lon="3.41612">
        <ele>205.3</ele>
        <time>2017-04-12T06:42:26Z</time>
      </trkpt>
      <trkpt lat="43.71089" lon="3.41622">
        <ele>205.2</ele>
        <time>2017-04-12T06:42:29Z</time>
      </trkpt>
      <trkpt lat="43.71093" lon="3.41631">
        <ele>204.9</ele>
        <time>2017-04-12T06:42:32Z</time>
      </trkpt>
      <trkpt lat="43.71099" lon="3.41643">
        <ele>204.7</ele>
        <time>2017-04-12T06:42:35Z</time>
      </trkpt>
      <trkpt lat="43.71103" lon="3.41651">
        <ele>204.4</ele>
        <time>2017-04-12T06:42:37Z</time>
      </trkpt>
      <trkpt lat="43.71109" lon="3.41659">
        <ele>204.3</ele>
        <time>2017-04-12T06:42:39Z</time>
      </trkpt>
      <trkpt lat="43.71114" lon="3.41666">
        <ele>204.3</ele>
        <time>2017-04-12T06:42:41Z</time>
      </trkpt>
      <trkpt lat="43.71121" lon="3.41673">
        <ele>204.3</ele>
        <time>2017-04-12T06:42:44Z</time>
      </trkpt>
      <trkpt lat="43.71129" lon="3.41679">
        <ele>204.2</ele>
        <time>2017-04-12T06:42:47Z</time>
      </trkpt>
      <trkpt lat="43.71137" lon="3.41684">
        <ele>204</ele>
        <time>2017-04-12T06:42:50Z</time>
      </trkpt>
      <trkpt lat="43.71146" lon="3.41688">
        <ele>203.9</ele>
        <time>2017-04-12T06:42:53Z</time>
      </trkpt>
      <trkpt lat="43.71154" lon="3.41693">
        <ele>203.8</ele>
        <time>2017-04-12T06:42:56Z</time>
      </trkpt>
      <trkpt lat="43.71162" lon="3.41698">
        <ele>203.8</ele>
        <time>2017-04-12T06:42:59Z</time>
      </trkpt>
      <trkpt lat="43.71171" lon="3.41704">
        <ele>203.8</ele>
        <time>2017-04-12T06:43:02Z</time>
      </trkpt>
      <trkpt lat="43.7118" lon="3.4171">
        <ele>203.9</ele>
        <time>2017-04-12T06:43:05Z</time>
      </trkpt>
      <trkpt lat="43.71189" lon="3.41715">
        <ele>204</ele>
        <time>2017-04-12T06:43:08Z</time>
      </trkpt>
      <trkpt lat="43.71197" lon="3.4172">
        <ele>204.2</ele>
        <time>2017-04-12T06:43:11Z</time>
      </trkpt>
      <trkpt lat="43.71204" lon="3.41723">
        <ele>204.4</ele>
        <time>2017-04-12T06:43:14Z</time>
      </trkpt>
      <trkpt lat="43.71211" lon="3.41728">
        <ele>204.7</ele>
        <time>2017-04-12T06:43:17Z</time>
      </trkpt>
      <trkpt lat="43.71218" lon="3.41736">
        <ele>205.1</ele>
        <time>2017-04-12T06:43:20Z</time>
      </trkpt>
      <trkpt lat="43.71224" lon="3.41742">
        <ele>205.3</ele>
        <time>2017-04-12T06:43:23Z</time>
      </trkpt>
      <trkpt lat="43.7123" lon="3.41749">
        <ele>205.5</ele>
        <time>2017-04-12T06:43:26Z</time>
      </trkpt>
      <trkpt lat="43.71237" lon="3.41758">
        <ele>205.7</ele>
        <time>2017-04-12T06:43:29Z</time>
      </trkpt>
      <trkpt lat="43.71242" lon="3.41766">
        <ele>206</ele>
        <time>2017-04-12T06:43:32Z</time>
      </trkpt>
      <trkpt lat="43.71248" lon="3.41774">
        <ele>206.2</ele>
        <time>2017-04-12T06:43:35Z</time>
      </trkpt>
      <trkpt lat="43.71253" lon="3.41782">
        <ele>206.6</ele>
        <time>2017-04-12T06:43:38Z</time>
      </trkpt>
      <trkpt lat="43.71258" lon="3.4179">
        <ele>207</ele>
        <time>2017-04-12T06:43:41Z</time>
      </trkpt>
      <trkpt lat="43.71262" lon="3.41799">
        <ele>207.6</ele>
        <time>2017-04-12T06:43:44Z</time>
      </trkpt>
      <trkpt lat="43.71267" lon="3.4181">
        <ele>207.9</ele>
        <time>2017-04-12T06:43:47Z</time>
      </trkpt>
      <trkpt lat="43.71272" lon="3.41819">
        <ele>208.3</ele>
        <time>2017-04-12T06:43:51Z</time>
      </trkpt>
      <trkpt lat="43.71278" lon="3.41829">
        <ele>208.6</ele>
        <time>2017-04-12T06:43:54Z</time>
      </trkpt>
      <trkpt lat="43.71283" lon="3.41837">
        <ele>209</ele>
        <time>2017-04-12T06:43:57Z</time>
      </trkpt>
      <trkpt lat="43.71287" lon="3.41845">
        <ele>209.5</ele>
        <time>2017-04-12T06:44:00Z</time>
      </trkpt>
      <trkpt lat="43.71292" lon="3.41854">
        <ele>210.2</ele>
        <time>2017-04-12T06:44:03Z</time>
      </trkpt>
      <trkpt lat="43.71298" lon="3.41865">
        <ele>210.8</ele>
        <time>2017-04-12T06:44:07Z</time>
      </trkpt>
      <trkpt lat="43.71303" lon="3.41874">
        <ele>211.2</ele>
        <time>2017-04-12T06:44:10Z</time>
      </trkpt>
      <trkpt lat="43.71309" lon="3.41883">
        <ele>211.5</ele>
        <time>2017-04-12T06:44:13Z</time>
      </trkpt>
      <trkpt lat="43.71314" lon="3.41891">
        <ele>211.7</ele>
        <time>2017-04-12T06:44:16Z</time>
      </trkpt>
      <trkpt lat="43.71318" lon="3.41899">
        <ele>212.1</ele>
        <time>2017-04-12T06:44:19Z</time>
      </trkpt>
      <trkpt lat="43.71323" lon="3.41909">
        <ele>212.6</ele>
        <time>2017-04-12T06:44:23Z</time>
      </trkpt>
      <trkpt lat="43.71327" lon="3.41918">
        <ele>213</ele>
        <time>2017-04-12T06:44:26Z</time>
      </trkpt>
      <trkpt lat="43.71332" lon="3.41928">
        <ele>213.4</ele>
        <time>2017-04-12T06:44:29Z</time>
      </trkpt>
      <trkpt lat="43.71339" lon="3.41939">
        <ele>213.6</ele>
        <time>2017-04-12T06:44:32Z</time>
      </trkpt>
      <trkpt lat="43.71345" lon="3.41949">
        <ele>213.8</ele>
        <time>2017-04-12T06:44:35Z</time>
      </trkpt>
      <trkpt lat="43.71351" lon="3.4196">
        <ele>213.8</ele>
        <time>2017-04-12T06:44:38Z</time>
      </trkpt>
      <trkpt lat="43.71357" lon="3.41969">
        <ele>213.7</ele>
        <time>2017-04-12T06:44:40Z</time>
      </trkpt>
      <trkpt lat="43.71362" lon="3.41979">
        <ele>213.3</ele>
        <time>2017-04-12T06:44:42Z</time>
      </trkpt>
      <trkpt lat="43.71367" lon="3.41987">
        <ele>213.3</ele>
        <time>2017-04-12T06:44:44Z</time>
      </trkpt>
      <trkpt lat="43.71371" lon="3.41997">
        <ele>213.2</ele>
        <time>2017-04-12T06:44:46Z</time>
      </trkpt>
      <trkpt lat="43.71377" lon="3.42008">
        <ele>213.4</ele>
        <time>2017-04-12T06:44:49Z</time>
      </trkpt>
      <trkpt lat="43.71381" lon="3.42017">
        <ele>213.5</ele>
        <time>2017-04-12T06:44:51Z</time>
      </trkpt>
      <trkpt lat="43.71387" lon="3.42027">
        <ele>213.6</ele>
        <time>2017-04-12T06:44:54Z</time>
      </trkpt>
      <trkpt lat="43.71394" lon="3.42036">
        <ele>213.6</ele>
        <time>2017-04-12T06:44:57Z</time>
      </trkpt>
      <trkpt lat="43.71397" lon="3.42045">
        <ele>213.6</ele>
        <time>2017-04-12T06:44:58Z</time>
      </trkpt>
      <trkpt lat="43.71402" lon="3.42058">
        <ele>213.5</ele>
        <time>2017-04-12T06:45:01Z</time>
      </trkpt>
      <trkpt lat="43.71407" lon="3.42069">
        <ele>213.7</ele>
        <time>2017-04-12T06:45:04Z</time>
      </trkpt>
      <trkpt lat="43.71414" lon="3.42078">
        <ele>213.7</ele>
        <time>2017-04-12T06:45:07Z</time>
      </trkpt>
      <trkpt lat="43.71419" lon="3.42087">
        <ele>213.8</ele>
        <time>2017-04-12T06:45:10Z</time>
      </trkpt>
      <trkpt lat="43.71424" lon="3.42095">
        <ele>214</ele>
        <time>2017-04-12T06:45:13Z</time>
      </trkpt>
      <trkpt lat="43.71431" lon="3.42104">
        <ele>214.1</ele>
        <time>2017-04-12T06:45:16Z</time>
      </trkpt>
      <trkpt lat="43.71436" lon="3.42113">
        <ele>214.2</ele>
        <time>2017-04-12T06:45:20Z</time>
      </trkpt>
      <trkpt lat="43.71441" lon="3.42122">
        <ele>214.2</ele>
        <time>2017-04-12T06:45:24Z</time>
      </trkpt>
      <trkpt lat="43.71444" lon="3.42134">
        <ele>214.5</ele>
        <time>2017-04-12T06:45:27Z</time>
      </trkpt>
      <trkpt lat="43.71446" lon="3.42144">
        <ele>215</ele>
        <time>2017-04-12T06:45:30Z</time>
      </trkpt>
      <trkpt lat="43.71453" lon="3.42153">
        <ele>215.5</ele>
        <time>2017-04-12T06:45:33Z</time>
      </trkpt>
      <trkpt lat="43.71461" lon="3.42159">
        <ele>215.8</ele>
        <time>2017-04-12T06:45:36Z</time>
      </trkpt>
      <trkpt lat="43.7147" lon="3.42163">
        <ele>216.2</ele>
        <time>2017-04-12T06:45:39Z</time>
      </trkpt>
      <trkpt lat="43.71479" lon="3.42167">
        <ele>216.5</ele>
        <time>2017-04-12T06:45:42Z</time>
      </trkpt>
      <trkpt lat="43.71488" lon="3.42171">
        <ele>216.9</ele>
        <time>2017-04-12T06:45:45Z</time>
      </trkpt>
      <trkpt lat="43.71494" lon="3.42177">
        <ele>217.2</ele>
        <time>2017-04-12T06:45:48Z</time>
      </trkpt>
      <trkpt lat="43.71502" lon="3.42179">
        <ele>217.6</ele>
        <time>2017-04-12T06:45:51Z</time>
      </trkpt>
      <trkpt lat="43.71507" lon="3.42171">
        <ele>218.1</ele>
        <time>2017-04-12T06:45:56Z</time>
      </trkpt>
      <trkpt lat="43.71509" lon="3.4216">
        <ele>218.6</ele>
        <time>2017-04-12T06:45:58Z</time>
      </trkpt>
      <trkpt lat="43.71511" lon="3.42147">
        <ele>219.1</ele>
        <time>2017-04-12T06:46:01Z</time>
      </trkpt>
      <trkpt lat="43.71515" lon="3.42138">
        <ele>219.4</ele>
        <time>2017-04-12T06:46:03Z</time>
      </trkpt>
      <trkpt lat="43.71521" lon="3.42129">
        <ele>219.8</ele>
        <time>2017-04-12T06:46:06Z</time>
      </trkpt>
      <trkpt lat="43.71527" lon="3.42123">
        <ele>221.8</ele>
        <time>2017-04-12T06:46:09Z</time>
      </trkpt>
      <trkpt lat="43.71535" lon="3.42116">
        <ele>222.1</ele>
        <time>2017-04-12T06:46:12Z</time>
      </trkpt>
      <trkpt lat="43.7154" lon="3.42109">
        <ele>222.2</ele>
        <time>2017-04-12T06:46:14Z</time>
      </trkpt>
      <trkpt lat="43.71547" lon="3.42101">
        <ele>222.4</ele>
        <time>2017-04-12T06:46:17Z</time>
      </trkpt>
      <trkpt lat="43.71552" lon="3.42092">
        <ele>222.7</ele>
        <time>2017-04-12T06:46:22Z</time>
      </trkpt>
      <trkpt lat="43.71557" lon="3.42084">
        <ele>222.9</ele>
        <time>2017-04-12T06:46:23Z</time>
      </trkpt>
      <trkpt lat="43.71563" lon="3.42075">
        <ele>222.9</ele>
        <time>2017-04-12T06:46:25Z</time>
      </trkpt>
      <trkpt lat="43.71567" lon="3.42064">
        <ele>223.1</ele>
        <time>2017-04-12T06:46:28Z</time>
      </trkpt>
      <trkpt lat="43.71572" lon="3.42055">
        <ele>223.3</ele>
        <time>2017-04-12T06:46:31Z</time>
      </trkpt>
      <trkpt lat="43.71578" lon="3.42046">
        <ele>223.4</ele>
        <time>2017-04-12T06:46:33Z</time>
      </trkpt>
      <trkpt lat="43.71584" lon="3.42036">
        <ele>223.5</ele>
        <time>2017-04-12T06:46:36Z</time>
      </trkpt>
      <trkpt lat="43.71592" lon="3.42028">
        <ele>223.7</ele>
        <time>2017-04-12T06:46:39Z</time>
      </trkpt>
      <trkpt lat="43.71599" lon="3.42023">
        <ele>223.8</ele>
        <time>2017-04-12T06:46:41Z</time>
      </trkpt>
      <trkpt lat="43.71607" lon="3.42014">
        <ele>224.1</ele>
        <time>2017-04-12T06:46:44Z</time>
      </trkpt>
      <trkpt lat="43.71614" lon="3.42007">
        <ele>224.2</ele>
        <time>2017-04-12T06:46:46Z</time>
      </trkpt>
      <trkpt lat="43.71621" lon="3.41999">
        <ele>224.2</ele>
        <time>2017-04-12T06:46:48Z</time>
      </trkpt>
      <trkpt lat="43.71628" lon="3.41992">
        <ele>224.4</ele>
        <time>2017-04-12T06:46:51Z</time>
      </trkpt>
      <trkpt lat="43.71636" lon="3.41986">
        <ele>224.8</ele>
        <time>2017-04-12T06:46:54Z</time>
      </trkpt>
      <trkpt lat="43.71641" lon="3.41982">
        <ele>225.4</ele>
        <time>2017-04-12T06:47:01Z</time>
      </trkpt>
      <trkpt lat="43.71646" lon="3.41966">
        <ele>226</ele>
        <time>2017-04-12T06:47:10Z</time>
      </trkpt>
      <trkpt lat="43.71652" lon="3.41958">
        <ele>226.1</ele>
        <time>2017-04-12T06:47:13Z</time>
      </trkpt>
      <trkpt lat="43.71656" lon="3.41948">
        <ele>226.2</ele>
        <time>2017-04-12T06:47:16Z</time>
      </trkpt>
      <trkpt lat="43.71661" lon="3.4194">
        <ele>226.5</ele>
        <time>2017-04-12T06:47:19Z</time>
      </trkpt>
      <trkpt lat="43.71666" lon="3.41932">
        <ele>226.8</ele>
        <time>2017-04-12T06:47:22Z</time>
      </trkpt>
      <trkpt lat="43.71671" lon="3.41923">
        <ele>227.1</ele>
        <time>2017-04-12T06:47:26Z</time>
      </trkpt>
      <trkpt lat="43.71677" lon="3.41915">
        <ele>227.3</ele>
        <time>2017-04-12T06:47:31Z</time>
      </trkpt>
      <trkpt lat="43.71679" lon="3.41904">
        <ele>227.9</ele>
        <time>2017-04-12T06:47:38Z</time>
      </trkpt>
      <trkpt lat="43.71683" lon="3.41904">
        <ele>228.4</ele>
        <time>2017-04-12T06:47:45Z</time>
      </trkpt>
      <trkpt lat="43.71687" lon="3.419">
        <ele>228.7</ele>
        <time>2017-04-12T06:47:52Z</time>
      </trkpt>
      <trkpt lat="43.71694" lon="3.41895">
        <ele>228.9</ele>
        <time>2017-04-12T06:47:59Z</time>
      </trkpt>
      <trkpt lat="43.71699" lon="3.41888">
        <ele>229.2</ele>
        <time>2017-04-12T06:48:06Z</time>
      </trkpt>
      <trkpt lat="43.71704" lon="3.41878">
        <ele>229.6</ele>
        <time>2017-04-12T06:48:10Z</time>
      </trkpt>
      <trkpt lat="43.71711" lon="3.41871">
        <ele>230</ele>
        <time>2017-04-12T06:48:14Z</time>
      </trkpt>
      <trkpt lat="43.71716" lon="3.41861">
        <ele>230.4</ele>
        <time>2017-04-12T06:48:18Z</time>
      </trkpt>
      <trkpt lat="43.71719" lon="3.41857">
        <ele>230.8</ele>
        <time>2017-04-12T06:48:25Z</time>
      </trkpt>
      <trkpt lat="43.71725" lon="3.4185">
        <ele>230.9</ele>
        <time>2017-04-12T06:48:30Z</time>
      </trkpt>
      <trkpt lat="43.71731" lon="3.41842">
        <ele>231.2</ele>
        <time>2017-04-12T06:48:34Z</time>
      </trkpt>
      <trkpt lat="43.71739" lon="3.41838">
        <ele>231.6</ele>
        <time>2017-04-12T06:48:38Z</time>
      </trkpt>
      <trkpt lat="43.71747" lon="3.41835">
        <ele>231.9</ele>
        <time>2017-04-12T06:48:43Z</time>
      </trkpt>
      <trkpt lat="43.71754" lon="3.41834">
        <ele>232</ele>
        <time>2017-04-12T06:48:47Z</time>
      </trkpt>
      <trkpt lat="43.71763" lon="3.41834">
        <ele>232.1</ele>
        <time>2017-04-12T06:48:52Z</time>
      </trkpt>
      <trkpt lat="43.71771" lon="3.41835">
        <ele>232.2</ele>
        <time>2017-04-12T06:48:58Z</time>
      </trkpt>
      <trkpt lat="43.71779" lon="3.41839">
        <ele>232.3</ele>
        <time>2017-04-12T06:49:03Z</time>
      </trkpt>
      <trkpt lat="43.71788" lon="3.41842">
        <ele>232.5</ele>
        <time>2017-04-12T06:49:08Z</time>
      </trkpt>
      <trkpt lat="43.71796" lon="3.41845">
        <ele>232.7</ele>
        <time>2017-04-12T06:49:14Z</time>
      </trkpt>
      <trkpt lat="43.71804" lon="3.41848">
        <ele>232.8</ele>
        <time>2017-04-12T06:49:19Z</time>
      </trkpt>
      <trkpt lat="43.71811" lon="3.41852">
        <ele>232.9</ele>
        <time>2017-04-12T06:49:23Z</time>
      </trkpt>
      <trkpt lat="43.71819" lon="3.41854">
        <ele>233</ele>
        <time>2017-04-12T06:49:27Z</time>
      </trkpt>
      <trkpt lat="43.71827" lon="3.41858">
        <ele>233.2</ele>
        <time>2017-04-12T06:49:31Z</time>
      </trkpt>
      <trkpt lat="43.71835" lon="3.4186">
        <ele>233.4</ele>
        <time>2017-04-12T06:49:35Z</time>
      </trkpt>
      <trkpt lat="43.71843" lon="3.41863">
        <ele>233.6</ele>
        <time>2017-04-12T06:49:39Z</time>
      </trkpt>
      <trkpt lat="43.71852" lon="3.41866">
        <ele>233.9</ele>
        <time>2017-04-12T06:49:43Z</time>
      </trkpt>
      <trkpt lat="43.7186" lon="3.41867">
        <ele>234.2</ele>
        <time>2017-04-12T06:49:46Z</time>
      </trkpt>
      <trkpt lat="43.71867" lon="3.41868">
        <ele>234.4</ele>
        <time>2017-04-12T06:49:49Z</time>
      </trkpt>
      <trkpt lat="43.71876" lon="3.41866">
        <ele>234.6</ele>
        <time>2017-04-12T06:49:53Z</time>
      </trkpt>
      <trkpt lat="43.71885" lon="3.41866">
        <ele>234.8</ele>
        <time>2017-04-12T06:49:57Z</time>
      </trkpt>
      <trkpt lat="43.71894" lon="3.41866">
        <ele>235</ele>
        <time>2017-04-12T06:50:02Z</time>
      </trkpt>
      <trkpt lat="43.71901" lon="3.41864">
        <ele>235.2</ele>
        <time>2017-04-12T06:50:04Z</time>
      </trkpt>
      <trkpt lat="43.71908" lon="3.41862">
        <ele>235.3</ele>
        <time>2017-04-12T06:50:07Z</time>
      </trkpt>
      <trkpt lat="43.71916" lon="3.4186">
        <ele>235.6</ele>
        <time>2017-04-12T06:50:11Z</time>
      </trkpt>
      <trkpt lat="43.71923" lon="3.41858">
        <ele>235.9</ele>
        <time>2017-04-12T06:50:14Z</time>
      </trkpt>
      <trkpt lat="43.71931" lon="3.41856">
        <ele>236.1</ele>
        <time>2017-04-12T06:50:17Z</time>
      </trkpt>
      <trkpt lat="43.71938" lon="3.41854">
        <ele>236.5</ele>
        <time>2017-04-12T06:50:20Z</time>
      </trkpt>
      <trkpt lat="43.71946" lon="3.41852">
        <ele>236.7</ele>
        <time>2017-04-12T06:50:23Z</time>
      </trkpt>
      <trkpt lat="43.71954" lon="3.4185">
        <ele>237</ele>
        <time>2017-04-12T06:50:26Z</time>
      </trkpt>
      <trkpt lat="43.71963" lon="3.41849">
        <ele>237.3</ele>
        <time>2017-04-12T06:50:30Z</time>
      </trkpt>
      <trkpt lat="43.71973" lon="3.41848">
        <ele>237.7</ele>
        <time>2017-04-12T06:50:34Z</time>
      </trkpt>
      <trkpt lat="43.7198" lon="3.41845">
        <ele>238</ele>
        <time>2017-04-12T06:50:37Z</time>
      </trkpt>
      <trkpt lat="43.71989" lon="3.41842">
        <ele>238.7</ele>
        <time>2017-04-12T06:50:41Z</time>
      </trkpt>
      <trkpt lat="43.71995" lon="3.41837">
        <ele>239</ele>
        <time>2017-04-12T06:50:44Z</time>
      </trkpt>
      <trkpt lat="43.72" lon="3.4183">
        <ele>239.3</ele>
        <time>2017-04-12T06:50:47Z</time>
      </trkpt>
      <trkpt lat="43.72006" lon="3.41822">
        <ele>239.6</ele>
        <time>2017-04-12T06:50:50Z</time>
      </trkpt>
      <trkpt lat="43.72012" lon="3.41813">
        <ele>240</ele>
        <time>2017-04-12T06:50:53Z</time>
      </trkpt>
      <trkpt lat="43.72017" lon="3.41804">
        <ele>240.5</ele>
        <time>2017-04-12T06:50:56Z</time>
      </trkpt>
      <trkpt lat="43.72023" lon="3.41793">
        <ele>241</ele>
        <time>2017-04-12T06:51:00Z</time>
      </trkpt>
      <trkpt lat="43.72027" lon="3.41783">
        <ele>241.5</ele>
        <time>2017-04-12T06:51:03Z</time>
      </trkpt>
      <trkpt lat="43.72032" lon="3.41769">
        <ele>241.8</ele>
        <time>2017-04-12T06:51:06Z</time>
      </trkpt>
      <trkpt lat="43.72036" lon="3.41758">
        <ele>241.9</ele>
        <time>2017-04-12T06:51:09Z</time>
      </trkpt>
      <trkpt lat="43.72038" lon="3.41747">
        <ele>242.1</ele>
        <time>2017-04-12T06:51:12Z</time>
      </trkpt>
      <trkpt lat="43.72041" lon="3.41735">
        <ele>242.3</ele>
        <time>2017-04-12T06:51:15Z</time>
      </trkpt>
      <trkpt lat="43.72044" lon="3.41723">
        <ele>242.5</ele>
        <time>2017-04-12T06:51:18Z</time>
      </trkpt>
      <trkpt lat="43.72047" lon="3.41712">
        <ele>242.6</ele>
        <time>2017-04-12T06:51:21Z</time>
      </trkpt>
      <trkpt lat="43.7205" lon="3.41699">
        <ele>242.6</ele>
        <time>2017-04-12T06:51:24Z</time>
      </trkpt>
      <trkpt lat="43.72051" lon="3.41687">
        <ele>242.7</ele>
        <time>2017-04-12T06:51:28Z</time>
      </trkpt>
      <trkpt lat="43.72052" lon="3.41676">
        <ele>243</ele>
        <time>2017-04-12T06:51:31Z</time>
      </trkpt>
      <trkpt lat="43.72052" lon="3.41663">
        <ele>243.3</ele>
        <time>2017-04-12T06:51:34Z</time>
      </trkpt>
      <trkpt lat="43.72051" lon="3.41651">
        <ele>243.6</ele>
        <time>2017-04-12T06:51:36Z</time>
      </trkpt>
      <trkpt lat="43.7205" lon="3.41641">
        <ele>244</ele>
        <time>2017-04-12T06:51:39Z</time>
      </trkpt>
      <trkpt lat="43.72048" lon="3.41629">
        <ele>244.4</ele>
        <time>2017-04-12T06:51:43Z</time>
      </trkpt>
      <trkpt lat="43.72047" lon="3.41619">
        <ele>244.8</ele>
        <time>2017-04-12T06:51:46Z</time>
      </trkpt>
      <trkpt lat="43.72046" lon="3.41608">
        <ele>245</ele>
        <time>2017-04-12T06:51:49Z</time>
      </trkpt>
      <trkpt lat="43.72045" lon="3.41596">
        <ele>245.4</ele>
        <time>2017-04-12T06:51:52Z</time>
      </trkpt>
      <trkpt lat="43.72044" lon="3.41585">
        <ele>245.8</ele>
        <time>2017-04-12T06:51:55Z</time>
      </trkpt>
      <trkpt lat="43.72044" lon="3.41573">
        <ele>246.2</ele>
        <time>2017-04-12T06:51:58Z</time>
      </trkpt>
      <trkpt lat="43.72044" lon="3.41563">
        <ele>246.4</ele>
        <time>2017-04-12T06:52:00Z</time>
      </trkpt>
      <trkpt lat="43.72045" lon="3.41551">
        <ele>246.7</ele>
        <time>2017-04-12T06:52:03Z</time>
      </trkpt>
      <trkpt lat="43.72048" lon="3.41538">
        <ele>247</ele>
        <time>2017-04-12T06:52:06Z</time>
      </trkpt>
      <trkpt lat="43.72051" lon="3.41527">
        <ele>247.1</ele>
        <time>2017-04-12T06:52:09Z</time>
      </trkpt>
      <trkpt lat="43.72055" lon="3.41518">
        <ele>247.5</ele>
        <time>2017-04-12T06:52:12Z</time>
      </trkpt>
      <trkpt lat="43.72061" lon="3.41507">
        <ele>247.9</ele>
        <time>2017-04-12T06:52:15Z</time>
      </trkpt>
      <trkpt lat="43.72065" lon="3.41498">
        <ele>248</ele>
        <time>2017-04-12T06:52:18Z</time>
      </trkpt>
      <trkpt lat="43.7207" lon="3.41486">
        <ele>248.2</ele>
        <time>2017-04-12T06:52:21Z</time>
      </trkpt>
      <trkpt lat="43.72075" lon="3.41478">
        <ele>248.4</ele>
        <time>2017-04-12T06:52:24Z</time>
      </trkpt>
      <trkpt lat="43.72083" lon="3.41471">
        <ele>248.6</ele>
        <time>2017-04-12T06:52:28Z</time>
      </trkpt>
      <trkpt lat="43.7209" lon="3.41466">
        <ele>248.9</ele>
        <time>2017-04-12T06:52:31Z</time>
      </trkpt>
      <trkpt lat="43.72098" lon="3.4146">
        <ele>249.3</ele>
        <time>2017-04-12T06:52:35Z</time>
      </trkpt>
      <trkpt lat="43.72105" lon="3.41453">
        <ele>249.9</ele>
        <time>2017-04-12T06:52:40Z</time>
      </trkpt>
      <trkpt lat="43.72112" lon="3.41447">
        <ele>250.5</ele>
        <time>2017-04-12T06:52:44Z</time>
      </trkpt>
      <trkpt lat="43.72119" lon="3.4144">
        <ele>251</ele>
        <time>2017-04-12T06:52:48Z</time>
      </trkpt>
      <trkpt lat="43.72126" lon="3.41436">
        <ele>251.2</ele>
        <time>2017-04-12T06:52:52Z</time>
      </trkpt>
      <trkpt lat="43.72134" lon="3.41435">
        <ele>251.8</ele>
        <time>2017-04-12T06:52:56Z</time>
      </trkpt>
      <trkpt lat="43.72142" lon="3.41439">
        <ele>252.4</ele>
        <time>2017-04-12T06:53:00Z</time>
      </trkpt>
      <trkpt lat="43.72147" lon="3.41448">
        <ele>252.9</ele>
        <time>2017-04-12T06:53:04Z</time>
      </trkpt>
      <trkpt lat="43.7215" lon="3.41457">
        <ele>253.7</ele>
        <time>2017-04-12T06:53:09Z</time>
      </trkpt>
      <trkpt lat="43.72155" lon="3.41468">
        <ele>254.6</ele>
        <time>2017-04-12T06:53:13Z</time>
      </trkpt>
      <trkpt lat="43.72158" lon="3.41477">
        <ele>255.3</ele>
        <time>2017-04-12T06:53:16Z</time>
      </trkpt>
      <trkpt lat="43.72164" lon="3.41486">
        <ele>256.3</ele>
        <time>2017-04-12T06:53:21Z</time>
      </trkpt>
      <trkpt lat="43.72167" lon="3.41495">
        <ele>257.2</ele>
        <time>2017-04-12T06:53:25Z</time>
      </trkpt>
      <trkpt lat="43.7217" lon="3.41506">
        <ele>258.1</ele>
        <time>2017-04-12T06:53:29Z</time>
      </trkpt>
      <trkpt lat="43.72173" lon="3.41515">
        <ele>259</ele>
        <time>2017-04-12T06:53:33Z</time>
      </trkpt>
      <trkpt lat="43.72179" lon="3.41523">
        <ele>260.2</ele>
        <time>2017-04-12T06:53:38Z</time>
      </trkpt>
      <trkpt lat="43.72183" lon="3.41531">
        <ele>260.9</ele>
        <time>2017-04-12T06:53:41Z</time>
      </trkpt>
      <trkpt lat="43.72189" lon="3.41538">
        <ele>261.9</ele>
        <time>2017-04-12T06:53:45Z</time>
      </trkpt>
      <trkpt lat="43.72196" lon="3.41544">
        <ele>262.9</ele>
        <time>2017-04-12T06:53:50Z</time>
      </trkpt>
      <trkpt lat="43.72203" lon="3.41549">
        <ele>263.7</ele>
        <time>2017-04-12T06:53:54Z</time>
      </trkpt>
      <trkpt lat="43.72212" lon="3.41553">
        <ele>264.6</ele>
        <time>2017-04-12T06:53:59Z</time>
      </trkpt>
      <trkpt lat="43.72218" lon="3.41557">
        <ele>265.6</ele>
        <time>2017-04-12T06:54:03Z</time>
      </trkpt>
      <trkpt lat="43.72225" lon="3.41561">
        <ele>266.6</ele>
        <time>2017-04-12T06:54:07Z</time>
      </trkpt>
      <trkpt lat="43.72232" lon="3.41565">
        <ele>267.5</ele>
        <time>2017-04-12T06:54:11Z</time>
      </trkpt>
      <trkpt lat="43.7224" lon="3.41572">
        <ele>268.7</ele>
        <time>2017-04-12T06:54:17Z</time>
      </trkpt>
      <trkpt lat="43.72247" lon="3.41578">
        <ele>269.9</ele>
        <time>2017-04-12T06:54:22Z</time>
      </trkpt>
      <trkpt lat="43.72254" lon="3.41582">
        <ele>270.6</ele>
        <time>2017-04-12T06:54:26Z</time>
      </trkpt>
      <trkpt lat="43.72262" lon="3.41586">
        <ele>271.9</ele>
        <time>2017-04-12T06:54:31Z</time>
      </trkpt>
      <trkpt lat="43.72269" lon="3.41591">
        <ele>272.9</ele>
        <time>2017-04-12T06:54:36Z</time>
      </trkpt>
      <trkpt lat="43.72275" lon="3.41597">
        <ele>274.1</ele>
        <time>2017-04-12T06:54:40Z</time>
      </trkpt>
      <trkpt lat="43.72282" lon="3.41605">
        <ele>275.9</ele>
        <time>2017-04-12T06:54:46Z</time>
      </trkpt>
      <trkpt lat="43.72288" lon="3.41611">
        <ele>276.6</ele>
        <time>2017-04-12T06:54:50Z</time>
      </trkpt>
      <trkpt lat="43.72294" lon="3.41619">
        <ele>277.9</ele>
        <time>2017-04-12T06:54:55Z</time>
      </trkpt>
      <trkpt lat="43.72301" lon="3.41628">
        <ele>279.1</ele>
        <time>2017-04-12T06:54:59Z</time>
      </trkpt>
      <trkpt lat="43.72306" lon="3.41638">
        <ele>280.3</ele>
        <time>2017-04-12T06:55:03Z</time>
      </trkpt>
      <trkpt lat="43.7231" lon="3.41646">
        <ele>281.1</ele>
        <time>2017-04-12T06:55:06Z</time>
      </trkpt>
      <trkpt lat="43.72314" lon="3.41656">
        <ele>281.9</ele>
        <time>2017-04-12T06:55:10Z</time>
      </trkpt>
      <trkpt lat="43.72318" lon="3.41667">
        <ele>282.8</ele>
        <time>2017-04-12T06:55:14Z</time>
      </trkpt>
      <trkpt lat="43.72324" lon="3.41674">
        <ele>283.6</ele>
        <time>2017-04-12T06:55:18Z</time>
      </trkpt>
      <trkpt lat="43.7233" lon="3.41682">
        <ele>284.4</ele>
        <time>2017-04-12T06:55:22Z</time>
      </trkpt>
      <trkpt lat="43.72337" lon="3.41691">
        <ele>285.1</ele>
        <time>2017-04-12T06:55:26Z</time>
      </trkpt>
      <trkpt lat="43.72344" lon="3.41698">
        <ele>285.9</ele>
        <time>2017-04-12T06:55:30Z</time>
      </trkpt>
      <trkpt lat="43.7235" lon="3.41705">
        <ele>286.7</ele>
        <time>2017-04-12T06:55:34Z</time>
      </trkpt>
      <trkpt lat="43.72355" lon="3.41714">
        <ele>287.6</ele>
        <time>2017-04-12T06:55:38Z</time>
      </trkpt>
      <trkpt lat="43.7236" lon="3.41723">
        <ele>288.4</ele>
        <time>2017-04-12T06:55:42Z</time>
      </trkpt>
      <trkpt lat="43.72363" lon="3.41731">
        <ele>289.3</ele>
        <time>2017-04-12T06:55:46Z</time>
      </trkpt>
      <trkpt lat="43.7237" lon="3.41741">
        <ele>290.1</ele>
        <time>2017-04-12T06:55:50Z</time>
      </trkpt>
      <trkpt lat="43.72377" lon="3.41748">
        <ele>291</ele>
        <time>2017-04-12T06:55:54Z</time>
      </trkpt>
      <trkpt lat="43.72386" lon="3.4175">
        <ele>292.2</ele>
        <time>2017-04-12T06:55:59Z</time>
      </trkpt>
      <trkpt lat="43.72394" lon="3.41752">
        <ele>293</ele>
        <time>2017-04-12T06:56:03Z</time>
      </trkpt>
      <trkpt lat="43.72402" lon="3.41753">
        <ele>293.9</ele>
        <time>2017-04-12T06:56:07Z</time>
      </trkpt>
      <trkpt lat="43.7241" lon="3.41755">
        <ele>294.8</ele>
        <time>2017-04-12T06:56:11Z</time>
      </trkpt>
      <trkpt lat="43.72419" lon="3.41757">
        <ele>295.6</ele>
        <time>2017-04-12T06:56:15Z</time>
      </trkpt>
      <trkpt lat="43.72427" lon="3.4176">
        <ele>296.5</ele>
        <time>2017-04-12T06:56:19Z</time>
      </trkpt>
      <trkpt lat="43.72435" lon="3.41762">
        <ele>297.4</ele>
        <time>2017-04-12T06:56:23Z</time>
      </trkpt>
      <trkpt lat="43.72442" lon="3.41765">
        <ele>298.3</ele>
        <time>2017-04-12T06:56:27Z</time>
      </trkpt>
      <trkpt lat="43.72451" lon="3.41768">
        <ele>299.2</ele>
        <time>2017-04-12T06:56:31Z</time>
      </trkpt>
      <trkpt lat="43.7246" lon="3.41771">
        <ele>300</ele>
        <time>2017-04-12T06:56:35Z</time>
      </trkpt>
      <trkpt lat="43.72468" lon="3.41772">
        <ele>300.7</ele>
        <time>2017-04-12T06:56:38Z</time>
      </trkpt>
      <trkpt lat="43.72477" lon="3.41773">
        <ele>301.3</ele>
        <time>2017-04-12T06:56:41Z</time>
      </trkpt>
      <trkpt lat="43.72486" lon="3.41775">
        <ele>301.9</ele>
        <time>2017-04-12T06:56:44Z</time>
      </trkpt>
      <trkpt lat="43.72495" lon="3.41777">
        <ele>302.3</ele>
        <time>2017-04-12T06:56:47Z</time>
      </trkpt>
      <trkpt lat="43.72502" lon="3.4178">
        <ele>302.8</ele>
        <time>2017-04-12T06:56:50Z</time>
      </trkpt>
      <trkpt lat="43.72509" lon="3.41783">
        <ele>303.5</ele>
        <time>2017-04-12T06:56:53Z</time>
      </trkpt>
      <trkpt lat="43.72518" lon="3.41785">
        <ele>304.3</ele>
        <time>2017-04-12T06:56:57Z</time>
      </trkpt>
      <trkpt lat="43.72526" lon="3.41788">
        <ele>305</ele>
        <time>2017-04-12T06:57:01Z</time>
      </trkpt>
      <trkpt lat="43.72533" lon="3.41792">
        <ele>305.5</ele>
        <time>2017-04-12T06:57:04Z</time>
      </trkpt>
      <trkpt lat="43.72541" lon="3.41795">
        <ele>306.1</ele>
        <time>2017-04-12T06:57:07Z</time>
      </trkpt>
      <trkpt lat="43.72549" lon="3.41798">
        <ele>306.7</ele>
        <time>2017-04-12T06:57:10Z</time>
      </trkpt>
      <trkpt lat="43.72557" lon="3.418">
        <ele>307</ele>
        <time>2017-04-12T06:57:13Z</time>
      </trkpt>
      <trkpt lat="43.72564" lon="3.41802">
        <ele>307.5</ele>
        <time>2017-04-12T06:57:16Z</time>
      </trkpt>
      <trkpt lat="43.72572" lon="3.41803">
        <ele>307.9</ele>
        <time>2017-04-12T06:57:19Z</time>
      </trkpt>
      <trkpt lat="43.72581" lon="3.41805">
        <ele>308.4</ele>
        <time>2017-04-12T06:57:23Z</time>
      </trkpt>
      <trkpt lat="43.7259" lon="3.41807">
        <ele>309</ele>
        <time>2017-04-12T06:57:27Z</time>
      </trkpt>
      <trkpt lat="43.72598" lon="3.41809">
        <ele>309.4</ele>
        <time>2017-04-12T06:57:30Z</time>
      </trkpt>
      <trkpt lat="43.72606" lon="3.4181">
        <ele>309.9</ele>
        <time>2017-04-12T06:57:33Z</time>
      </trkpt>
      <trkpt lat="43.72613" lon="3.41811">
        <ele>310.3</ele>
        <time>2017-04-12T06:57:36Z</time>
      </trkpt>
      <trkpt lat="43.72622" lon="3.41812">
        <ele>310.9</ele>
        <time>2017-04-12T06:57:40Z</time>
      </trkpt>
      <trkpt lat="43.7263" lon="3.4181">
        <ele>311.4</ele>
        <time>2017-04-12T06:57:43Z</time>
      </trkpt>
      <trkpt lat="43.72638" lon="3.41809">
        <ele>311.9</ele>
        <time>2017-04-12T06:57:46Z</time>
      </trkpt>
      <trkpt lat="43.72648" lon="3.41809">
        <ele>312.3</ele>
        <time>2017-04-12T06:57:49Z</time>
      </trkpt>
      <trkpt lat="43.72658" lon="3.41811">
        <ele>312.6</ele>
        <time>2017-04-12T06:57:52Z</time>
      </trkpt>
      <trkpt lat="43.72667" lon="3.41813">
        <ele>313</ele>
        <time>2017-04-12T06:57:55Z</time>
      </trkpt>
      <trkpt lat="43.72676" lon="3.41816">
        <ele>313.3</ele>
        <time>2017-04-12T06:57:58Z</time>
      </trkpt>
      <trkpt lat="43.72684" lon="3.4182">
        <ele>313.5</ele>
        <time>2017-04-12T06:58:01Z</time>
      </trkpt>
      <trkpt lat="43.72693" lon="3.41825">
        <ele>313.7</ele>
        <time>2017-04-12T06:58:04Z</time>
      </trkpt>
      <trkpt lat="43.72701" lon="3.41829">
        <ele>313.9</ele>
        <time>2017-04-12T06:58:07Z</time>
      </trkpt>
      <trkpt lat="43.72708" lon="3.41835">
        <ele>314.1</ele>
        <time>2017-04-12T06:58:10Z</time>
      </trkpt>
      <trkpt lat="43.72717" lon="3.41842">
        <ele>314.3</ele>
        <time>2017-04-12T06:58:13Z</time>
      </trkpt>
      <trkpt lat="43.72726" lon="3.4185">
        <ele>314.5</ele>
        <time>2017-04-12T06:58:16Z</time>
      </trkpt>
      <trkpt lat="43.72734" lon="3.41857">
        <ele>314.7</ele>
        <time>2017-04-12T06:58:19Z</time>
      </trkpt>
      <trkpt lat="43.72742" lon="3.41865">
        <ele>314.7</ele>
        <time>2017-04-12T06:58:22Z</time>
      </trkpt>
      <trkpt lat="43.72752" lon="3.41871">
        <ele>314.6</ele>
        <time>2017-04-12T06:58:25Z</time>
      </trkpt>
      <trkpt lat="43.72758" lon="3.41876">
        <ele>314.6</ele>
        <time>2017-04-12T06:58:28Z</time>
      </trkpt>
      <trkpt lat="43.72765" lon="3.41881">
        <ele>314.8</ele>
        <time>2017-04-12T06:58:31Z</time>
      </trkpt>
      <trkpt lat="43.72774" lon="3.41885">
        <ele>315</ele>
        <time>2017-04-12T06:58:34Z</time>
      </trkpt>
      <trkpt lat="43.7278" lon="3.41889">
        <ele>315.2</ele>
        <time>2017-04-12T06:58:37Z</time>
      </trkpt>
      <trkpt lat="43.72787" lon="3.41892">
        <ele>315.5</ele>
        <time>2017-04-12T06:58:40Z</time>
      </trkpt>
      <trkpt lat="43.72796" lon="3.41896">
        <ele>315.8</ele>
        <time>2017-04-12T06:58:43Z</time>
      </trkpt>
      <trkpt lat="43.72805" lon="3.41896">
        <ele>316.2</ele>
        <time>2017-04-12T06:58:47Z</time>
      </trkpt>
      <trkpt lat="43.72815" lon="3.41898">
        <ele>316.6</ele>
        <time>2017-04-12T06:58:51Z</time>
      </trkpt>
      <trkpt lat="43.72823" lon="3.419">
        <ele>316.9</ele>
        <time>2017-04-12T06:58:54Z</time>
      </trkpt>
      <trkpt lat="43.72831" lon="3.419">
        <ele>317.2</ele>
        <time>2017-04-12T06:58:57Z</time>
      </trkpt>
      <trkpt lat="43.72839" lon="3.419">
        <ele>317.6</ele>
        <time>2017-04-12T06:59:00Z</time>
      </trkpt>
      <trkpt lat="43.72848" lon="3.41899">
        <ele>318.3</ele>
        <time>2017-04-12T06:59:04Z</time>
      </trkpt>
      <trkpt lat="43.72856" lon="3.41899">
        <ele>319.1</ele>
        <time>2017-04-12T06:59:08Z</time>
      </trkpt>
      <trkpt lat="43.72866" lon="3.419">
        <ele>320</ele>
        <time>2017-04-12T06:59:12Z</time>
      </trkpt>
      <trkpt lat="43.72874" lon="3.419">
        <ele>320.8</ele>
        <time>2017-04-12T06:59:16Z</time>
      </trkpt>
      <trkpt lat="43.72882" lon="3.41902">
        <ele>321.7</ele>
        <time>2017-04-12T06:59:20Z</time>
      </trkpt>
      <trkpt lat="43.7289" lon="3.41902">
        <ele>322.6</ele>
        <time>2017-04-12T06:59:25Z</time>
      </trkpt>
      <trkpt lat="43.72899" lon="3.41903">
        <ele>323.3</ele>
        <time>2017-04-12T06:59:29Z</time>
      </trkpt>
      <trkpt lat="43.72908" lon="3.41902">
        <ele>323.8</ele>
        <time>2017-04-12T06:59:32Z</time>
      </trkpt>
      <trkpt lat="43.72917" lon="3.41903">
        <ele>324.3</ele>
        <time>2017-04-12T06:59:35Z</time>
      </trkpt>
      <trkpt lat="43.72927" lon="3.41903">
        <ele>324.7</ele>
        <time>2017-04-12T06:59:38Z</time>
      </trkpt>
      <trkpt lat="43.72935" lon="3.41904">
        <ele>325.1</ele>
        <time>2017-04-12T06:59:41Z</time>
      </trkpt>
      <trkpt lat="43.72944" lon="3.41906">
        <ele>325.9</ele>
        <time>2017-04-12T06:59:45Z</time>
      </trkpt>
      <trkpt lat="43.72951" lon="3.41908">
        <ele>326.5</ele>
        <time>2017-04-12T06:59:48Z</time>
      </trkpt>
      <trkpt lat="43.72961" lon="3.41909">
        <ele>327</ele>
        <time>2017-04-12T06:59:52Z</time>
      </trkpt>
      <trkpt lat="43.72968" lon="3.41905">
        <ele>327.7</ele>
        <time>2017-04-12T06:59:56Z</time>
      </trkpt>
      <trkpt lat="43.72973" lon="3.41899">
        <ele>328.3</ele>
        <time>2017-04-12T07:00:00Z</time>
      </trkpt>
      <trkpt lat="43.72979" lon="3.4189">
        <ele>328.9</ele>
        <time>2017-04-12T07:00:04Z</time>
      </trkpt>
      <trkpt lat="43.72984" lon="3.41881">
        <ele>329.6</ele>
        <time>2017-04-12T07:00:08Z</time>
      </trkpt>
      <trkpt lat="43.72988" lon="3.41872">
        <ele>330.4</ele>
        <time>2017-04-12T07:00:12Z</time>
      </trkpt>
      <trkpt lat="43.72993" lon="3.41863">
        <ele>331.2</ele>
        <time>2017-04-12T07:00:16Z</time>
      </trkpt>
      <trkpt lat="43.72999" lon="3.41855">
        <ele>331.9</ele>
        <time>2017-04-12T07:00:20Z</time>
      </trkpt>
      <trkpt lat="43.73006" lon="3.41848">
        <ele>332.6</ele>
        <time>2017-04-12T07:00:24Z</time>
      </trkpt>
      <trkpt lat="43.73012" lon="3.41843">
        <ele>333.5</ele>
        <time>2017-04-12T07:00:28Z</time>
      </trkpt>
      <trkpt lat="43.7302" lon="3.41838">
        <ele>334.4</ele>
        <time>2017-04-12T07:00:32Z</time>
      </trkpt>
      <trkpt lat="43.73028" lon="3.41834">
        <ele>335.5</ele>
        <time>2017-04-12T07:00:37Z</time>
      </trkpt>
      <trkpt lat="43.73036" lon="3.4183">
        <ele>336.4</ele>
        <time>2017-04-12T07:00:41Z</time>
      </trkpt>
      <trkpt lat="43.73043" lon="3.41829">
        <ele>337.4</ele>
        <time>2017-04-12T07:00:45Z</time>
      </trkpt>
      <trkpt lat="43.73051" lon="3.41827">
        <ele>338.3</ele>
        <time>2017-04-12T07:00:49Z</time>
      </trkpt>
      <trkpt lat="43.73059" lon="3.41827">
        <ele>339.4</ele>
        <time>2017-04-12T07:00:53Z</time>
      </trkpt>
      <trkpt lat="43.73067" lon="3.41827">
        <ele>340.9</ele>
        <time>2017-04-12T07:00:58Z</time>
      </trkpt>
      <trkpt lat="43.73075" lon="3.41828">
        <ele>341.7</ele>
        <time>2017-04-12T07:01:02Z</time>
      </trkpt>
      <trkpt lat="43.73082" lon="3.41832">
        <ele>342.5</ele>
        <time>2017-04-12T07:01:06Z</time>
      </trkpt>
      <trkpt lat="43.73089" lon="3.41838">
        <ele>343.3</ele>
        <time>2017-04-12T07:01:10Z</time>
      </trkpt>
      <trkpt lat="43.73096" lon="3.41843">
        <ele>344.1</ele>
        <time>2017-04-12T07:01:14Z</time>
      </trkpt>
      <trkpt lat="43.73103" lon="3.41848">
        <ele>345.2</ele>
        <time>2017-04-12T07:01:18Z</time>
      </trkpt>
      <trkpt lat="43.73111" lon="3.41852">
        <ele>346</ele>
        <time>2017-04-12T07:01:22Z</time>
      </trkpt>
      <trkpt lat="43.73118" lon="3.41859">
        <ele>346.8</ele>
        <time>2017-04-12T07:01:27Z</time>
      </trkpt>
      <trkpt lat="43.73124" lon="3.41865">
        <ele>347.7</ele>
        <time>2017-04-12T07:01:31Z</time>
      </trkpt>
      <trkpt lat="43.73131" lon="3.41872">
        <ele>348.9</ele>
        <time>2017-04-12T07:01:36Z</time>
      </trkpt>
      <trkpt lat="43.73136" lon="3.41879">
        <ele>349.9</ele>
        <time>2017-04-12T07:01:40Z</time>
      </trkpt>
      <trkpt lat="43.73142" lon="3.41885">
        <ele>351.1</ele>
        <time>2017-04-12T07:01:45Z</time>
      </trkpt>
      <trkpt lat="43.73148" lon="3.4189">
        <ele>352.4</ele>
        <time>2017-04-12T07:01:50Z</time>
      </trkpt>
      <trkpt lat="43.73156" lon="3.41894">
        <ele>353.6</ele>
        <time>2017-04-12T07:01:55Z</time>
      </trkpt>
      <trkpt lat="43.73163" lon="3.41897">
        <ele>354.7</ele>
        <time>2017-04-12T07:02:00Z</time>
      </trkpt>
      <trkpt lat="43.73171" lon="3.419">
        <ele>356</ele>
        <time>2017-04-12T07:02:05Z</time>
      </trkpt>
      <trkpt lat="43.73178" lon="3.41903">
        <ele>357.2</ele>
        <time>2017-04-12T07:02:10Z</time>
      </trkpt>
      <trkpt lat="43.73186" lon="3.41906">
        <ele>358.7</ele>
        <time>2017-04-12T07:02:15Z</time>
      </trkpt>
      <trkpt lat="43.73194" lon="3.41909">
        <ele>360.2</ele>
        <time>2017-04-12T07:02:20Z</time>
      </trkpt>
      <trkpt lat="43.73201" lon="3.41911">
        <ele>361.6</ele>
        <time>2017-04-12T07:02:25Z</time>
      </trkpt>
      <trkpt lat="43.73208" lon="3.41914">
        <ele>362.9</ele>
        <time>2017-04-12T07:02:30Z</time>
      </trkpt>
      <trkpt lat="43.73216" lon="3.41918">
        <ele>364.4</ele>
        <time>2017-04-12T07:02:35Z</time>
      </trkpt>
      <trkpt lat="43.73223" lon="3.4192">
        <ele>365.7</ele>
        <time>2017-04-12T07:02:40Z</time>
      </trkpt>
      <trkpt lat="43.7323" lon="3.41923">
        <ele>367</ele>
        <time>2017-04-12T07:02:45Z</time>
      </trkpt>
      <trkpt lat="43.73237" lon="3.41927">
        <ele>368.1</ele>
        <time>2017-04-12T07:02:49Z</time>
      </trkpt>
      <trkpt lat="43.73246" lon="3.41931">
        <ele>369.7</ele>
        <time>2017-04-12T07:02:56Z</time>
      </trkpt>
      <trkpt lat="43.73253" lon="3.41933">
        <ele>370.8</ele>
        <time>2017-04-12T07:03:01Z</time>
      </trkpt>
      <trkpt lat="43.73262" lon="3.41935">
        <ele>372</ele>
        <time>2017-04-12T07:03:07Z</time>
      </trkpt>
      <trkpt lat="43.73269" lon="3.41936">
        <ele>373.1</ele>
        <time>2017-04-12T07:03:12Z</time>
      </trkpt>
      <trkpt lat="43.73277" lon="3.41936">
        <ele>373.8</ele>
        <time>2017-04-12T07:03:16Z</time>
      </trkpt>
      <trkpt lat="43.73286" lon="3.41938">
        <ele>374.8</ele>
        <time>2017-04-12T07:03:21Z</time>
      </trkpt>
      <trkpt lat="43.73293" lon="3.41938">
        <ele>375.5</ele>
        <time>2017-04-12T07:03:25Z</time>
      </trkpt>
      <trkpt lat="43.73302" lon="3.41937">
        <ele>376.1</ele>
        <time>2017-04-12T07:03:29Z</time>
      </trkpt>
      <trkpt lat="43.7331" lon="3.41936">
        <ele>376.8</ele>
        <time>2017-04-12T07:03:34Z</time>
      </trkpt>
      <trkpt lat="43.73319" lon="3.41935">
        <ele>377.5</ele>
        <time>2017-04-12T07:03:38Z</time>
      </trkpt>
      <trkpt lat="43.73327" lon="3.41934">
        <ele>378.1</ele>
        <time>2017-04-12T07:03:42Z</time>
      </trkpt>
      <trkpt lat="43.73336" lon="3.41934">
        <ele>378.7</ele>
        <time>2017-04-12T07:03:46Z</time>
      </trkpt>
      <trkpt lat="43.73345" lon="3.41934">
        <ele>379.3</ele>
        <time>2017-04-12T07:03:50Z</time>
      </trkpt>
      <trkpt lat="43.73352" lon="3.41934">
        <ele>379.6</ele>
        <time>2017-04-12T07:03:53Z</time>
      </trkpt>
      <trkpt lat="43.7336" lon="3.41936">
        <ele>379.9</ele>
        <time>2017-04-12T07:03:57Z</time>
      </trkpt>
      <trkpt lat="43.73367" lon="3.41939">
        <ele>380.3</ele>
        <time>2017-04-12T07:04:01Z</time>
      </trkpt>
      <trkpt lat="43.73374" lon="3.41943">
        <ele>380.6</ele>
        <time>2017-04-12T07:04:04Z</time>
      </trkpt>
      <trkpt lat="43.73381" lon="3.41948">
        <ele>381.2</ele>
        <time>2017-04-12T07:04:08Z</time>
      </trkpt>
      <trkpt lat="43.73389" lon="3.41953">
        <ele>381.8</ele>
        <time>2017-04-12T07:04:13Z</time>
      </trkpt>
      <trkpt lat="43.73396" lon="3.41957">
        <ele>382.6</ele>
        <time>2017-04-12T07:04:17Z</time>
      </trkpt>
      <trkpt lat="43.73403" lon="3.41962">
        <ele>383.3</ele>
        <time>2017-04-12T07:04:21Z</time>
      </trkpt>
      <trkpt lat="43.7341" lon="3.41967">
        <ele>383.7</ele>
        <time>2017-04-12T07:04:25Z</time>
      </trkpt>
      <trkpt lat="43.73418" lon="3.41972">
        <ele>384.2</ele>
        <time>2017-04-12T07:04:29Z</time>
      </trkpt>
      <trkpt lat="43.73426" lon="3.41974">
        <ele>384.5</ele>
        <time>2017-04-12T07:04:32Z</time>
      </trkpt>
      <trkpt lat="43.73435" lon="3.41978">
        <ele>385.1</ele>
        <time>2017-04-12T07:04:36Z</time>
      </trkpt>
      <trkpt lat="43.73444" lon="3.41981">
        <ele>385.7</ele>
        <time>2017-04-12T07:04:40Z</time>
      </trkpt>
      <trkpt lat="43.73451" lon="3.41983">
        <ele>386</ele>
        <time>2017-04-12T07:04:43Z</time>
      </trkpt>
      <trkpt lat="43.73459" lon="3.41985">
        <ele>386.5</ele>
        <time>2017-04-12T07:04:47Z</time>
      </trkpt>
      <trkpt lat="43.73467" lon="3.41986">
        <ele>386.9</ele>
        <time>2017-04-12T07:04:50Z</time>
      </trkpt>
      <trkpt lat="43.73475" lon="3.41987">
        <ele>387.6</ele>
        <time>2017-04-12T07:04:55Z</time>
      </trkpt>
      <trkpt lat="43.73484" lon="3.41987">
        <ele>388.4</ele>
        <time>2017-04-12T07:04:59Z</time>
      </trkpt>
      <trkpt lat="43.73492" lon="3.41989">
        <ele>389</ele>
        <time>2017-04-12T07:05:03Z</time>
      </trkpt>
      <trkpt lat="43.735" lon="3.41988">
        <ele>389.5</ele>
        <time>2017-04-12T07:05:07Z</time>
      </trkpt>
      <trkpt lat="43.7351" lon="3.41988">
        <ele>390</ele>
        <time>2017-04-12T07:05:11Z</time>
      </trkpt>
      <trkpt lat="43.73519" lon="3.41988">
        <ele>390.6</ele>
        <time>2017-04-12T07:05:15Z</time>
      </trkpt>
      <trkpt lat="43.73526" lon="3.4199">
        <ele>391.2</ele>
        <time>2017-04-12T07:05:19Z</time>
      </trkpt>
      <trkpt lat="43.73533" lon="3.41995">
        <ele>391.9</ele>
        <time>2017-04-12T07:05:23Z</time>
      </trkpt>
      <trkpt lat="43.73539" lon="3.42">
        <ele>392.5</ele>
        <time>2017-04-12T07:05:27Z</time>
      </trkpt>
      <trkpt lat="43.73545" lon="3.42006">
        <ele>393.2</ele>
        <time>2017-04-12T07:05:31Z</time>
      </trkpt>
      <trkpt lat="43.73552" lon="3.42013">
        <ele>394.2</ele>
        <time>2017-04-12T07:05:36Z</time>
      </trkpt>
      <trkpt lat="43.73558" lon="3.4202">
        <ele>395.3</ele>
        <time>2017-04-12T07:05:41Z</time>
      </trkpt>
      <trkpt lat="43.73563" lon="3.42028">
        <ele>396.4</ele>
        <time>2017-04-12T07:05:46Z</time>
      </trkpt>
      <trkpt lat="43.73569" lon="3.42036">
        <ele>397.5</ele>
        <time>2017-04-12T07:05:51Z</time>
      </trkpt>
      <trkpt lat="43.73575" lon="3.42043">
        <ele>398.8</ele>
        <time>2017-04-12T07:05:56Z</time>
      </trkpt>
      <trkpt lat="43.73582" lon="3.42048">
        <ele>401</ele>
        <time>2017-04-12T07:06:03Z</time>
      </trkpt>
      <trkpt lat="43.73588" lon="3.42057">
        <ele>402.7</ele>
        <time>2017-04-12T07:06:09Z</time>
      </trkpt>
      <trkpt lat="43.73595" lon="3.42064">
        <ele>404.7</ele>
        <time>2017-04-12T07:06:16Z</time>
      </trkpt>
      <trkpt lat="43.73601" lon="3.42069">
        <ele>405.9</ele>
        <time>2017-04-12T07:06:21Z</time>
      </trkpt>
      <trkpt lat="43.73609" lon="3.42071">
        <ele>406.7</ele>
        <time>2017-04-12T07:06:26Z</time>
      </trkpt>
      <trkpt lat="43.73617" lon="3.42071">
        <ele>408.3</ele>
        <time>2017-04-12T07:06:32Z</time>
      </trkpt>
      <trkpt lat="43.73625" lon="3.4207">
        <ele>409.8</ele>
        <time>2017-04-12T07:06:38Z</time>
      </trkpt>
      <trkpt lat="43.73632" lon="3.42073">
        <ele>411.2</ele>
        <time>2017-04-12T07:06:44Z</time>
      </trkpt>
      <trkpt lat="43.7364" lon="3.42076">
        <ele>412.6</ele>
        <time>2017-04-12T07:06:49Z</time>
      </trkpt>
      <trkpt lat="43.73647" lon="3.42082">
        <ele>413.5</ele>
        <time>2017-04-12T07:06:54Z</time>
      </trkpt>
      <trkpt lat="43.73653" lon="3.42087">
        <ele>414.7</ele>
        <time>2017-04-12T07:07:01Z</time>
      </trkpt>
      <trkpt lat="43.73656" lon="3.42089">
        <ele>415.6</ele>
        <time>2017-04-12T07:07:08Z</time>
      </trkpt>
      <trkpt lat="43.73656" lon="3.42088">
        <ele>416.2</ele>
        <time>2017-04-12T07:07:15Z</time>
      </trkpt>
      <trkpt lat="43.73656" lon="3.4209">
        <ele>417.2</ele>
        <time>2017-04-12T07:07:33Z</time>
      </trkpt>
      <trkpt lat="43.73653" lon="3.42091">
        <ele>418.4</ele>
        <time>2017-04-12T07:07:40Z</time>
      </trkpt>
      <trkpt lat="43.73653" lon="3.4209">
        <ele>419.1</ele>
        <time>2017-04-12T07:07:49Z</time>
      </trkpt>
      <trkpt lat="43.73657" lon="3.4209">
        <ele>419.9</ele>
        <time>2017-04-12T07:07:56Z</time>
      </trkpt>
      <trkpt lat="43.73658" lon="3.42085">
        <ele>424.4</ele>
        <time>2017-04-12T07:11:21Z</time>
      </trkpt>
      <trkpt lat="43.73663" lon="3.42092">
        <ele>424.4</ele>
        <time>2017-04-12T07:11:28Z</time>
      </trkpt>
      <trkpt lat="43.73672" lon="3.42092">
        <ele>424.7</ele>
        <time>2017-04-12T07:11:35Z</time>
      </trkpt>
      <trkpt lat="43.7368" lon="3.42089">
        <ele>425</ele>
        <time>2017-04-12T07:11:40Z</time>
      </trkpt>
      <trkpt lat="43.73688" lon="3.42082">
        <ele>425.6</ele>
        <time>2017-04-12T07:11:45Z</time>
      </trkpt>
      <trkpt lat="43.73695" lon="3.42076">
        <ele>425.9</ele>
        <time>2017-04-12T07:11:48Z</time>
      </trkpt>
      <trkpt lat="43.73703" lon="3.42066">
        <ele>426.2</ele>
        <time>2017-04-12T07:11:51Z</time>
      </trkpt>
      <trkpt lat="43.73711" lon="3.42062">
        <ele>426.3</ele>
        <time>2017-04-12T07:11:54Z</time>
      </trkpt>
      <trkpt lat="43.73718" lon="3.42062">
        <ele>426.4</ele>
        <time>2017-04-12T07:11:57Z</time>
      </trkpt>
      <trkpt lat="43.73726" lon="3.42067">
        <ele>425.7</ele>
        <time>2017-04-12T07:11:59Z</time>
      </trkpt>
      <trkpt lat="43.73736" lon="3.42073">
        <ele>424.7</ele>
        <time>2017-04-12T07:12:01Z</time>
      </trkpt>
      <trkpt lat="43.73746" lon="3.42073">
        <ele>423.7</ele>
        <time>2017-04-12T07:12:03Z</time>
      </trkpt>
      <trkpt lat="43.73756" lon="3.42069">
        <ele>423.8</ele>
        <time>2017-04-12T07:12:05Z</time>
      </trkpt>
      <trkpt lat="43.73766" lon="3.42067">
        <ele>423.5</ele>
        <time>2017-04-12T07:12:07Z</time>
      </trkpt>
      <trkpt lat="43.73774" lon="3.42066">
        <ele>423.5</ele>
        <time>2017-04-12T07:12:09Z</time>
      </trkpt>
      <trkpt lat="43.73782" lon="3.42068">
        <ele>423.3</ele>
        <time>2017-04-12T07:12:11Z</time>
      </trkpt>
      <trkpt lat="43.73789" lon="3.42071">
        <ele>423</ele>
        <time>2017-04-12T07:12:13Z</time>
      </trkpt>
      <trkpt lat="43.738" lon="3.42075">
        <ele>421.7</ele>
        <time>2017-04-12T07:12:15Z</time>
      </trkpt>
      <trkpt lat="43.73809" lon="3.42079">
        <ele>421.1</ele>
        <time>2017-04-12T07:12:17Z</time>
      </trkpt>
      <trkpt lat="43.73821" lon="3.42082">
        <ele>420.7</ele>
        <time>2017-04-12T07:12:20Z</time>
      </trkpt>
      <trkpt lat="43.7383" lon="3.42085">
        <ele>420</ele>
        <time>2017-04-12T07:12:22Z</time>
      </trkpt>
      <trkpt lat="43.7384" lon="3.42086">
        <ele>419.4</ele>
        <time>2017-04-12T07:12:24Z</time>
      </trkpt>
      <trkpt lat="43.73848" lon="3.42087">
        <ele>419.7</ele>
        <time>2017-04-12T07:12:26Z</time>
      </trkpt>
      <trkpt lat="43.73856" lon="3.42089">
        <ele>418.8</ele>
        <time>2017-04-12T07:12:28Z</time>
      </trkpt>
      <trkpt lat="43.73864" lon="3.42089">
        <ele>417.5</ele>
        <time>2017-04-12T07:12:30Z</time>
      </trkpt>
      <trkpt lat="43.73873" lon="3.4209">
        <ele>416.1</ele>
        <time>2017-04-12T07:12:32Z</time>
      </trkpt>
      <trkpt lat="43.73881" lon="3.4209">
        <ele>416</ele>
        <time>2017-04-12T07:12:34Z</time>
      </trkpt>
      <trkpt lat="43.7389" lon="3.42091">
        <ele>416</ele>
        <time>2017-04-12T07:12:37Z</time>
      </trkpt>
      <trkpt lat="43.73898" lon="3.42091">
        <ele>415.9</ele>
        <time>2017-04-12T07:12:40Z</time>
      </trkpt>
      <trkpt lat="43.73903" lon="3.42094">
        <ele>416.1</ele>
        <time>2017-04-12T07:12:47Z</time>
      </trkpt>
      <trkpt lat="43.7391" lon="3.42094">
        <ele>415.9</ele>
        <time>2017-04-12T07:12:53Z</time>
      </trkpt>
      <trkpt lat="43.73918" lon="3.42097">
        <ele>415.7</ele>
        <time>2017-04-12T07:12:57Z</time>
      </trkpt>
      <trkpt lat="43.73924" lon="3.42103">
        <ele>415.3</ele>
        <time>2017-04-12T07:13:03Z</time>
      </trkpt>
      <trkpt lat="43.73933" lon="3.42103">
        <ele>414.6</ele>
        <time>2017-04-12T07:13:08Z</time>
      </trkpt>
      <trkpt lat="43.7394" lon="3.42106">
        <ele>413.9</ele>
        <time>2017-04-12T07:13:15Z</time>
      </trkpt>
      <trkpt lat="43.73948" lon="3.42108">
        <ele>413.5</ele>
        <time>2017-04-12T07:13:19Z</time>
      </trkpt>
      <trkpt lat="43.73952" lon="3.42109">
        <ele>412.9</ele>
        <time>2017-04-12T07:13:26Z</time>
      </trkpt>
      <trkpt lat="43.73953" lon="3.42108">
        <ele>412.2</ele>
        <time>2017-04-12T07:13:33Z</time>
      </trkpt>
      <trkpt lat="43.73952" lon="3.42107">
        <ele>411.2</ele>
        <time>2017-04-12T07:13:40Z</time>
      </trkpt>
      <trkpt lat="43.73955" lon="3.42103">
        <ele>410.9</ele>
        <time>2017-04-12T07:13:47Z</time>
      </trkpt>
      <trkpt lat="43.73961" lon="3.42102">
        <ele>411.1</ele>
        <time>2017-04-12T07:13:54Z</time>
      </trkpt>
      <trkpt lat="43.73964" lon="3.42098">
        <ele>411.4</ele>
        <time>2017-04-12T07:14:01Z</time>
      </trkpt>
      <trkpt lat="43.73968" lon="3.42093">
        <ele>411.7</ele>
        <time>2017-04-12T07:14:08Z</time>
      </trkpt>
      <trkpt lat="43.73968" lon="3.42092">
        <ele>411.8</ele>
        <time>2017-04-12T07:14:15Z</time>
      </trkpt>
      <trkpt lat="43.73965" lon="3.42092">
        <ele>411.2</ele>
        <time>2017-04-12T07:14:22Z</time>
      </trkpt>
      <trkpt lat="43.73963" lon="3.42097">
        <ele>410.7</ele>
        <time>2017-04-12T07:14:29Z</time>
      </trkpt>
      <trkpt lat="43.73959" lon="3.421">
        <ele>410.8</ele>
        <time>2017-04-12T07:14:36Z</time>
      </trkpt>
      <trkpt lat="43.73955" lon="3.42108">
        <ele>410.8</ele>
        <time>2017-04-12T07:14:41Z</time>
      </trkpt>
      <trkpt lat="43.73955" lon="3.4211">
        <ele>410.6</ele>
        <time>2017-04-12T07:14:48Z</time>
      </trkpt>
      <trkpt lat="43.73948" lon="3.42107">
        <ele>410</ele>
        <time>2017-04-12T07:15:00Z</time>
      </trkpt>
      <trkpt lat="43.73939" lon="3.42105">
        <ele>409.9</ele>
        <time>2017-04-12T07:15:03Z</time>
      </trkpt>
      <trkpt lat="43.73932" lon="3.42103">
        <ele>409.9</ele>
        <time>2017-04-12T07:15:07Z</time>
      </trkpt>
      <trkpt lat="43.73925" lon="3.42099">
        <ele>410.2</ele>
        <time>2017-04-12T07:15:12Z</time>
      </trkpt>
      <trkpt lat="43.73918" lon="3.42097">
        <ele>410.3</ele>
        <time>2017-04-12T07:15:16Z</time>
      </trkpt>
      <trkpt lat="43.73909" lon="3.42094">
        <ele>410.8</ele>
        <time>2017-04-12T07:15:21Z</time>
      </trkpt>
      <trkpt lat="43.739" lon="3.42093">
        <ele>411.2</ele>
        <time>2017-04-12T07:15:27Z</time>
      </trkpt>
      <trkpt lat="43.73892" lon="3.42091">
        <ele>411.6</ele>
        <time>2017-04-12T07:15:32Z</time>
      </trkpt>
      <trkpt lat="43.73885" lon="3.4209">
        <ele>412.2</ele>
        <time>2017-04-12T07:15:38Z</time>
      </trkpt>
      <trkpt lat="43.73877" lon="3.4209">
        <ele>412.4</ele>
        <time>2017-04-12T07:15:43Z</time>
      </trkpt>
      <trkpt lat="43.73869" lon="3.42093">
        <ele>412.5</ele>
        <time>2017-04-12T07:15:49Z</time>
      </trkpt>
      <trkpt lat="43.73861" lon="3.42091">
        <ele>412.3</ele>
        <time>2017-04-12T07:15:53Z</time>
      </trkpt>
      <trkpt lat="43.73853" lon="3.4209">
        <ele>412.6</ele>
        <time>2017-04-12T07:15:58Z</time>
      </trkpt>
      <trkpt lat="43.73846" lon="3.42088">
        <ele>413</ele>
        <time>2017-04-12T07:16:04Z</time>
      </trkpt>
      <trkpt lat="43.73837" lon="3.42084">
        <ele>413.5</ele>
        <time>2017-04-12T07:16:09Z</time>
      </trkpt>
      <trkpt lat="43.7383" lon="3.42084">
        <ele>413.9</ele>
        <time>2017-04-12T07:16:14Z</time>
      </trkpt>
      <trkpt lat="43.73822" lon="3.42082">
        <ele>414.2</ele>
        <time>2017-04-12T07:16:19Z</time>
      </trkpt>
      <trkpt lat="43.73814" lon="3.42081">
        <ele>414.6</ele>
        <time>2017-04-12T07:16:25Z</time>
      </trkpt>
      <trkpt lat="43.73807" lon="3.42078">
        <ele>415.2</ele>
        <time>2017-04-12T07:16:31Z</time>
      </trkpt>
      <trkpt lat="43.73799" lon="3.42074">
        <ele>416</ele>
        <time>2017-04-12T07:16:37Z</time>
      </trkpt>
      <trkpt lat="43.73801" lon="3.42076">
        <ele>417.1</ele>
        <time>2017-04-12T07:16:51Z</time>
      </trkpt>
      <trkpt lat="43.73802" lon="3.42078">
        <ele>417.4</ele>
        <time>2017-04-12T07:16:58Z</time>
      </trkpt>
      <trkpt lat="43.73799" lon="3.42074">
        <ele>418.4</ele>
        <time>2017-04-12T07:17:05Z</time>
      </trkpt>
      <trkpt lat="43.73792" lon="3.42069">
        <ele>419.2</ele>
        <time>2017-04-12T07:17:10Z</time>
      </trkpt>
      <trkpt lat="43.73783" lon="3.42067">
        <ele>419.5</ele>
        <time>2017-04-12T07:17:15Z</time>
      </trkpt>
      <trkpt lat="43.73775" lon="3.42065">
        <ele>419.8</ele>
        <time>2017-04-12T07:17:20Z</time>
      </trkpt>
      <trkpt lat="43.73765" lon="3.42064">
        <ele>419.6</ele>
        <time>2017-04-12T07:17:26Z</time>
      </trkpt>
      <trkpt lat="43.73758" lon="3.42065">
        <ele>419.4</ele>
        <time>2017-04-12T07:17:30Z</time>
      </trkpt>
      <trkpt lat="43.7376" lon="3.42068">
        <ele>419.6</ele>
        <time>2017-04-12T07:17:37Z</time>
      </trkpt>
      <trkpt lat="43.73768" lon="3.42065">
        <ele>420</ele>
        <time>2017-04-12T07:17:42Z</time>
      </trkpt>
      <trkpt lat="43.73774" lon="3.42064">
        <ele>420.3</ele>
        <time>2017-04-12T07:17:49Z</time>
      </trkpt>
      <trkpt lat="43.73782" lon="3.42065">
        <ele>420.4</ele>
        <time>2017-04-12T07:17:56Z</time>
      </trkpt>
      <trkpt lat="43.73789" lon="3.42069">
        <ele>420.7</ele>
        <time>2017-04-12T07:18:03Z</time>
      </trkpt>
      <trkpt lat="43.73796" lon="3.42074">
        <ele>420.7</ele>
        <time>2017-04-12T07:18:08Z</time>
      </trkpt>
      <trkpt lat="43.73804" lon="3.4208">
        <ele>420.7</ele>
        <time>2017-04-12T07:18:13Z</time>
      </trkpt>
      <trkpt lat="43.73812" lon="3.42081">
        <ele>420.5</ele>
        <time>2017-04-12T07:18:17Z</time>
      </trkpt>
      <trkpt lat="43.7382" lon="3.42082">
        <ele>420.5</ele>
        <time>2017-04-12T07:18:20Z</time>
      </trkpt>
      <trkpt lat="43.73829" lon="3.42084">
        <ele>420.3</ele>
        <time>2017-04-12T07:18:23Z</time>
      </trkpt>
      <trkpt lat="43.73837" lon="3.42085">
        <ele>420.2</ele>
        <time>2017-04-12T07:18:25Z</time>
      </trkpt>
      <trkpt lat="43.73847" lon="3.42087">
        <ele>419.9</ele>
        <time>2017-04-12T07:18:28Z</time>
      </trkpt>
      <trkpt lat="43.73859" lon="3.42089">
        <ele>418.4</ele>
        <time>2017-04-12T07:18:31Z</time>
      </trkpt>
      <trkpt lat="43.73868" lon="3.4209">
        <ele>416.2</ele>
        <time>2017-04-12T07:18:33Z</time>
      </trkpt>
      <trkpt lat="43.73878" lon="3.42091">
        <ele>414.6</ele>
        <time>2017-04-12T07:18:35Z</time>
      </trkpt>
      <trkpt lat="43.73886" lon="3.42092">
        <ele>414.1</ele>
        <time>2017-04-12T07:18:37Z</time>
      </trkpt>
      <trkpt lat="43.73894" lon="3.42092">
        <ele>414.1</ele>
        <time>2017-04-12T07:18:39Z</time>
      </trkpt>
      <trkpt lat="43.73902" lon="3.42093">
        <ele>414.7</ele>
        <time>2017-04-12T07:18:41Z</time>
      </trkpt>
      <trkpt lat="43.73912" lon="3.42096">
        <ele>414.8</ele>
        <time>2017-04-12T07:18:44Z</time>
      </trkpt>
      <trkpt lat="43.73923" lon="3.421">
        <ele>414.7</ele>
        <time>2017-04-12T07:18:47Z</time>
      </trkpt>
      <trkpt lat="43.73931" lon="3.42102">
        <ele>414.6</ele>
        <time>2017-04-12T07:18:49Z</time>
      </trkpt>
      <trkpt lat="43.73939" lon="3.42106">
        <ele>414</ele>
        <time>2017-04-12T07:18:51Z</time>
      </trkpt>
      <trkpt lat="43.73948" lon="3.4211">
        <ele>412.7</ele>
        <time>2017-04-12T07:18:53Z</time>
      </trkpt>
      <trkpt lat="43.73956" lon="3.42114">
        <ele>410.9</ele>
        <time>2017-04-12T07:18:55Z</time>
      </trkpt>
      <trkpt lat="43.73962" lon="3.42118">
        <ele>410.8</ele>
        <time>2017-04-12T07:18:57Z</time>
      </trkpt>
      <trkpt lat="43.73969" lon="3.42121">
        <ele>410.7</ele>
        <time>2017-04-12T07:19:00Z</time>
      </trkpt>
      <trkpt lat="43.73978" lon="3.42125">
        <ele>410.4</ele>
        <time>2017-04-12T07:19:04Z</time>
      </trkpt>
      <trkpt lat="43.73985" lon="3.42129">
        <ele>409.9</ele>
        <time>2017-04-12T07:19:09Z</time>
      </trkpt>
      <trkpt lat="43.73992" lon="3.42134">
        <ele>409.8</ele>
        <time>2017-04-12T07:19:14Z</time>
      </trkpt>
      <trkpt lat="43.73999" lon="3.4214">
        <ele>409.5</ele>
        <time>2017-04-12T07:19:19Z</time>
      </trkpt>
      <trkpt lat="43.74007" lon="3.42144">
        <ele>408.8</ele>
        <time>2017-04-12T07:19:23Z</time>
      </trkpt>
      <trkpt lat="43.74017" lon="3.4215">
        <ele>408.2</ele>
        <time>2017-04-12T07:19:26Z</time>
      </trkpt>
      <trkpt lat="43.74024" lon="3.42155">
        <ele>407.8</ele>
        <time>2017-04-12T07:19:28Z</time>
      </trkpt>
      <trkpt lat="43.74033" lon="3.42161">
        <ele>405</ele>
        <time>2017-04-12T07:19:30Z</time>
      </trkpt>
      <trkpt lat="43.74041" lon="3.42164">
        <ele>404.3</ele>
        <time>2017-04-12T07:19:33Z</time>
      </trkpt>
      <trkpt lat="43.7405" lon="3.42166">
        <ele>402.1</ele>
        <time>2017-04-12T07:19:35Z</time>
      </trkpt>
      <trkpt lat="43.74058" lon="3.42166">
        <ele>400.9</ele>
        <time>2017-04-12T07:19:37Z</time>
      </trkpt>
      <trkpt lat="43.74067" lon="3.42165">
        <ele>399.1</ele>
        <time>2017-04-12T07:19:39Z</time>
      </trkpt>
      <trkpt lat="43.74075" lon="3.42164">
        <ele>398.9</ele>
        <time>2017-04-12T07:19:41Z</time>
      </trkpt>
      <trkpt lat="43.74084" lon="3.42167">
        <ele>398.7</ele>
        <time>2017-04-12T07:19:44Z</time>
      </trkpt>
      <trkpt lat="43.74094" lon="3.42171">
        <ele>398.3</ele>
        <time>2017-04-12T07:19:47Z</time>
      </trkpt>
      <trkpt lat="43.74102" lon="3.42175">
        <ele>398.1</ele>
        <time>2017-04-12T07:19:49Z</time>
      </trkpt>
      <trkpt lat="43.74109" lon="3.42178">
        <ele>396.6</ele>
        <time>2017-04-12T07:19:51Z</time>
      </trkpt>
      <trkpt lat="43.74118" lon="3.42181">
        <ele>394.7</ele>
        <time>2017-04-12T07:19:53Z</time>
      </trkpt>
      <trkpt lat="43.74126" lon="3.42183">
        <ele>393.3</ele>
        <time>2017-04-12T07:19:55Z</time>
      </trkpt>
      <trkpt lat="43.74134" lon="3.42186">
        <ele>391.9</ele>
        <time>2017-04-12T07:19:57Z</time>
      </trkpt>
      <trkpt lat="43.74143" lon="3.42191">
        <ele>391.6</ele>
        <time>2017-04-12T07:19:59Z</time>
      </trkpt>
      <trkpt lat="43.74152" lon="3.42196">
        <ele>390.7</ele>
        <time>2017-04-12T07:20:01Z</time>
      </trkpt>
      <trkpt lat="43.74159" lon="3.42203">
        <ele>390.4</ele>
        <time>2017-04-12T07:20:03Z</time>
      </trkpt>
      <trkpt lat="43.74166" lon="3.42211">
        <ele>390.2</ele>
        <time>2017-04-12T07:20:06Z</time>
      </trkpt>
      <trkpt lat="43.74171" lon="3.4222">
        <ele>390.2</ele>
        <time>2017-04-12T07:20:09Z</time>
      </trkpt>
      <trkpt lat="43.74177" lon="3.42229">
        <ele>390.1</ele>
        <time>2017-04-12T07:20:12Z</time>
      </trkpt>
      <trkpt lat="43.74187" lon="3.42239">
        <ele>390.1</ele>
        <time>2017-04-12T07:20:15Z</time>
      </trkpt>
      <trkpt lat="43.74196" lon="3.42243">
        <ele>390</ele>
        <time>2017-04-12T07:20:18Z</time>
      </trkpt>
      <trkpt lat="43.74204" lon="3.42246">
        <ele>389.8</ele>
        <time>2017-04-12T07:20:21Z</time>
      </trkpt>
      <trkpt lat="43.74211" lon="3.42251">
        <ele>389.6</ele>
        <time>2017-04-12T07:20:24Z</time>
      </trkpt>
      <trkpt lat="43.74218" lon="3.42253">
        <ele>389.3</ele>
        <time>2017-04-12T07:20:27Z</time>
      </trkpt>
      <trkpt lat="43.74224" lon="3.42262">
        <ele>389</ele>
        <time>2017-04-12T07:20:34Z</time>
      </trkpt>
      <trkpt lat="43.7423" lon="3.4226">
        <ele>388.4</ele>
        <time>2017-04-12T07:20:41Z</time>
      </trkpt>
      <trkpt lat="43.74223" lon="3.42255">
        <ele>388.5</ele>
        <time>2017-04-12T07:20:47Z</time>
      </trkpt>
      <trkpt lat="43.74215" lon="3.42252">
        <ele>388.4</ele>
        <time>2017-04-12T07:20:53Z</time>
      </trkpt>
      <trkpt lat="43.74209" lon="3.42247">
        <ele>388.4</ele>
        <time>2017-04-12T07:21:00Z</time>
      </trkpt>
      <trkpt lat="43.74201" lon="3.42243">
        <ele>388.2</ele>
        <time>2017-04-12T07:21:05Z</time>
      </trkpt>
      <trkpt lat="43.74193" lon="3.42241">
        <ele>388.1</ele>
        <time>2017-04-12T07:21:10Z</time>
      </trkpt>
      <trkpt lat="43.74185" lon="3.42238">
        <ele>388.1</ele>
        <time>2017-04-12T07:21:15Z</time>
      </trkpt>
      <trkpt lat="43.74178" lon="3.42232">
        <ele>388.5</ele>
        <time>2017-04-12T07:21:20Z</time>
      </trkpt>
      <trkpt lat="43.74173" lon="3.42222">
        <ele>388.6</ele>
        <time>2017-04-12T07:21:24Z</time>
      </trkpt>
      <trkpt lat="43.74168" lon="3.42214">
        <ele>388.9</ele>
        <time>2017-04-12T07:21:28Z</time>
      </trkpt>
      <trkpt lat="43.74161" lon="3.42205">
        <ele>388.9</ele>
        <time>2017-04-12T07:21:32Z</time>
      </trkpt>
      <trkpt lat="43.74156" lon="3.42196">
        <ele>389.1</ele>
        <time>2017-04-12T07:21:36Z</time>
      </trkpt>
      <trkpt lat="43.74148" lon="3.42191">
        <ele>389</ele>
        <time>2017-04-12T07:21:40Z</time>
      </trkpt>
      <trkpt lat="43.74141" lon="3.42188">
        <ele>389</ele>
        <time>2017-04-12T07:21:44Z</time>
      </trkpt>
      <trkpt lat="43.74132" lon="3.42185">
        <ele>389</ele>
        <time>2017-04-12T07:21:48Z</time>
      </trkpt>
      <trkpt lat="43.74124" lon="3.42182">
        <ele>389.2</ele>
        <time>2017-04-12T07:21:52Z</time>
      </trkpt>
      <trkpt lat="43.74117" lon="3.42179">
        <ele>389.4</ele>
        <time>2017-04-12T07:21:56Z</time>
      </trkpt>
      <trkpt lat="43.74109" lon="3.42176">
        <ele>389.6</ele>
        <time>2017-04-12T07:21:59Z</time>
      </trkpt>
      <trkpt lat="43.74101" lon="3.42173">
        <ele>389.9</ele>
        <time>2017-04-12T07:22:03Z</time>
      </trkpt>
      <trkpt lat="43.74093" lon="3.4217">
        <ele>389.9</ele>
        <time>2017-04-12T07:22:07Z</time>
      </trkpt>
      <trkpt lat="43.74085" lon="3.4217">
        <ele>390.1</ele>
        <time>2017-04-12T07:22:11Z</time>
      </trkpt>
      <trkpt lat="43.74076" lon="3.42168">
        <ele>390.2</ele>
        <time>2017-04-12T07:22:14Z</time>
      </trkpt>
      <trkpt lat="43.74068" lon="3.42166">
        <ele>390.6</ele>
        <time>2017-04-12T07:22:18Z</time>
      </trkpt>
      <trkpt lat="43.7406" lon="3.42165">
        <ele>390.7</ele>
        <time>2017-04-12T07:22:21Z</time>
      </trkpt>
      <trkpt lat="43.74052" lon="3.42165">
        <ele>390.9</ele>
        <time>2017-04-12T07:22:25Z</time>
      </trkpt>
      <trkpt lat="43.74043" lon="3.42168">
        <ele>391.1</ele>
        <time>2017-04-12T07:22:29Z</time>
      </trkpt>
      <trkpt lat="43.74036" lon="3.42166">
        <ele>391.4</ele>
        <time>2017-04-12T07:22:34Z</time>
      </trkpt>
      <trkpt lat="43.74029" lon="3.4216">
        <ele>391.9</ele>
        <time>2017-04-12T07:22:38Z</time>
      </trkpt>
      <trkpt lat="43.74022" lon="3.42152">
        <ele>392.5</ele>
        <time>2017-04-12T07:22:43Z</time>
      </trkpt>
      <trkpt lat="43.74014" lon="3.42146">
        <ele>392.9</ele>
        <time>2017-04-12T07:22:47Z</time>
      </trkpt>
      <trkpt lat="43.74006" lon="3.42141">
        <ele>393.3</ele>
        <time>2017-04-12T07:22:51Z</time>
      </trkpt>
      <trkpt lat="43.73999" lon="3.42138">
        <ele>393.8</ele>
        <time>2017-04-12T07:22:55Z</time>
      </trkpt>
      <trkpt lat="43.73992" lon="3.42135">
        <ele>394.4</ele>
        <time>2017-04-12T07:22:58Z</time>
      </trkpt>
      <trkpt lat="43.73985" lon="3.42129">
        <ele>395.5</ele>
        <time>2017-04-12T07:23:03Z</time>
      </trkpt>
      <trkpt lat="43.73978" lon="3.42124">
        <ele>396.6</ele>
        <time>2017-04-12T07:23:08Z</time>
      </trkpt>
      <trkpt lat="43.73971" lon="3.4212">
        <ele>398.1</ele>
        <time>2017-04-12T07:23:14Z</time>
      </trkpt>
      <trkpt lat="43.73965" lon="3.42118">
        <ele>399.4</ele>
        <time>2017-04-12T07:23:21Z</time>
      </trkpt>
      <trkpt lat="43.73964" lon="3.42114">
        <ele>399.6</ele>
        <time>2017-04-12T07:23:28Z</time>
      </trkpt>
      <trkpt lat="43.73965" lon="3.42111">
        <ele>400.3</ele>
        <time>2017-04-12T07:23:35Z</time>
      </trkpt>
      <trkpt lat="43.73966" lon="3.42111">
        <ele>401.1</ele>
        <time>2017-04-12T07:23:42Z</time>
      </trkpt>
      <trkpt lat="43.73968" lon="3.42108">
        <ele>402.4</ele>
        <time>2017-04-12T07:23:52Z</time>
      </trkpt>
      <trkpt lat="43.73971" lon="3.42101">
        <ele>404.5</ele>
        <time>2017-04-12T07:24:06Z</time>
      </trkpt>
      <trkpt lat="43.73974" lon="3.421">
        <ele>405.4</ele>
        <time>2017-04-12T07:24:13Z</time>
      </trkpt>
      <trkpt lat="43.7398" lon="3.421">
        <ele>405.4</ele>
        <time>2017-04-12T07:24:20Z</time>
      </trkpt>
      <trkpt lat="43.73987" lon="3.42102">
        <ele>405.1</ele>
        <time>2017-04-12T07:24:27Z</time>
      </trkpt>
      <trkpt lat="43.73995" lon="3.42108">
        <ele>404.8</ele>
        <time>2017-04-12T07:24:33Z</time>
      </trkpt>
      <trkpt lat="43.74001" lon="3.42112">
        <ele>404.4</ele>
        <time>2017-04-12T07:24:40Z</time>
      </trkpt>
      <trkpt lat="43.74005" lon="3.42113">
        <ele>404.3</ele>
        <time>2017-04-12T07:24:47Z</time>
      </trkpt>
      <trkpt lat="43.74009" lon="3.42119">
        <ele>403.7</ele>
        <time>2017-04-12T07:24:54Z</time>
      </trkpt>
      <trkpt lat="43.74014" lon="3.42129">
        <ele>403.1</ele>
        <time>2017-04-12T07:25:01Z</time>
      </trkpt>
      <trkpt lat="43.74019" lon="3.42135">
        <ele>402.4</ele>
        <time>2017-04-12T07:25:07Z</time>
      </trkpt>
      <trkpt lat="43.74026" lon="3.4214">
        <ele>401.6</ele>
        <time>2017-04-12T07:25:13Z</time>
      </trkpt>
      <trkpt lat="43.74032" lon="3.42139">
        <ele>400.9</ele>
        <time>2017-04-12T07:25:20Z</time>
      </trkpt>
      <trkpt lat="43.7404" lon="3.42139">
        <ele>399.9</ele>
        <time>2017-04-12T07:25:27Z</time>
      </trkpt>
      <trkpt lat="43.74045" lon="3.42139">
        <ele>399.3</ele>
        <time>2017-04-12T07:25:34Z</time>
      </trkpt>
      <trkpt lat="43.7405" lon="3.42136">
        <ele>398.5</ele>
        <time>2017-04-12T07:25:41Z</time>
      </trkpt>
      <trkpt lat="43.74052" lon="3.42135">
        <ele>397.7</ele>
        <time>2017-04-12T07:25:48Z</time>
      </trkpt>
      <trkpt lat="43.74058" lon="3.4213">
        <ele>397.3</ele>
        <time>2017-04-12T07:25:53Z</time>
      </trkpt>
      <trkpt lat="43.74062" lon="3.42122">
        <ele>397.2</ele>
        <time>2017-04-12T07:26:00Z</time>
      </trkpt>
      <trkpt lat="43.7406" lon="3.42112">
        <ele>397.4</ele>
        <time>2017-04-12T07:26:06Z</time>
      </trkpt>
      <trkpt lat="43.74058" lon="3.42103">
        <ele>396.5</ele>
        <time>2017-04-12T07:26:20Z</time>
      </trkpt>
      <trkpt lat="43.74053" lon="3.42096">
        <ele>395.9</ele>
        <time>2017-04-12T07:26:27Z</time>
      </trkpt>
      <trkpt lat="43.74052" lon="3.42091">
        <ele>395.7</ele>
        <time>2017-04-12T07:26:34Z</time>
      </trkpt>
      <trkpt lat="43.74049" lon="3.42092">
        <ele>395.6</ele>
        <time>2017-04-12T07:26:41Z</time>
      </trkpt>
      <trkpt lat="43.74043" lon="3.42094">
        <ele>395.5</ele>
        <time>2017-04-12T07:26:48Z</time>
      </trkpt>
      <trkpt lat="43.74038" lon="3.42096">
        <ele>395.4</ele>
        <time>2017-04-12T07:26:55Z</time>
      </trkpt>
      <trkpt lat="43.74036" lon="3.42104">
        <ele>395.6</ele>
        <time>2017-04-12T07:27:02Z</time>
      </trkpt>
      <trkpt lat="43.74034" lon="3.42108">
        <ele>395.6</ele>
        <time>2017-04-12T07:27:09Z</time>
      </trkpt>
      <trkpt lat="43.7403" lon="3.42111">
        <ele>395.6</ele>
        <time>2017-04-12T07:27:16Z</time>
      </trkpt>
      <trkpt lat="43.74025" lon="3.42114">
        <ele>395.6</ele>
        <time>2017-04-12T07:27:23Z</time>
      </trkpt>
      <trkpt lat="43.74021" lon="3.4212">
        <ele>396.1</ele>
        <time>2017-04-12T07:27:30Z</time>
      </trkpt>
      <trkpt lat="43.74017" lon="3.42125">
        <ele>396.3</ele>
        <time>2017-04-12T07:27:37Z</time>
      </trkpt>
      <trkpt lat="43.74012" lon="3.42128">
        <ele>396.4</ele>
        <time>2017-04-12T07:27:44Z</time>
      </trkpt>
      <trkpt lat="43.74007" lon="3.42132">
        <ele>397</ele>
        <time>2017-04-12T07:27:51Z</time>
      </trkpt>
      <trkpt lat="43.74002" lon="3.42134">
        <ele>397.7</ele>
        <time>2017-04-12T07:27:58Z</time>
      </trkpt>
      <trkpt lat="43.73994" lon="3.42133">
        <ele>398</ele>
        <time>2017-04-12T07:28:04Z</time>
      </trkpt>
      <trkpt lat="43.7399" lon="3.42129">
        <ele>399.2</ele>
        <time>2017-04-12T07:28:11Z</time>
      </trkpt>
      <trkpt lat="43.73984" lon="3.42125">
        <ele>400.1</ele>
        <time>2017-04-12T07:28:18Z</time>
      </trkpt>
      <trkpt lat="43.73977" lon="3.42121">
        <ele>401.4</ele>
        <time>2017-04-12T07:28:25Z</time>
      </trkpt>
      <trkpt lat="43.73971" lon="3.42116">
        <ele>402.6</ele>
        <time>2017-04-12T07:28:32Z</time>
      </trkpt>
      <trkpt lat="43.73964" lon="3.42113">
        <ele>403.3</ele>
        <time>2017-04-12T07:28:38Z</time>
      </trkpt>
      <trkpt lat="43.73956" lon="3.4211">
        <ele>404.6</ele>
        <time>2017-04-12T07:28:45Z</time>
      </trkpt>
      <trkpt lat="43.73949" lon="3.42107">
        <ele>405.6</ele>
        <time>2017-04-12T07:28:52Z</time>
      </trkpt>
      <trkpt lat="43.73942" lon="3.421">
        <ele>406.6</ele>
        <time>2017-04-12T07:28:59Z</time>
      </trkpt>
      <trkpt lat="43.73939" lon="3.42094">
        <ele>407.5</ele>
        <time>2017-04-12T07:29:06Z</time>
      </trkpt>
      <trkpt lat="43.73933" lon="3.4209">
        <ele>407.9</ele>
        <time>2017-04-12T07:29:13Z</time>
      </trkpt>
      <trkpt lat="43.73938" lon="3.42103">
        <ele>408.9</ele>
        <time>2017-04-12T07:29:27Z</time>
      </trkpt>
      <trkpt lat="43.73944" lon="3.42107">
        <ele>408.8</ele>
        <time>2017-04-12T07:29:34Z</time>
      </trkpt>
      <trkpt lat="43.73951" lon="3.42111">
        <ele>408.9</ele>
        <time>2017-04-12T07:29:41Z</time>
      </trkpt>
      <trkpt lat="43.73959" lon="3.42112">
        <ele>408.8</ele>
        <time>2017-04-12T07:29:48Z</time>
      </trkpt>
      <trkpt lat="43.73964" lon="3.42111">
        <ele>408.7</ele>
        <time>2017-04-12T07:29:55Z</time>
      </trkpt>
      <trkpt lat="43.73961" lon="3.42114">
        <ele>408.5</ele>
        <time>2017-04-12T07:30:02Z</time>
      </trkpt>
      <trkpt lat="43.73957" lon="3.42112">
        <ele>408.7</ele>
        <time>2017-04-12T07:30:09Z</time>
      </trkpt>
      <trkpt lat="43.73949" lon="3.4211">
        <ele>408.9</ele>
        <time>2017-04-12T07:30:15Z</time>
      </trkpt>
      <trkpt lat="43.73942" lon="3.42105">
        <ele>409.1</ele>
        <time>2017-04-12T07:30:20Z</time>
      </trkpt>
      <trkpt lat="43.73934" lon="3.42102">
        <ele>409.4</ele>
        <time>2017-04-12T07:30:25Z</time>
      </trkpt>
      <trkpt lat="43.73925" lon="3.421">
        <ele>409.8</ele>
        <time>2017-04-12T07:30:31Z</time>
      </trkpt>
      <trkpt lat="43.73917" lon="3.42097">
        <ele>410.5</ele>
        <time>2017-04-12T07:30:36Z</time>
      </trkpt>
      <trkpt lat="43.7391" lon="3.42093">
        <ele>411.1</ele>
        <time>2017-04-12T07:30:40Z</time>
      </trkpt>
      <trkpt lat="43.73901" lon="3.42089">
        <ele>412.2</ele>
        <time>2017-04-12T07:30:47Z</time>
      </trkpt>
      <trkpt lat="43.73901" lon="3.4209">
        <ele>413</ele>
        <time>2017-04-12T07:30:54Z</time>
      </trkpt>
      <trkpt lat="43.73896" lon="3.42085">
        <ele>413.4</ele>
        <time>2017-04-12T07:31:01Z</time>
      </trkpt>
      <trkpt lat="43.73898" lon="3.42077">
        <ele>413.8</ele>
        <time>2017-04-12T07:31:15Z</time>
      </trkpt>
      <trkpt lat="43.73894" lon="3.42073">
        <ele>414.2</ele>
        <time>2017-04-12T07:31:22Z</time>
      </trkpt>
      <trkpt lat="43.73891" lon="3.4207">
        <ele>414.4</ele>
        <time>2017-04-12T07:31:29Z</time>
      </trkpt>
      <trkpt lat="43.7389" lon="3.4207">
        <ele>415</ele>
        <time>2017-04-12T07:31:44Z</time>
      </trkpt>
      <trkpt lat="43.73896" lon="3.42076">
        <ele>415.1</ele>
        <time>2017-04-12T07:31:51Z</time>
      </trkpt>
      <trkpt lat="43.73902" lon="3.42079">
        <ele>415.3</ele>
        <time>2017-04-12T07:31:58Z</time>
      </trkpt>
      <trkpt lat="43.73908" lon="3.4208">
        <ele>415.4</ele>
        <time>2017-04-12T07:32:05Z</time>
      </trkpt>
      <trkpt lat="43.73913" lon="3.42078">
        <ele>415</ele>
        <time>2017-04-12T07:32:12Z</time>
      </trkpt>
      <trkpt lat="43.73916" lon="3.42074">
        <ele>415</ele>
        <time>2017-04-12T07:32:19Z</time>
      </trkpt>
      <trkpt lat="43.73917" lon="3.42073">
        <ele>415.1</ele>
        <time>2017-04-12T07:32:26Z</time>
      </trkpt>
      <trkpt lat="43.73925" lon="3.42075">
        <ele>415.2</ele>
        <time>2017-04-12T07:32:33Z</time>
      </trkpt>
      <trkpt lat="43.73928" lon="3.42077">
        <ele>414.6</ele>
        <time>2017-04-12T07:32:40Z</time>
      </trkpt>
      <trkpt lat="43.73922" lon="3.42079">
        <ele>413.9</ele>
        <time>2017-04-12T07:32:47Z</time>
      </trkpt>
      <trkpt lat="43.73917" lon="3.42078">
        <ele>413.8</ele>
        <time>2017-04-12T07:32:54Z</time>
      </trkpt>
      <trkpt lat="43.73914" lon="3.42081">
        <ele>413.7</ele>
        <time>2017-04-12T07:33:01Z</time>
      </trkpt>
      <trkpt lat="43.73908" lon="3.42075">
        <ele>413.9</ele>
        <time>2017-04-12T07:33:08Z</time>
      </trkpt>
      <trkpt lat="43.73902" lon="3.42073">
        <ele>414</ele>
        <time>2017-04-12T07:33:15Z</time>
      </trkpt>
      <trkpt lat="43.73896" lon="3.42078">
        <ele>413.7</ele>
        <time>2017-04-12T07:33:21Z</time>
      </trkpt>
      <trkpt lat="43.7389" lon="3.42082">
        <ele>413.8</ele>
        <time>2017-04-12T07:33:28Z</time>
      </trkpt>
      <trkpt lat="43.73883" lon="3.42087">
        <ele>413.9</ele>
        <time>2017-04-12T07:33:35Z</time>
      </trkpt>
      <trkpt lat="43.73891" lon="3.42087">
        <ele>413.7</ele>
        <time>2017-04-12T07:33:48Z</time>
      </trkpt>
      <trkpt lat="43.73895" lon="3.42085">
        <ele>413.6</ele>
        <time>2017-04-12T07:33:55Z</time>
      </trkpt>
      <trkpt lat="43.73894" lon="3.4208">
        <ele>414.1</ele>
        <time>2017-04-12T07:34:02Z</time>
      </trkpt>
      <trkpt lat="43.73894" lon="3.42074">
        <ele>415.4</ele>
        <time>2017-04-12T07:34:16Z</time>
      </trkpt>
      <trkpt lat="43.7389" lon="3.42081">
        <ele>415.2</ele>
        <time>2017-04-12T07:34:23Z</time>
      </trkpt>
      <trkpt lat="43.73895" lon="3.42088">
        <ele>415.4</ele>
        <time>2017-04-12T07:34:30Z</time>
      </trkpt>
      <trkpt lat="43.739" lon="3.42089">
        <ele>415.8</ele>
        <time>2017-04-12T07:34:37Z</time>
      </trkpt>
      <trkpt lat="43.73896" lon="3.42089">
        <ele>415.7</ele>
        <time>2017-04-12T07:34:47Z</time>
      </trkpt>
      <trkpt lat="43.73887" lon="3.42088">
        <ele>415.8</ele>
        <time>2017-04-12T07:34:51Z</time>
      </trkpt>
      <trkpt lat="43.73879" lon="3.42088">
        <ele>415.8</ele>
        <time>2017-04-12T07:34:55Z</time>
      </trkpt>
      <trkpt lat="43.7387" lon="3.42089">
        <ele>415.9</ele>
        <time>2017-04-12T07:34:59Z</time>
      </trkpt>
      <trkpt lat="43.7386" lon="3.4209">
        <ele>415.8</ele>
        <time>2017-04-12T07:35:02Z</time>
      </trkpt>
      <trkpt lat="43.73853" lon="3.4209">
        <ele>415.9</ele>
        <time>2017-04-12T07:35:06Z</time>
      </trkpt>
      <trkpt lat="43.73845" lon="3.42088">
        <ele>415.8</ele>
        <time>2017-04-12T07:35:10Z</time>
      </trkpt>
      <trkpt lat="43.73837" lon="3.42085">
        <ele>416</ele>
        <time>2017-04-12T07:35:15Z</time>
      </trkpt>
      <trkpt lat="43.73828" lon="3.42084">
        <ele>416.2</ele>
        <time>2017-04-12T07:35:19Z</time>
      </trkpt>
      <trkpt lat="43.7382" lon="3.42083">
        <ele>416.4</ele>
        <time>2017-04-12T07:35:24Z</time>
      </trkpt>
      <trkpt lat="43.73811" lon="3.42081">
        <ele>416.9</ele>
        <time>2017-04-12T07:35:29Z</time>
      </trkpt>
      <trkpt lat="43.73803" lon="3.42077">
        <ele>417.6</ele>
        <time>2017-04-12T07:35:34Z</time>
      </trkpt>
      <trkpt lat="43.73797" lon="3.4207">
        <ele>418.1</ele>
        <time>2017-04-12T07:35:38Z</time>
      </trkpt>
      <trkpt lat="43.7379" lon="3.42063">
        <ele>418.7</ele>
        <time>2017-04-12T07:35:42Z</time>
      </trkpt>
      <trkpt lat="43.73786" lon="3.42055">
        <ele>419.1</ele>
        <time>2017-04-12T07:35:46Z</time>
      </trkpt>
      <trkpt lat="43.73781" lon="3.42046">
        <ele>419.5</ele>
        <time>2017-04-12T07:35:50Z</time>
      </trkpt>
      <trkpt lat="43.73776" lon="3.42037">
        <ele>420</ele>
        <time>2017-04-12T07:35:54Z</time>
      </trkpt>
      <trkpt lat="43.73772" lon="3.42027">
        <ele>420.2</ele>
        <time>2017-04-12T07:36:00Z</time>
      </trkpt>
      <trkpt lat="43.7377" lon="3.42027">
        <ele>420.1</ele>
        <time>2017-04-12T07:36:07Z</time>
      </trkpt>
      <trkpt lat="43.73772" lon="3.42034">
        <ele>420.4</ele>
        <time>2017-04-12T07:36:18Z</time>
      </trkpt>
      <trkpt lat="43.73777" lon="3.42042">
        <ele>421.2</ele>
        <time>2017-04-12T07:36:25Z</time>
      </trkpt>
      <trkpt lat="43.73785" lon="3.42048">
        <ele>421.4</ele>
        <time>2017-04-12T07:36:30Z</time>
      </trkpt>
      <trkpt lat="43.73796" lon="3.42053">
        <ele>421.9</ele>
        <time>2017-04-12T07:36:44Z</time>
      </trkpt>
      <trkpt lat="43.73798" lon="3.42055">
        <ele>422.1</ele>
        <time>2017-04-12T07:36:51Z</time>
      </trkpt>
      <trkpt lat="43.73801" lon="3.42055">
        <ele>422.3</ele>
        <time>2017-04-12T07:36:58Z</time>
      </trkpt>
      <trkpt lat="43.73804" lon="3.42053">
        <ele>421.2</ele>
        <time>2017-04-12T07:37:05Z</time>
      </trkpt>
      <trkpt lat="43.73803" lon="3.42048">
        <ele>421</ele>
        <time>2017-04-12T07:37:12Z</time>
      </trkpt>
      <trkpt lat="43.73807" lon="3.42046">
        <ele>420.1</ele>
        <time>2017-04-12T07:37:19Z</time>
      </trkpt>
      <trkpt lat="43.73808" lon="3.42052">
        <ele>419.5</ele>
        <time>2017-04-12T07:37:26Z</time>
      </trkpt>
      <trkpt lat="43.73805" lon="3.42052">
        <ele>419.1</ele>
        <time>2017-04-12T07:37:33Z</time>
      </trkpt>
      <trkpt lat="43.73803" lon="3.42054">
        <ele>419.3</ele>
        <time>2017-04-12T07:37:47Z</time>
      </trkpt>
      <trkpt lat="43.73806" lon="3.42047">
        <ele>420</ele>
        <time>2017-04-12T07:37:58Z</time>
      </trkpt>
      <trkpt lat="43.73804" lon="3.42043">
        <ele>420.3</ele>
        <time>2017-04-12T07:38:05Z</time>
      </trkpt>
      <trkpt lat="43.73807" lon="3.42039">
        <ele>419.7</ele>
        <time>2017-04-12T07:38:20Z</time>
      </trkpt>
      <trkpt lat="43.73812" lon="3.42031">
        <ele>419.8</ele>
        <time>2017-04-12T07:38:24Z</time>
      </trkpt>
      <trkpt lat="43.73817" lon="3.42022">
        <ele>419.6</ele>
        <time>2017-04-12T07:38:29Z</time>
      </trkpt>
      <trkpt lat="43.73822" lon="3.4201">
        <ele>419.3</ele>
        <time>2017-04-12T07:38:33Z</time>
      </trkpt>
      <trkpt lat="43.73825" lon="3.41999">
        <ele>418.9</ele>
        <time>2017-04-12T07:38:36Z</time>
      </trkpt>
      <trkpt lat="43.73824" lon="3.41987">
        <ele>418.3</ele>
        <time>2017-04-12T07:38:40Z</time>
      </trkpt>
      <trkpt lat="43.73829" lon="3.41978">
        <ele>417.5</ele>
        <time>2017-04-12T07:38:44Z</time>
      </trkpt>
      <trkpt lat="43.73834" lon="3.41969">
        <ele>416.7</ele>
        <time>2017-04-12T07:38:47Z</time>
      </trkpt>
      <trkpt lat="43.73837" lon="3.41959">
        <ele>415.2</ele>
        <time>2017-04-12T07:38:52Z</time>
      </trkpt>
      <trkpt lat="43.73842" lon="3.41952">
        <ele>413.8</ele>
        <time>2017-04-12T07:38:56Z</time>
      </trkpt>
      <trkpt lat="43.73846" lon="3.41943">
        <ele>412</ele>
        <time>2017-04-12T07:39:01Z</time>
      </trkpt>
      <trkpt lat="43.73851" lon="3.41935">
        <ele>409</ele>
        <time>2017-04-12T07:39:08Z</time>
      </trkpt>
      <trkpt lat="43.73855" lon="3.41924">
        <ele>406.8</ele>
        <time>2017-04-12T07:39:13Z</time>
      </trkpt>
      <trkpt lat="43.73863" lon="3.41916">
        <ele>405</ele>
        <time>2017-04-12T07:39:17Z</time>
      </trkpt>
      <trkpt lat="43.73864" lon="3.41906">
        <ele>402.5</ele>
        <time>2017-04-12T07:39:23Z</time>
      </trkpt>
      <trkpt lat="43.73869" lon="3.41896">
        <ele>400.2</ele>
        <time>2017-04-12T07:39:28Z</time>
      </trkpt>
      <trkpt lat="43.73874" lon="3.4189">
        <ele>396.7</ele>
        <time>2017-04-12T07:39:35Z</time>
      </trkpt>
      <trkpt lat="43.73878" lon="3.4188">
        <ele>394.1</ele>
        <time>2017-04-12T07:39:40Z</time>
      </trkpt>
      <trkpt lat="43.73878" lon="3.41872">
        <ele>390.2</ele>
        <time>2017-04-12T07:39:47Z</time>
      </trkpt>
      <trkpt lat="43.73882" lon="3.41866">
        <ele>374.2</ele>
        <time>2017-04-12T07:41:07Z</time>
      </trkpt>
      <trkpt lat="43.73885" lon="3.41865">
        <ele>371.5</ele>
        <time>2017-04-12T07:41:26Z</time>
      </trkpt>
      <trkpt lat="43.73892" lon="3.41861">
        <ele>370.6</ele>
        <time>2017-04-12T07:41:31Z</time>
      </trkpt>
      <trkpt lat="43.73899" lon="3.41854">
        <ele>369</ele>
        <time>2017-04-12T07:41:36Z</time>
      </trkpt>
      <trkpt lat="43.73897" lon="3.41847">
        <ele>366.7</ele>
        <time>2017-04-12T07:41:43Z</time>
      </trkpt>
      <trkpt lat="43.73894" lon="3.41838">
        <ele>364.8</ele>
        <time>2017-04-12T07:41:50Z</time>
      </trkpt>
      <trkpt lat="43.73902" lon="3.41836">
        <ele>363.2</ele>
        <time>2017-04-12T07:41:56Z</time>
      </trkpt>
      <trkpt lat="43.73909" lon="3.41831">
        <ele>361.3</ele>
        <time>2017-04-12T07:42:02Z</time>
      </trkpt>
      <trkpt lat="43.73911" lon="3.41832">
        <ele>358.9</ele>
        <time>2017-04-12T07:42:09Z</time>
      </trkpt>
      <trkpt lat="43.73914" lon="3.41829">
        <ele>356.7</ele>
        <time>2017-04-12T07:42:16Z</time>
      </trkpt>
      <trkpt lat="43.73912" lon="3.41828">
        <ele>354.2</ele>
        <time>2017-04-12T07:42:23Z</time>
      </trkpt>
      <trkpt lat="43.73915" lon="3.41831">
        <ele>350.4</ele>
        <time>2017-04-12T07:41:51Z</time>
      </trkpt>
      <trkpt lat="43.73917" lon="3.41834">
        <ele>346.7</ele>
        <time>2017-04-12T07:43:27Z</time>
      </trkpt>
      <trkpt lat="43.73926" lon="3.4183">
        <ele>345.6</ele>
        <time>2017-04-12T07:43:32Z</time>
      </trkpt>
      <trkpt lat="43.73933" lon="3.41827">
        <ele>344.7</ele>
        <time>2017-04-12T07:43:36Z</time>
      </trkpt>
      <trkpt lat="43.73941" lon="3.41822">
        <ele>344.2</ele>
        <time>2017-04-12T07:43:39Z</time>
      </trkpt>
      <trkpt lat="43.73945" lon="3.41817">
        <ele>343.2</ele>
        <time>2017-04-12T07:43:46Z</time>
      </trkpt>
      <trkpt lat="43.73948" lon="3.41806">
        <ele>342.1</ele>
        <time>2017-04-12T07:43:51Z</time>
      </trkpt>
      <trkpt lat="43.73949" lon="3.41795">
        <ele>340.9</ele>
        <time>2017-04-12T07:43:56Z</time>
      </trkpt>
      <trkpt lat="43.73948" lon="3.41784">
        <ele>338.7</ele>
        <time>2017-04-12T07:44:03Z</time>
      </trkpt>
      <trkpt lat="43.73942" lon="3.41779">
        <ele>336.6</ele>
        <time>2017-04-12T07:44:10Z</time>
      </trkpt>
      <trkpt lat="43.73936" lon="3.41774">
        <ele>333.5</ele>
        <time>2017-04-12T07:44:17Z</time>
      </trkpt>
      <trkpt lat="43.73939" lon="3.41775">
        <ele>330.5</ele>
        <time>2017-04-12T07:44:32Z</time>
      </trkpt>
      <trkpt lat="43.73941" lon="3.41779">
        <ele>330.2</ele>
        <time>2017-04-12T07:44:38Z</time>
      </trkpt>
      <trkpt lat="43.73939" lon="3.41778">
        <ele>329.6</ele>
        <time>2017-04-12T07:44:45Z</time>
      </trkpt>
      <trkpt lat="43.73937" lon="3.41776">
        <ele>329.2</ele>
        <time>2017-04-12T07:44:52Z</time>
      </trkpt>
      <trkpt lat="43.7394" lon="3.41777">
        <ele>327.4</ele>
        <time>2017-04-12T07:45:29Z</time>
      </trkpt>
      <trkpt lat="43.73947" lon="3.41777">
        <ele>325</ele>
        <time>2017-04-12T07:46:34Z</time>
      </trkpt>
      <trkpt lat="43.73957" lon="3.41781">
        <ele>324.4</ele>
        <time>2017-04-12T07:46:38Z</time>
      </trkpt>
      <trkpt lat="43.73966" lon="3.41783">
        <ele>323.9</ele>
        <time>2017-04-12T07:46:41Z</time>
      </trkpt>
      <trkpt lat="43.73973" lon="3.41787">
        <ele>323.4</ele>
        <time>2017-04-12T07:46:44Z</time>
      </trkpt>
      <trkpt lat="43.73981" lon="3.41788">
        <ele>323</ele>
        <time>2017-04-12T07:46:47Z</time>
      </trkpt>
      <trkpt lat="43.73989" lon="3.41791">
        <ele>322.6</ele>
        <time>2017-04-12T07:46:50Z</time>
      </trkpt>
      <trkpt lat="43.73998" lon="3.41793">
        <ele>322.3</ele>
        <time>2017-04-12T07:46:53Z</time>
      </trkpt>
      <trkpt lat="43.74007" lon="3.41796">
        <ele>322</ele>
        <time>2017-04-12T07:46:56Z</time>
      </trkpt>
      <trkpt lat="43.74016" lon="3.418">
        <ele>321.8</ele>
        <time>2017-04-12T07:46:59Z</time>
      </trkpt>
      <trkpt lat="43.74023" lon="3.41806">
        <ele>321.6</ele>
        <time>2017-04-12T07:47:02Z</time>
      </trkpt>
      <trkpt lat="43.74031" lon="3.41812">
        <ele>321.3</ele>
        <time>2017-04-12T07:47:06Z</time>
      </trkpt>
      <trkpt lat="43.74037" lon="3.41816">
        <ele>321.2</ele>
        <time>2017-04-12T07:47:09Z</time>
      </trkpt>
      <trkpt lat="43.74047" lon="3.41822">
        <ele>321.1</ele>
        <time>2017-04-12T07:47:13Z</time>
      </trkpt>
      <trkpt lat="43.74055" lon="3.41827">
        <ele>321.1</ele>
        <time>2017-04-12T07:47:16Z</time>
      </trkpt>
      <trkpt lat="43.74061" lon="3.41832">
        <ele>320.9</ele>
        <time>2017-04-12T07:47:19Z</time>
      </trkpt>
      <trkpt lat="43.74069" lon="3.41837">
        <ele>320.9</ele>
        <time>2017-04-12T07:47:23Z</time>
      </trkpt>
      <trkpt lat="43.74076" lon="3.4184">
        <ele>321</ele>
        <time>2017-04-12T07:47:26Z</time>
      </trkpt>
      <trkpt lat="43.74083" lon="3.41845">
        <ele>321.1</ele>
        <time>2017-04-12T07:47:29Z</time>
      </trkpt>
      <trkpt lat="43.74091" lon="3.41849">
        <ele>321</ele>
        <time>2017-04-12T07:47:32Z</time>
      </trkpt>
      <trkpt lat="43.74098" lon="3.41854">
        <ele>320.9</ele>
        <time>2017-04-12T07:47:35Z</time>
      </trkpt>
      <trkpt lat="43.74107" lon="3.4186">
        <ele>321</ele>
        <time>2017-04-12T07:47:39Z</time>
      </trkpt>
      <trkpt lat="43.74114" lon="3.41866">
        <ele>321</ele>
        <time>2017-04-12T07:47:43Z</time>
      </trkpt>
      <trkpt lat="43.74121" lon="3.41871">
        <ele>321</ele>
        <time>2017-04-12T07:47:46Z</time>
      </trkpt>
      <trkpt lat="43.7413" lon="3.41874">
        <ele>321</ele>
        <time>2017-04-12T07:47:49Z</time>
      </trkpt>
      <trkpt lat="43.74138" lon="3.41875">
        <ele>321</ele>
        <time>2017-04-12T07:47:52Z</time>
      </trkpt>
      <trkpt lat="43.74146" lon="3.41871">
        <ele>321.3</ele>
        <time>2017-04-12T07:47:56Z</time>
      </trkpt>
      <trkpt lat="43.74154" lon="3.41868">
        <ele>321.7</ele>
        <time>2017-04-12T07:47:59Z</time>
      </trkpt>
      <trkpt lat="43.74162" lon="3.41865">
        <ele>322.2</ele>
        <time>2017-04-12T07:48:02Z</time>
      </trkpt>
      <trkpt lat="43.7417" lon="3.41863">
        <ele>322.5</ele>
        <time>2017-04-12T07:48:05Z</time>
      </trkpt>
      <trkpt lat="43.74178" lon="3.41861">
        <ele>322.7</ele>
        <time>2017-04-12T07:48:08Z</time>
      </trkpt>
      <trkpt lat="43.74186" lon="3.41859">
        <ele>322.7</ele>
        <time>2017-04-12T07:48:11Z</time>
      </trkpt>
      <trkpt lat="43.74193" lon="3.41856">
        <ele>322.8</ele>
        <time>2017-04-12T07:48:14Z</time>
      </trkpt>
      <trkpt lat="43.74201" lon="3.41853">
        <ele>322.9</ele>
        <time>2017-04-12T07:48:17Z</time>
      </trkpt>
      <trkpt lat="43.7421" lon="3.41849">
        <ele>322.8</ele>
        <time>2017-04-12T07:48:21Z</time>
      </trkpt>
      <trkpt lat="43.74202" lon="3.4185">
        <ele>322.8</ele>
        <time>2017-04-12T07:48:26Z</time>
      </trkpt>
      <trkpt lat="43.74192" lon="3.41851">
        <ele>321.1</ele>
        <time>2017-04-12T07:48:28Z</time>
      </trkpt>
      <trkpt lat="43.74181" lon="3.4185">
        <ele>320.3</ele>
        <time>2017-04-12T07:48:30Z</time>
      </trkpt>
      <trkpt lat="43.7417" lon="3.41849">
        <ele>318.7</ele>
        <time>2017-04-12T07:48:32Z</time>
      </trkpt>
      <trkpt lat="43.74163" lon="3.41849">
        <ele>316.9</ele>
        <time>2017-04-12T07:48:34Z</time>
      </trkpt>
      <trkpt lat="43.74151" lon="3.41852">
        <ele>315.1</ele>
        <time>2017-04-12T07:48:36Z</time>
      </trkpt>
      <trkpt lat="43.74139" lon="3.41853">
        <ele>314.5</ele>
        <time>2017-04-12T07:48:38Z</time>
      </trkpt>
      <trkpt lat="43.74131" lon="3.4185">
        <ele>314.6</ele>
        <time>2017-04-12T07:48:42Z</time>
      </trkpt>
      <trkpt lat="43.74126" lon="3.41842">
        <ele>314.8</ele>
        <time>2017-04-12T07:48:45Z</time>
      </trkpt>
      <trkpt lat="43.74121" lon="3.41833">
        <ele>314.9</ele>
        <time>2017-04-12T07:48:47Z</time>
      </trkpt>
      <trkpt lat="43.74113" lon="3.41825">
        <ele>315.3</ele>
        <time>2017-04-12T07:48:49Z</time>
      </trkpt>
      <trkpt lat="43.74101" lon="3.4182">
        <ele>315.6</ele>
        <time>2017-04-12T07:48:51Z</time>
      </trkpt>
      <trkpt lat="43.74091" lon="3.41816">
        <ele>314.7</ele>
        <time>2017-04-12T07:48:53Z</time>
      </trkpt>
      <trkpt lat="43.74086" lon="3.41804">
        <ele>313.7</ele>
        <time>2017-04-12T07:48:55Z</time>
      </trkpt>
      <trkpt lat="43.74078" lon="3.41795">
        <ele>312.9</ele>
        <time>2017-04-12T07:48:57Z</time>
      </trkpt>
      <trkpt lat="43.74066" lon="3.41785">
        <ele>311.6</ele>
        <time>2017-04-12T07:48:59Z</time>
      </trkpt>
      <trkpt lat="43.74059" lon="3.4178">
        <ele>310.9</ele>
        <time>2017-04-12T07:49:00Z</time>
      </trkpt>
      <trkpt lat="43.74051" lon="3.41773">
        <ele>310.3</ele>
        <time>2017-04-12T07:49:01Z</time>
      </trkpt>
      <trkpt lat="43.74044" lon="3.41767">
        <ele>309.2</ele>
        <time>2017-04-12T07:49:02Z</time>
      </trkpt>
      <trkpt lat="43.74037" lon="3.41761">
        <ele>307.6</ele>
        <time>2017-04-12T07:49:03Z</time>
      </trkpt>
      <trkpt lat="43.7403" lon="3.41754">
        <ele>306.2</ele>
        <time>2017-04-12T07:49:04Z</time>
      </trkpt>
      <trkpt lat="43.74024" lon="3.41748">
        <ele>305</ele>
        <time>2017-04-12T07:49:05Z</time>
      </trkpt>
      <trkpt lat="43.74017" lon="3.41741">
        <ele>303.8</ele>
        <time>2017-04-12T07:49:06Z</time>
      </trkpt>
      <trkpt lat="43.74008" lon="3.41731">
        <ele>302.6</ele>
        <time>2017-04-12T07:49:08Z</time>
      </trkpt>
      <trkpt lat="43.74018" lon="3.41732">
        <ele>298.8</ele>
        <time>2017-04-12T07:49:14Z</time>
      </trkpt>
      <trkpt lat="43.74026" lon="3.41737">
        <ele>297.7</ele>
        <time>2017-04-12T07:49:16Z</time>
      </trkpt>
      <trkpt lat="43.74036" lon="3.41742">
        <ele>296.5</ele>
        <time>2017-04-12T07:49:18Z</time>
      </trkpt>
      <trkpt lat="43.74048" lon="3.41747">
        <ele>294.7</ele>
        <time>2017-04-12T07:49:20Z</time>
      </trkpt>
      <trkpt lat="43.74062" lon="3.41751">
        <ele>294.3</ele>
        <time>2017-04-12T07:49:22Z</time>
      </trkpt>
      <trkpt lat="43.74073" lon="3.41755">
        <ele>294.1</ele>
        <time>2017-04-12T07:49:24Z</time>
      </trkpt>
      <trkpt lat="43.74083" lon="3.41754">
        <ele>294.1</ele>
        <time>2017-04-12T07:49:26Z</time>
      </trkpt>
      <trkpt lat="43.74075" lon="3.41748">
        <ele>291.8</ele>
        <time>2017-04-12T07:49:32Z</time>
      </trkpt>
      <trkpt lat="43.74068" lon="3.41744">
        <ele>291.6</ele>
        <time>2017-04-12T07:49:34Z</time>
      </trkpt>
      <trkpt lat="43.74059" lon="3.41739">
        <ele>291.4</ele>
        <time>2017-04-12T07:49:36Z</time>
      </trkpt>
      <trkpt lat="43.74052" lon="3.41734">
        <ele>291.2</ele>
        <time>2017-04-12T07:49:38Z</time>
      </trkpt>
      <trkpt lat="43.74045" lon="3.41729">
        <ele>290.8</ele>
        <time>2017-04-12T07:49:42Z</time>
      </trkpt>
      <trkpt lat="43.74037" lon="3.4172">
        <ele>290.7</ele>
        <time>2017-04-12T07:49:45Z</time>
      </trkpt>
      <trkpt lat="43.7403" lon="3.41712">
        <ele>290.6</ele>
        <time>2017-04-12T07:49:48Z</time>
      </trkpt>
      <trkpt lat="43.74023" lon="3.41703">
        <ele>290.5</ele>
        <time>2017-04-12T07:49:50Z</time>
      </trkpt>
      <trkpt lat="43.74023" lon="3.41692">
        <ele>290.5</ele>
        <time>2017-04-12T07:49:54Z</time>
      </trkpt>
      <trkpt lat="43.74031" lon="3.41691">
        <ele>290.3</ele>
        <time>2017-04-12T07:49:57Z</time>
      </trkpt>
      <trkpt lat="43.74041" lon="3.41687">
        <ele>289.6</ele>
        <time>2017-04-12T07:50:01Z</time>
      </trkpt>
      <trkpt lat="43.74046" lon="3.41679">
        <ele>289.2</ele>
        <time>2017-04-12T07:50:04Z</time>
      </trkpt>
      <trkpt lat="43.74052" lon="3.41673">
        <ele>288.9</ele>
        <time>2017-04-12T07:50:07Z</time>
      </trkpt>
      <trkpt lat="43.7406" lon="3.41668">
        <ele>288.6</ele>
        <time>2017-04-12T07:50:11Z</time>
      </trkpt>
      <trkpt lat="43.74067" lon="3.41663">
        <ele>288.2</ele>
        <time>2017-04-12T07:50:15Z</time>
      </trkpt>
      <trkpt lat="43.74075" lon="3.41658">
        <ele>287.9</ele>
        <time>2017-04-12T07:50:18Z</time>
      </trkpt>
      <trkpt lat="43.74081" lon="3.41653">
        <ele>287.8</ele>
        <time>2017-04-12T07:50:22Z</time>
      </trkpt>
      <trkpt lat="43.74087" lon="3.41646">
        <ele>287.9</ele>
        <time>2017-04-12T07:50:25Z</time>
      </trkpt>
      <trkpt lat="43.74095" lon="3.4164">
        <ele>288</ele>
        <time>2017-04-12T07:50:31Z</time>
      </trkpt>
      <trkpt lat="43.74102" lon="3.41633">
        <ele>287.9</ele>
        <time>2017-04-12T07:50:37Z</time>
      </trkpt>
      <trkpt lat="43.74107" lon="3.41625">
        <ele>287.8</ele>
        <time>2017-04-12T07:50:41Z</time>
      </trkpt>
      <trkpt lat="43.74111" lon="3.41615">
        <ele>288.1</ele>
        <time>2017-04-12T07:50:46Z</time>
      </trkpt>
      <trkpt lat="43.7411" lon="3.41603">
        <ele>288.3</ele>
        <time>2017-04-12T07:50:51Z</time>
      </trkpt>
      <trkpt lat="43.74109" lon="3.41593">
        <ele>288.5</ele>
        <time>2017-04-12T07:50:54Z</time>
      </trkpt>
      <trkpt lat="43.74107" lon="3.41577">
        <ele>288.9</ele>
        <time>2017-04-12T07:50:57Z</time>
      </trkpt>
      <trkpt lat="43.74105" lon="3.41564">
        <ele>288.1</ele>
        <time>2017-04-12T07:50:59Z</time>
      </trkpt>
      <trkpt lat="43.74102" lon="3.41551">
        <ele>287.8</ele>
        <time>2017-04-12T07:51:01Z</time>
      </trkpt>
      <trkpt lat="43.741" lon="3.4154">
        <ele>287.9</ele>
        <time>2017-04-12T07:51:04Z</time>
      </trkpt>
      <trkpt lat="43.74102" lon="3.41528">
        <ele>288</ele>
        <time>2017-04-12T07:51:07Z</time>
      </trkpt>
      <trkpt lat="43.74103" lon="3.41518">
        <ele>288.2</ele>
        <time>2017-04-12T07:51:10Z</time>
      </trkpt>
      <trkpt lat="43.74104" lon="3.41507">
        <ele>288.4</ele>
        <time>2017-04-12T07:51:13Z</time>
      </trkpt>
      <trkpt lat="43.74106" lon="3.41494">
        <ele>288.8</ele>
        <time>2017-04-12T07:51:17Z</time>
      </trkpt>
      <trkpt lat="43.74109" lon="3.41484">
        <ele>289</ele>
        <time>2017-04-12T07:51:21Z</time>
      </trkpt>
      <trkpt lat="43.7411" lon="3.41474">
        <ele>289.2</ele>
        <time>2017-04-12T07:51:25Z</time>
      </trkpt>
      <trkpt lat="43.74113" lon="3.41463">
        <ele>289.5</ele>
        <time>2017-04-12T07:51:29Z</time>
      </trkpt>
      <trkpt lat="43.74119" lon="3.41453">
        <ele>289.5</ele>
        <time>2017-04-12T07:51:33Z</time>
      </trkpt>
      <trkpt lat="43.74126" lon="3.41448">
        <ele>289.7</ele>
        <time>2017-04-12T07:51:37Z</time>
      </trkpt>
      <trkpt lat="43.74134" lon="3.41447">
        <ele>289.9</ele>
        <time>2017-04-12T07:51:44Z</time>
      </trkpt>
      <trkpt lat="43.74139" lon="3.41457">
        <ele>290.4</ele>
        <time>2017-04-12T07:51:51Z</time>
      </trkpt>
      <trkpt lat="43.74142" lon="3.41467">
        <ele>291.4</ele>
        <time>2017-04-12T07:51:56Z</time>
      </trkpt>
      <trkpt lat="43.74142" lon="3.41469">
        <ele>293.1</ele>
        <time>2017-04-12T07:52:03Z</time>
      </trkpt>
      <trkpt lat="43.74141" lon="3.41482">
        <ele>293.5</ele>
        <time>2017-04-12T07:52:05Z</time>
      </trkpt>
      <trkpt lat="43.74142" lon="3.41493">
        <ele>294.7</ele>
        <time>2017-04-12T07:52:11Z</time>
      </trkpt>
      <trkpt lat="43.74143" lon="3.41506">
        <ele>295.8</ele>
        <time>2017-04-12T07:52:16Z</time>
      </trkpt>
      <trkpt lat="43.74144" lon="3.41518">
        <ele>296.7</ele>
        <time>2017-04-12T07:52:21Z</time>
      </trkpt>
      <trkpt lat="43.74146" lon="3.41528">
        <ele>297.7</ele>
        <time>2017-04-12T07:52:26Z</time>
      </trkpt>
      <trkpt lat="43.74149" lon="3.41539">
        <ele>298.5</ele>
        <time>2017-04-12T07:52:30Z</time>
      </trkpt>
      <trkpt lat="43.74154" lon="3.41548">
        <ele>299.3</ele>
        <time>2017-04-12T07:52:35Z</time>
      </trkpt>
      <trkpt lat="43.74157" lon="3.41548">
        <ele>300</ele>
        <time>2017-04-12T07:52:42Z</time>
      </trkpt>
      <trkpt lat="43.74157" lon="3.41532">
        <ele>300.4</ele>
        <time>2017-04-12T07:52:45Z</time>
      </trkpt>
      <trkpt lat="43.7416" lon="3.41521">
        <ele>301.3</ele>
        <time>2017-04-12T07:52:50Z</time>
      </trkpt>
      <trkpt lat="43.74163" lon="3.41511">
        <ele>302.1</ele>
        <time>2017-04-12T07:52:55Z</time>
      </trkpt>
      <trkpt lat="43.74164" lon="3.415">
        <ele>302.8</ele>
        <time>2017-04-12T07:53:00Z</time>
      </trkpt>
      <trkpt lat="43.74166" lon="3.41489">
        <ele>303.2</ele>
        <time>2017-04-12T07:53:06Z</time>
      </trkpt>
      <trkpt lat="43.74171" lon="3.4148">
        <ele>303.6</ele>
        <time>2017-04-12T07:53:11Z</time>
      </trkpt>
      <trkpt lat="43.74177" lon="3.41472">
        <ele>304.1</ele>
        <time>2017-04-12T07:53:16Z</time>
      </trkpt>
      <trkpt lat="43.74183" lon="3.41468">
        <ele>304.4</ele>
        <time>2017-04-12T07:53:20Z</time>
      </trkpt>
      <trkpt lat="43.74191" lon="3.41462">
        <ele>304.7</ele>
        <time>2017-04-12T07:53:26Z</time>
      </trkpt>
      <trkpt lat="43.74198" lon="3.41458">
        <ele>305.1</ele>
        <time>2017-04-12T07:53:31Z</time>
      </trkpt>
      <trkpt lat="43.74204" lon="3.41464">
        <ele>306.1</ele>
        <time>2017-04-12T07:53:38Z</time>
      </trkpt>
      <trkpt lat="43.7421" lon="3.41472">
        <ele>306.9</ele>
        <time>2017-04-12T07:53:43Z</time>
      </trkpt>
      <trkpt lat="43.74217" lon="3.41479">
        <ele>308.1</ele>
        <time>2017-04-12T07:53:50Z</time>
      </trkpt>
      <trkpt lat="43.74224" lon="3.41484">
        <ele>308.7</ele>
        <time>2017-04-12T07:53:54Z</time>
      </trkpt>
      <trkpt lat="43.74228" lon="3.4149">
        <ele>310.1</ele>
        <time>2017-04-12T07:54:01Z</time>
      </trkpt>
      <trkpt lat="43.7423" lon="3.415">
        <ele>311.4</ele>
        <time>2017-04-12T07:54:07Z</time>
      </trkpt>
      <trkpt lat="43.74232" lon="3.41511">
        <ele>312.4</ele>
        <time>2017-04-12T07:54:13Z</time>
      </trkpt>
      <trkpt lat="43.74228" lon="3.41524">
        <ele>313.1</ele>
        <time>2017-04-12T07:54:20Z</time>
      </trkpt>
      <trkpt lat="43.74221" lon="3.41523">
        <ele>313.3</ele>
        <time>2017-04-12T07:54:24Z</time>
      </trkpt>
      <trkpt lat="43.74213" lon="3.41522">
        <ele>313.5</ele>
        <time>2017-04-12T07:54:31Z</time>
      </trkpt>
      <trkpt lat="43.74211" lon="3.41521">
        <ele>313.3</ele>
        <time>2017-04-12T07:54:38Z</time>
      </trkpt>
      <trkpt lat="43.7421" lon="3.41519">
        <ele>314.3</ele>
        <time>2017-04-12T07:54:10Z</time>
      </trkpt>
      <trkpt lat="43.74207" lon="3.41525">
        <ele>313.1</ele>
        <time>2017-04-12T07:54:31Z</time>
      </trkpt>
      <trkpt lat="43.74201" lon="3.4153">
        <ele>313.1</ele>
        <time>2017-04-12T07:54:33Z</time>
      </trkpt>
      <trkpt lat="43.74194" lon="3.41539">
        <ele>313.1</ele>
        <time>2017-04-12T07:55:41Z</time>
      </trkpt>
      <trkpt lat="43.74185" lon="3.41546">
        <ele>313.1</ele>
        <time>2017-04-12T07:55:44Z</time>
      </trkpt>
      <trkpt lat="43.74177" lon="3.41551">
        <ele>312.5</ele>
        <time>2017-04-12T07:55:46Z</time>
      </trkpt>
      <trkpt lat="43.74171" lon="3.41555">
        <ele>311.5</ele>
        <time>2017-04-12T07:55:48Z</time>
      </trkpt>
      <trkpt lat="43.74166" lon="3.41547">
        <ele>311.3</ele>
        <time>2017-04-12T07:55:53Z</time>
      </trkpt>
      <trkpt lat="43.74168" lon="3.41534">
        <ele>311.2</ele>
        <time>2017-04-12T07:55:58Z</time>
      </trkpt>
      <trkpt lat="43.74161" lon="3.4153">
        <ele>311.2</ele>
        <time>2017-04-12T07:56:03Z</time>
      </trkpt>
      <trkpt lat="43.74159" lon="3.41541">
        <ele>311.2</ele>
        <time>2017-04-12T07:56:07Z</time>
      </trkpt>
      <trkpt lat="43.74157" lon="3.41547">
        <ele>310.9</ele>
        <time>2017-04-12T07:56:14Z</time>
      </trkpt>
      <trkpt lat="43.74154" lon="3.41536">
        <ele>310.6</ele>
        <time>2017-04-12T07:56:17Z</time>
      </trkpt>
      <trkpt lat="43.74152" lon="3.41526">
        <ele>310.3</ele>
        <time>2017-04-12T07:56:19Z</time>
      </trkpt>
      <trkpt lat="43.74149" lon="3.4151">
        <ele>307.6</ele>
        <time>2017-04-12T07:56:22Z</time>
      </trkpt>
      <trkpt lat="43.74148" lon="3.41493">
        <ele>306.9</ele>
        <time>2017-04-12T07:56:24Z</time>
      </trkpt>
      <trkpt lat="43.74146" lon="3.41479">
        <ele>306.6</ele>
        <time>2017-04-12T07:56:26Z</time>
      </trkpt>
      <trkpt lat="43.74144" lon="3.41464">
        <ele>305.6</ele>
        <time>2017-04-12T07:56:28Z</time>
      </trkpt>
      <trkpt lat="43.74138" lon="3.41455">
        <ele>304.6</ele>
        <time>2017-04-12T07:56:30Z</time>
      </trkpt>
      <trkpt lat="43.7413" lon="3.41449">
        <ele>304.3</ele>
        <time>2017-04-12T07:56:33Z</time>
      </trkpt>
      <trkpt lat="43.74121" lon="3.41453">
        <ele>304.1</ele>
        <time>2017-04-12T07:56:36Z</time>
      </trkpt>
      <trkpt lat="43.74114" lon="3.4146">
        <ele>302.1</ele>
        <time>2017-04-12T07:56:39Z</time>
      </trkpt>
      <trkpt lat="43.74111" lon="3.41472">
        <ele>299.9</ele>
        <time>2017-04-12T07:56:42Z</time>
      </trkpt>
      <trkpt lat="43.74109" lon="3.41483">
        <ele>298.7</ele>
        <time>2017-04-12T07:56:44Z</time>
      </trkpt>
      <trkpt lat="43.74107" lon="3.41494">
        <ele>297.4</ele>
        <time>2017-04-12T07:56:46Z</time>
      </trkpt>
      <trkpt lat="43.74105" lon="3.41507">
        <ele>295.9</ele>
        <time>2017-04-12T07:56:48Z</time>
      </trkpt>
      <trkpt lat="43.74102" lon="3.41522">
        <ele>294.5</ele>
        <time>2017-04-12T07:56:50Z</time>
      </trkpt>
      <trkpt lat="43.74098" lon="3.41533">
        <ele>293.5</ele>
        <time>2017-04-12T07:56:52Z</time>
      </trkpt>
      <trkpt lat="43.74097" lon="3.41545">
        <ele>292.9</ele>
        <time>2017-04-12T07:56:56Z</time>
      </trkpt>
      <trkpt lat="43.74094" lon="3.41554">
        <ele>292.7</ele>
        <time>2017-04-12T07:57:00Z</time>
      </trkpt>
      <trkpt lat="43.74089" lon="3.41564">
        <ele>292.7</ele>
        <time>2017-04-12T07:57:04Z</time>
      </trkpt>
      <trkpt lat="43.74082" lon="3.41572">
        <ele>293.2</ele>
        <time>2017-04-12T07:57:09Z</time>
      </trkpt>
      <trkpt lat="43.74075" lon="3.41576">
        <ele>293.6</ele>
        <time>2017-04-12T07:57:14Z</time>
      </trkpt>
      <trkpt lat="43.74067" lon="3.41579">
        <ele>293.8</ele>
        <time>2017-04-12T07:57:18Z</time>
      </trkpt>
      <trkpt lat="43.74058" lon="3.41582">
        <ele>294.1</ele>
        <time>2017-04-12T07:57:23Z</time>
      </trkpt>
      <trkpt lat="43.74051" lon="3.41582">
        <ele>294.5</ele>
        <time>2017-04-12T07:57:26Z</time>
      </trkpt>
      <trkpt lat="43.74042" lon="3.41581">
        <ele>294.8</ele>
        <time>2017-04-12T07:57:30Z</time>
      </trkpt>
      <trkpt lat="43.74034" lon="3.41579">
        <ele>295</ele>
        <time>2017-04-12T07:57:33Z</time>
      </trkpt>
      <trkpt lat="43.74028" lon="3.41573">
        <ele>295.5</ele>
        <time>2017-04-12T07:57:38Z</time>
      </trkpt>
      <trkpt lat="43.74023" lon="3.41565">
        <ele>296.1</ele>
        <time>2017-04-12T07:57:42Z</time>
      </trkpt>
      <trkpt lat="43.74019" lon="3.41555">
        <ele>296.9</ele>
        <time>2017-04-12T07:57:46Z</time>
      </trkpt>
      <trkpt lat="43.74015" lon="3.41545">
        <ele>297.6</ele>
        <time>2017-04-12T07:57:51Z</time>
      </trkpt>
      <trkpt lat="43.74011" lon="3.41534">
        <ele>298</ele>
        <time>2017-04-12T07:57:55Z</time>
      </trkpt>
      <trkpt lat="43.74007" lon="3.41524">
        <ele>298.5</ele>
        <time>2017-04-12T07:58:00Z</time>
      </trkpt>
      <trkpt lat="43.74005" lon="3.41514">
        <ele>298.8</ele>
        <time>2017-04-12T07:58:04Z</time>
      </trkpt>
      <trkpt lat="43.74002" lon="3.41504">
        <ele>299.3</ele>
        <time>2017-04-12T07:58:09Z</time>
      </trkpt>
      <trkpt lat="43.74" lon="3.41493">
        <ele>299.7</ele>
        <time>2017-04-12T07:58:12Z</time>
      </trkpt>
      <trkpt lat="43.73998" lon="3.41483">
        <ele>300</ele>
        <time>2017-04-12T07:58:16Z</time>
      </trkpt>
      <trkpt lat="43.74002" lon="3.4148">
        <ele>300.7</ele>
        <time>2017-04-12T07:58:23Z</time>
      </trkpt>
      <trkpt lat="43.74009" lon="3.41485">
        <ele>301.6</ele>
        <time>2017-04-12T07:58:29Z</time>
      </trkpt>
      <trkpt lat="43.74017" lon="3.41489">
        <ele>302</ele>
        <time>2017-04-12T07:58:35Z</time>
      </trkpt>
      <trkpt lat="43.74024" lon="3.41491">
        <ele>302.3</ele>
        <time>2017-04-12T07:58:39Z</time>
      </trkpt>
      <trkpt lat="43.74033" lon="3.41492">
        <ele>302.9</ele>
        <time>2017-04-12T07:58:44Z</time>
      </trkpt>
      <trkpt lat="43.74041" lon="3.41493">
        <ele>303</ele>
        <time>2017-04-12T07:58:49Z</time>
      </trkpt>
      <trkpt lat="43.74048" lon="3.41489">
        <ele>303.3</ele>
        <time>2017-04-12T07:58:54Z</time>
      </trkpt>
      <trkpt lat="43.74055" lon="3.41484">
        <ele>303.7</ele>
        <time>2017-04-12T07:58:59Z</time>
      </trkpt>
      <trkpt lat="43.74062" lon="3.41477">
        <ele>304.2</ele>
        <time>2017-04-12T07:59:04Z</time>
      </trkpt>
      <trkpt lat="43.74068" lon="3.41471">
        <ele>304.5</ele>
        <time>2017-04-12T07:59:09Z</time>
      </trkpt>
      <trkpt lat="43.74074" lon="3.41463">
        <ele>304.9</ele>
        <time>2017-04-12T07:59:14Z</time>
      </trkpt>
      <trkpt lat="43.74078" lon="3.41453">
        <ele>305.9</ele>
        <time>2017-04-12T07:59:20Z</time>
      </trkpt>
      <trkpt lat="43.74079" lon="3.41443">
        <ele>306.9</ele>
        <time>2017-04-12T07:59:25Z</time>
      </trkpt>
      <trkpt lat="43.74079" lon="3.41431">
        <ele>307.9</ele>
        <time>2017-04-12T07:59:31Z</time>
      </trkpt>
      <trkpt lat="43.74079" lon="3.41419">
        <ele>308.8</ele>
        <time>2017-04-12T07:59:37Z</time>
      </trkpt>
      <trkpt lat="43.74076" lon="3.41409">
        <ele>309.2</ele>
        <time>2017-04-12T07:59:42Z</time>
      </trkpt>
      <trkpt lat="43.74073" lon="3.41399">
        <ele>310</ele>
        <time>2017-04-12T07:59:47Z</time>
      </trkpt>
      <trkpt lat="43.74069" lon="3.41391">
        <ele>310.7</ele>
        <time>2017-04-12T07:59:52Z</time>
      </trkpt>
      <trkpt lat="43.74062" lon="3.41386">
        <ele>311.3</ele>
        <time>2017-04-12T07:59:57Z</time>
      </trkpt>
      <trkpt lat="43.74056" lon="3.41377">
        <ele>311.9</ele>
        <time>2017-04-12T08:00:01Z</time>
      </trkpt>
      <trkpt lat="43.74053" lon="3.41368">
        <ele>312.6</ele>
        <time>2017-04-12T08:00:05Z</time>
      </trkpt>
      <trkpt lat="43.74051" lon="3.41357">
        <ele>313.5</ele>
        <time>2017-04-12T08:00:10Z</time>
      </trkpt>
      <trkpt lat="43.74044" lon="3.4135">
        <ele>313.8</ele>
        <time>2017-04-12T08:00:13Z</time>
      </trkpt>
      <trkpt lat="43.74037" lon="3.41345">
        <ele>313.9</ele>
        <time>2017-04-12T08:00:16Z</time>
      </trkpt>
      <trkpt lat="43.7403" lon="3.41342">
        <ele>314.1</ele>
        <time>2017-04-12T08:00:19Z</time>
      </trkpt>
      <trkpt lat="43.74023" lon="3.41337">
        <ele>314.3</ele>
        <time>2017-04-12T08:00:22Z</time>
      </trkpt>
      <trkpt lat="43.74015" lon="3.41331">
        <ele>314.5</ele>
        <time>2017-04-12T08:00:26Z</time>
      </trkpt>
      <trkpt lat="43.74008" lon="3.41325">
        <ele>314.8</ele>
        <time>2017-04-12T08:00:31Z</time>
      </trkpt>
      <trkpt lat="43.74003" lon="3.41316">
        <ele>315.4</ele>
        <time>2017-04-12T08:00:36Z</time>
      </trkpt>
      <trkpt lat="43.73997" lon="3.41307">
        <ele>316.1</ele>
        <time>2017-04-12T08:00:41Z</time>
      </trkpt>
      <trkpt lat="43.73989" lon="3.41302">
        <ele>316.5</ele>
        <time>2017-04-12T08:00:45Z</time>
      </trkpt>
      <trkpt lat="43.73982" lon="3.41296">
        <ele>317</ele>
        <time>2017-04-12T08:00:49Z</time>
      </trkpt>
      <trkpt lat="43.73975" lon="3.41291">
        <ele>317.4</ele>
        <time>2017-04-12T08:00:53Z</time>
      </trkpt>
      <trkpt lat="43.73969" lon="3.41286">
        <ele>317.8</ele>
        <time>2017-04-12T08:00:57Z</time>
      </trkpt>
      <trkpt lat="43.73963" lon="3.41278">
        <ele>318.2</ele>
        <time>2017-04-12T08:01:01Z</time>
      </trkpt>
      <trkpt lat="43.73961" lon="3.41268">
        <ele>318.7</ele>
        <time>2017-04-12T08:01:05Z</time>
      </trkpt>
      <trkpt lat="43.73957" lon="3.41259">
        <ele>319.5</ele>
        <time>2017-04-12T08:01:10Z</time>
      </trkpt>
      <trkpt lat="43.73952" lon="3.4125">
        <ele>320.2</ele>
        <time>2017-04-12T08:01:14Z</time>
      </trkpt>
      <trkpt lat="43.73945" lon="3.41241">
        <ele>320.7</ele>
        <time>2017-04-12T08:01:19Z</time>
      </trkpt>
      <trkpt lat="43.73941" lon="3.41232">
        <ele>321.1</ele>
        <time>2017-04-12T08:01:23Z</time>
      </trkpt>
      <trkpt lat="43.7394" lon="3.41221">
        <ele>321.4</ele>
        <time>2017-04-12T08:01:27Z</time>
      </trkpt>
      <trkpt lat="43.73936" lon="3.4121">
        <ele>321.6</ele>
        <time>2017-04-12T08:01:31Z</time>
      </trkpt>
      <trkpt lat="43.73933" lon="3.412">
        <ele>322.6</ele>
        <time>2017-04-12T08:01:37Z</time>
      </trkpt>
      <trkpt lat="43.7393" lon="3.4119">
        <ele>323.5</ele>
        <time>2017-04-12T08:01:42Z</time>
      </trkpt>
      <trkpt lat="43.73926" lon="3.4118">
        <ele>324.6</ele>
        <time>2017-04-12T08:01:47Z</time>
      </trkpt>
      <trkpt lat="43.73923" lon="3.41171">
        <ele>325.4</ele>
        <time>2017-04-12T08:01:51Z</time>
      </trkpt>
      <trkpt lat="43.73922" lon="3.41159">
        <ele>326.8</ele>
        <time>2017-04-12T08:01:57Z</time>
      </trkpt>
      <trkpt lat="43.73923" lon="3.41148">
        <ele>328</ele>
        <time>2017-04-12T08:02:03Z</time>
      </trkpt>
      <trkpt lat="43.73921" lon="3.41139">
        <ele>329.3</ele>
        <time>2017-04-12T08:02:08Z</time>
      </trkpt>
      <trkpt lat="43.73917" lon="3.41129">
        <ele>330.2</ele>
        <time>2017-04-12T08:02:12Z</time>
      </trkpt>
      <trkpt lat="43.73915" lon="3.4112">
        <ele>330.9</ele>
        <time>2017-04-12T08:02:16Z</time>
      </trkpt>
      <trkpt lat="43.73915" lon="3.41113">
        <ele>333.1</ele>
        <time>2017-04-12T08:02:30Z</time>
      </trkpt>
      <trkpt lat="43.73913" lon="3.4111">
        <ele>334.4</ele>
        <time>2017-04-12T08:02:37Z</time>
      </trkpt>
      <trkpt lat="43.73913" lon="3.41105">
        <ele>335.3</ele>
        <time>2017-04-12T08:02:44Z</time>
      </trkpt>
      <trkpt lat="43.73917" lon="3.41101">
        <ele>336.4</ele>
        <time>2017-04-12T08:02:51Z</time>
      </trkpt>
      <trkpt lat="43.73924" lon="3.41097">
        <ele>338.9</ele>
        <time>2017-04-12T08:03:05Z</time>
      </trkpt>
      <trkpt lat="43.73934" lon="3.41096">
        <ele>343.6</ele>
        <time>2017-04-12T08:03:38Z</time>
      </trkpt>
      <trkpt lat="43.73942" lon="3.41099">
        <ele>345.1</ele>
        <time>2017-04-12T08:03:44Z</time>
      </trkpt>
      <trkpt lat="43.73948" lon="3.41101">
        <ele>346.4</ele>
        <time>2017-04-12T08:03:51Z</time>
      </trkpt>
      <trkpt lat="43.73951" lon="3.41102">
        <ele>347</ele>
        <time>2017-04-12T08:03:58Z</time>
      </trkpt>
      <trkpt lat="43.73958" lon="3.41102">
        <ele>348.2</ele>
        <time>2017-04-12T08:04:12Z</time>
      </trkpt>
      <trkpt lat="43.73962" lon="3.41102">
        <ele>350</ele>
        <time>2017-04-12T08:04:19Z</time>
      </trkpt>
      <trkpt lat="43.73968" lon="3.41103">
        <ele>351.7</ele>
        <time>2017-04-12T08:04:26Z</time>
      </trkpt>
      <trkpt lat="43.73973" lon="3.41101">
        <ele>353</ele>
        <time>2017-04-12T08:04:33Z</time>
      </trkpt>
      <trkpt lat="43.7398" lon="3.41102">
        <ele>355.5</ele>
        <time>2017-04-12T08:04:47Z</time>
      </trkpt>
      <trkpt lat="43.73987" lon="3.41103">
        <ele>357</ele>
        <time>2017-04-12T08:04:54Z</time>
      </trkpt>
      <trkpt lat="43.73991" lon="3.41103">
        <ele>358.9</ele>
        <time>2017-04-12T08:05:01Z</time>
      </trkpt>
      <trkpt lat="43.73996" lon="3.41104">
        <ele>360</ele>
        <time>2017-04-12T08:05:08Z</time>
      </trkpt>
      <trkpt lat="43.74003" lon="3.41104">
        <ele>360.9</ele>
        <time>2017-04-12T08:05:15Z</time>
      </trkpt>
      <trkpt lat="43.74011" lon="3.41105">
        <ele>361.5</ele>
        <time>2017-04-12T08:05:20Z</time>
      </trkpt>
      <trkpt lat="43.74014" lon="3.41098">
        <ele>362.2</ele>
        <time>2017-04-12T08:05:27Z</time>
      </trkpt>
      <trkpt lat="43.74011" lon="3.4109">
        <ele>363.1</ele>
        <time>2017-04-12T08:05:34Z</time>
      </trkpt>
      <trkpt lat="43.74007" lon="3.41087">
        <ele>363.6</ele>
        <time>2017-04-12T08:05:41Z</time>
      </trkpt>
      <trkpt lat="43.74" lon="3.41082">
        <ele>364.1</ele>
        <time>2017-04-12T08:05:48Z</time>
      </trkpt>
      <trkpt lat="43.73992" lon="3.41077">
        <ele>365.1</ele>
        <time>2017-04-12T08:05:52Z</time>
      </trkpt>
      <trkpt lat="43.73984" lon="3.4107">
        <ele>365.6</ele>
        <time>2017-04-12T08:05:55Z</time>
      </trkpt>
      <trkpt lat="43.73979" lon="3.41059">
        <ele>366</ele>
        <time>2017-04-12T08:05:58Z</time>
      </trkpt>
      <trkpt lat="43.73979" lon="3.41047">
        <ele>367.8</ele>
        <time>2017-04-12T08:06:12Z</time>
      </trkpt>
      <trkpt lat="43.73984" lon="3.41045">
        <ele>369.2</ele>
        <time>2017-04-12T08:06:19Z</time>
      </trkpt>
      <trkpt lat="43.73987" lon="3.41044">
        <ele>370.1</ele>
        <time>2017-04-12T08:06:26Z</time>
      </trkpt>
      <trkpt lat="43.73995" lon="3.41045">
        <ele>372.4</ele>
        <time>2017-04-12T08:06:40Z</time>
      </trkpt>
      <trkpt lat="43.74002" lon="3.41049">
        <ele>374.1</ele>
        <time>2017-04-12T08:06:47Z</time>
      </trkpt>
      <trkpt lat="43.74008" lon="3.41051">
        <ele>375.8</ele>
        <time>2017-04-12T08:06:54Z</time>
      </trkpt>
      <trkpt lat="43.74014" lon="3.41051">
        <ele>376.8</ele>
        <time>2017-04-12T08:07:01Z</time>
      </trkpt>
      <trkpt lat="43.74022" lon="3.41052">
        <ele>377.5</ele>
        <time>2017-04-12T08:07:08Z</time>
      </trkpt>
      <trkpt lat="43.74026" lon="3.41053">
        <ele>378.2</ele>
        <time>2017-04-12T08:07:15Z</time>
      </trkpt>
      <trkpt lat="43.7403" lon="3.41055">
        <ele>379.3</ele>
        <time>2017-04-12T08:07:22Z</time>
      </trkpt>
      <trkpt lat="43.74034" lon="3.41057">
        <ele>380.5</ele>
        <time>2017-04-12T08:07:29Z</time>
      </trkpt>
      <trkpt lat="43.74041" lon="3.41059">
        <ele>381.5</ele>
        <time>2017-04-12T08:07:35Z</time>
      </trkpt>
      <trkpt lat="43.74038" lon="3.41051">
        <ele>382.5</ele>
        <time>2017-04-12T08:07:49Z</time>
      </trkpt>
      <trkpt lat="43.74034" lon="3.41041">
        <ele>383.5</ele>
        <time>2017-04-12T08:08:02Z</time>
      </trkpt>
      <trkpt lat="43.74027" lon="3.41034">
        <ele>384</ele>
        <time>2017-04-12T08:08:07Z</time>
      </trkpt>
      <trkpt lat="43.74022" lon="3.41028">
        <ele>384.7</ele>
        <time>2017-04-12T08:08:12Z</time>
      </trkpt>
      <trkpt lat="43.74016" lon="3.4102">
        <ele>385.4</ele>
        <time>2017-04-12T08:08:17Z</time>
      </trkpt>
      <trkpt lat="43.74011" lon="3.41012">
        <ele>386</ele>
        <time>2017-04-12T08:08:22Z</time>
      </trkpt>
      <trkpt lat="43.74011" lon="3.41002">
        <ele>386.9</ele>
        <time>2017-04-12T08:08:27Z</time>
      </trkpt>
      <trkpt lat="43.74016" lon="3.41002">
        <ele>388.8</ele>
        <time>2017-04-12T08:08:34Z</time>
      </trkpt>
      <trkpt lat="43.74023" lon="3.41007">
        <ele>390.3</ele>
        <time>2017-04-12T08:08:40Z</time>
      </trkpt>
      <trkpt lat="43.74029" lon="3.4101">
        <ele>392</ele>
        <time>2017-04-12T08:08:47Z</time>
      </trkpt>
      <trkpt lat="43.74037" lon="3.41012">
        <ele>392.9</ele>
        <time>2017-04-12T08:08:51Z</time>
      </trkpt>
      <trkpt lat="43.74044" lon="3.41016">
        <ele>393.9</ele>
        <time>2017-04-12T08:08:55Z</time>
      </trkpt>
      <trkpt lat="43.74045" lon="3.41008">
        <ele>395.2</ele>
        <time>2017-04-12T08:09:02Z</time>
      </trkpt>
      <trkpt lat="43.74043" lon="3.40999">
        <ele>396.1</ele>
        <time>2017-04-12T08:09:08Z</time>
      </trkpt>
      <trkpt lat="43.7404" lon="3.40987">
        <ele>397.1</ele>
        <time>2017-04-12T08:09:15Z</time>
      </trkpt>
      <trkpt lat="43.74037" lon="3.40981">
        <ele>398.2</ele>
        <time>2017-04-12T08:09:22Z</time>
      </trkpt>
      <trkpt lat="43.74037" lon="3.40981">
        <ele>399.4</ele>
        <time>2017-04-12T08:09:29Z</time>
      </trkpt>
      <trkpt lat="43.74036" lon="3.40978">
        <ele>400.2</ele>
        <time>2017-04-12T08:09:41Z</time>
      </trkpt>
      <trkpt lat="43.74035" lon="3.40968">
        <ele>402</ele>
        <time>2017-04-12T08:10:01Z</time>
      </trkpt>
      <trkpt lat="43.74036" lon="3.40954">
        <ele>403</ele>
        <time>2017-04-12T08:10:09Z</time>
      </trkpt>
      <trkpt lat="43.7404" lon="3.40944">
        <ele>403.4</ele>
        <time>2017-04-12T08:10:13Z</time>
      </trkpt>
      <trkpt lat="43.74044" lon="3.40936">
        <ele>403.7</ele>
        <time>2017-04-12T08:10:17Z</time>
      </trkpt>
      <trkpt lat="43.74043" lon="3.40926">
        <ele>404.1</ele>
        <time>2017-04-12T08:10:21Z</time>
      </trkpt>
      <trkpt lat="43.74037" lon="3.40918">
        <ele>404.3</ele>
        <time>2017-04-12T08:10:28Z</time>
      </trkpt>
      <trkpt lat="43.74034" lon="3.40908">
        <ele>404.5</ele>
        <time>2017-04-12T08:10:34Z</time>
      </trkpt>
      <trkpt lat="43.74031" lon="3.40899">
        <ele>404.9</ele>
        <time>2017-04-12T08:10:39Z</time>
      </trkpt>
      <trkpt lat="43.74025" lon="3.40889">
        <ele>405.9</ele>
        <time>2017-04-12T08:10:46Z</time>
      </trkpt>
      <trkpt lat="43.7402" lon="3.40882">
        <ele>406.1</ele>
        <time>2017-04-12T08:10:50Z</time>
      </trkpt>
      <trkpt lat="43.74014" lon="3.40875">
        <ele>406.3</ele>
        <time>2017-04-12T08:10:54Z</time>
      </trkpt>
      <trkpt lat="43.74009" lon="3.40867">
        <ele>406.6</ele>
        <time>2017-04-12T08:10:58Z</time>
      </trkpt>
      <trkpt lat="43.74003" lon="3.4086">
        <ele>406.9</ele>
        <time>2017-04-12T08:11:02Z</time>
      </trkpt>
      <trkpt lat="43.74" lon="3.40849">
        <ele>407.4</ele>
        <time>2017-04-12T08:11:07Z</time>
      </trkpt>
      <trkpt lat="43.74" lon="3.40839">
        <ele>408</ele>
        <time>2017-04-12T08:11:14Z</time>
      </trkpt>
      <trkpt lat="43.74002" lon="3.4083">
        <ele>408.5</ele>
        <time>2017-04-12T08:11:21Z</time>
      </trkpt>
      <trkpt lat="43.74002" lon="3.40828">
        <ele>409.3</ele>
        <time>2017-04-12T08:11:28Z</time>
      </trkpt>
      <trkpt lat="43.74003" lon="3.40829">
        <ele>409.4</ele>
        <time>2017-04-12T08:11:42Z</time>
      </trkpt>
      <trkpt lat="43.74005" lon="3.40816">
        <ele>409.8</ele>
        <time>2017-04-12T08:11:46Z</time>
      </trkpt>
      <trkpt lat="43.74006" lon="3.40805">
        <ele>410</ele>
        <time>2017-04-12T08:11:49Z</time>
      </trkpt>
      <trkpt lat="43.74006" lon="3.40795">
        <ele>410.4</ele>
        <time>2017-04-12T08:11:52Z</time>
      </trkpt>
      <trkpt lat="43.74006" lon="3.40784">
        <ele>411.1</ele>
        <time>2017-04-12T08:11:57Z</time>
      </trkpt>
      <trkpt lat="43.74006" lon="3.40773">
        <ele>411.6</ele>
        <time>2017-04-12T08:12:00Z</time>
      </trkpt>
      <trkpt lat="43.74006" lon="3.40762">
        <ele>412.1</ele>
        <time>2017-04-12T08:12:04Z</time>
      </trkpt>
      <trkpt lat="43.74005" lon="3.40752">
        <ele>412.4</ele>
        <time>2017-04-12T08:12:08Z</time>
      </trkpt>
      <trkpt lat="43.74005" lon="3.40742">
        <ele>412.6</ele>
        <time>2017-04-12T08:12:12Z</time>
      </trkpt>
      <trkpt lat="43.74006" lon="3.40732">
        <ele>412.7</ele>
        <time>2017-04-12T08:12:16Z</time>
      </trkpt>
      <trkpt lat="43.7401" lon="3.40722">
        <ele>412.9</ele>
        <time>2017-04-12T08:12:20Z</time>
      </trkpt>
      <trkpt lat="43.74014" lon="3.4071">
        <ele>413.1</ele>
        <time>2017-04-12T08:12:24Z</time>
      </trkpt>
      <trkpt lat="43.74017" lon="3.40699">
        <ele>413.4</ele>
        <time>2017-04-12T08:12:28Z</time>
      </trkpt>
      <trkpt lat="43.74019" lon="3.40688">
        <ele>413.5</ele>
        <time>2017-04-12T08:12:32Z</time>
      </trkpt>
      <trkpt lat="43.74021" lon="3.40679">
        <ele>413.6</ele>
        <time>2017-04-12T08:12:35Z</time>
      </trkpt>
      <trkpt lat="43.74022" lon="3.40667">
        <ele>413.6</ele>
        <time>2017-04-12T08:12:39Z</time>
      </trkpt>
      <trkpt lat="43.74021" lon="3.40656">
        <ele>413.7</ele>
        <time>2017-04-12T08:12:43Z</time>
      </trkpt>
      <trkpt lat="43.74018" lon="3.40645">
        <ele>414</ele>
        <time>2017-04-12T08:12:48Z</time>
      </trkpt>
      <trkpt lat="43.74014" lon="3.40634">
        <ele>414</ele>
        <time>2017-04-12T08:12:52Z</time>
      </trkpt>
      <trkpt lat="43.74011" lon="3.40623">
        <ele>414.1</ele>
        <time>2017-04-12T08:12:57Z</time>
      </trkpt>
      <trkpt lat="43.74008" lon="3.40611">
        <ele>414.7</ele>
        <time>2017-04-12T08:13:02Z</time>
      </trkpt>
      <trkpt lat="43.74004" lon="3.40603">
        <ele>415.1</ele>
        <time>2017-04-12T08:13:07Z</time>
      </trkpt>
      <trkpt lat="43.73998" lon="3.40595">
        <ele>415.4</ele>
        <time>2017-04-12T08:13:11Z</time>
      </trkpt>
      <trkpt lat="43.73992" lon="3.40586">
        <ele>415.6</ele>
        <time>2017-04-12T08:13:15Z</time>
      </trkpt>
      <trkpt lat="43.73986" lon="3.40577">
        <ele>415.8</ele>
        <time>2017-04-12T08:13:19Z</time>
      </trkpt>
      <trkpt lat="43.73979" lon="3.40571">
        <ele>415.9</ele>
        <time>2017-04-12T08:13:22Z</time>
      </trkpt>
      <trkpt lat="43.73973" lon="3.40562">
        <ele>416.1</ele>
        <time>2017-04-12T08:13:26Z</time>
      </trkpt>
      <trkpt lat="43.73967" lon="3.40554">
        <ele>416.3</ele>
        <time>2017-04-12T08:13:30Z</time>
      </trkpt>
      <trkpt lat="43.73961" lon="3.40546">
        <ele>416.3</ele>
        <time>2017-04-12T08:13:34Z</time>
      </trkpt>
      <trkpt lat="43.73954" lon="3.40537">
        <ele>416.5</ele>
        <time>2017-04-12T08:13:38Z</time>
      </trkpt>
      <trkpt lat="43.73946" lon="3.40528">
        <ele>416.7</ele>
        <time>2017-04-12T08:13:42Z</time>
      </trkpt>
      <trkpt lat="43.73941" lon="3.40521">
        <ele>416.7</ele>
        <time>2017-04-12T08:13:45Z</time>
      </trkpt>
      <trkpt lat="43.73935" lon="3.40514">
        <ele>416.6</ele>
        <time>2017-04-12T08:13:48Z</time>
      </trkpt>
      <trkpt lat="43.73929" lon="3.40505">
        <ele>416.8</ele>
        <time>2017-04-12T08:13:52Z</time>
      </trkpt>
      <trkpt lat="43.73924" lon="3.40496">
        <ele>417.2</ele>
        <time>2017-04-12T08:13:56Z</time>
      </trkpt>
      <trkpt lat="43.73918" lon="3.40488">
        <ele>417.8</ele>
        <time>2017-04-12T08:14:00Z</time>
      </trkpt>
      <trkpt lat="43.73913" lon="3.40481">
        <ele>418.1</ele>
        <time>2017-04-12T08:14:03Z</time>
      </trkpt>
      <trkpt lat="43.73907" lon="3.40474">
        <ele>418.4</ele>
        <time>2017-04-12T08:14:06Z</time>
      </trkpt>
      <trkpt lat="43.73901" lon="3.40465">
        <ele>418.7</ele>
        <time>2017-04-12T08:14:10Z</time>
      </trkpt>
      <trkpt lat="43.73895" lon="3.40455">
        <ele>419.3</ele>
        <time>2017-04-12T08:14:14Z</time>
      </trkpt>
      <trkpt lat="43.73889" lon="3.40447">
        <ele>420.1</ele>
        <time>2017-04-12T08:14:18Z</time>
      </trkpt>
      <trkpt lat="43.73884" lon="3.40438">
        <ele>421</ele>
        <time>2017-04-12T08:14:22Z</time>
      </trkpt>
      <trkpt lat="43.73878" lon="3.40429">
        <ele>422</ele>
        <time>2017-04-12T08:14:26Z</time>
      </trkpt>
      <trkpt lat="43.73871" lon="3.40422">
        <ele>422.8</ele>
        <time>2017-04-12T08:14:30Z</time>
      </trkpt>
      <trkpt lat="43.73865" lon="3.40415">
        <ele>423.5</ele>
        <time>2017-04-12T08:14:33Z</time>
      </trkpt>
      <trkpt lat="43.73859" lon="3.40409">
        <ele>424</ele>
        <time>2017-04-12T08:14:37Z</time>
      </trkpt>
      <trkpt lat="43.73853" lon="3.404">
        <ele>424.5</ele>
        <time>2017-04-12T08:14:41Z</time>
      </trkpt>
      <trkpt lat="43.73847" lon="3.40392">
        <ele>425.2</ele>
        <time>2017-04-12T08:14:45Z</time>
      </trkpt>
      <trkpt lat="43.7384" lon="3.40386">
        <ele>425.6</ele>
        <time>2017-04-12T08:14:49Z</time>
      </trkpt>
      <trkpt lat="43.73834" lon="3.40378">
        <ele>426</ele>
        <time>2017-04-12T08:14:54Z</time>
      </trkpt>
      <trkpt lat="43.73829" lon="3.4037">
        <ele>426.5</ele>
        <time>2017-04-12T08:14:58Z</time>
      </trkpt>
      <trkpt lat="43.73823" lon="3.40361">
        <ele>427</ele>
        <time>2017-04-12T08:15:02Z</time>
      </trkpt>
      <trkpt lat="43.73818" lon="3.4035">
        <ele>427.6</ele>
        <time>2017-04-12T08:15:05Z</time>
      </trkpt>
      <trkpt lat="43.73814" lon="3.40341">
        <ele>428.6</ele>
        <time>2017-04-12T08:15:10Z</time>
      </trkpt>
      <trkpt lat="43.7381" lon="3.40333">
        <ele>429.4</ele>
        <time>2017-04-12T08:15:14Z</time>
      </trkpt>
      <trkpt lat="43.73806" lon="3.40325">
        <ele>430.1</ele>
        <time>2017-04-12T08:15:18Z</time>
      </trkpt>
      <trkpt lat="43.73801" lon="3.40318">
        <ele>430.5</ele>
        <time>2017-04-12T08:15:22Z</time>
      </trkpt>
      <trkpt lat="43.73793" lon="3.40314">
        <ele>430.7</ele>
        <time>2017-04-12T08:15:26Z</time>
      </trkpt>
      <trkpt lat="43.73785" lon="3.40311">
        <ele>431.1</ele>
        <time>2017-04-12T08:15:32Z</time>
      </trkpt>
      <trkpt lat="43.73784" lon="3.40308">
        <ele>431.7</ele>
        <time>2017-04-12T08:15:39Z</time>
      </trkpt>
      <trkpt lat="43.73787" lon="3.40311">
        <ele>432.8</ele>
        <time>2017-04-12T08:15:46Z</time>
      </trkpt>
      <trkpt lat="43.73797" lon="3.40314">
        <ele>433.3</ele>
        <time>2017-04-12T08:15:51Z</time>
      </trkpt>
      <trkpt lat="43.73803" lon="3.40321">
        <ele>433.5</ele>
        <time>2017-04-12T08:15:56Z</time>
      </trkpt>
      <trkpt lat="43.73806" lon="3.40331">
        <ele>433.7</ele>
        <time>2017-04-12T08:16:01Z</time>
      </trkpt>
      <trkpt lat="43.7381" lon="3.4034">
        <ele>433.8</ele>
        <time>2017-04-12T08:16:06Z</time>
      </trkpt>
      <trkpt lat="43.73814" lon="3.40346">
        <ele>434.3</ele>
        <time>2017-04-12T08:16:13Z</time>
      </trkpt>
      <trkpt lat="43.73819" lon="3.40353">
        <ele>434.6</ele>
        <time>2017-04-12T08:16:20Z</time>
      </trkpt>
      <trkpt lat="43.73823" lon="3.40361">
        <ele>434.9</ele>
        <time>2017-04-12T08:16:26Z</time>
      </trkpt>
      <trkpt lat="43.73829" lon="3.4037">
        <ele>435.2</ele>
        <time>2017-04-12T08:16:31Z</time>
      </trkpt>
      <trkpt lat="43.73834" lon="3.40376">
        <ele>435</ele>
        <time>2017-04-12T08:16:38Z</time>
      </trkpt>
      <trkpt lat="43.73834" lon="3.40379">
        <ele>434.1</ele>
        <time>2017-04-12T08:16:45Z</time>
      </trkpt>
      <trkpt lat="43.73834" lon="3.40379">
        <ele>433.8</ele>
        <time>2017-04-12T08:16:56Z</time>
      </trkpt>
      <trkpt lat="43.7383" lon="3.40387">
        <ele>434.1</ele>
        <time>2017-04-12T08:17:03Z</time>
      </trkpt>
      <trkpt lat="43.73823" lon="3.40393">
        <ele>434.1</ele>
        <time>2017-04-12T08:17:09Z</time>
      </trkpt>
      <trkpt lat="43.73816" lon="3.40397">
        <ele>434.2</ele>
        <time>2017-04-12T08:17:14Z</time>
      </trkpt>
      <trkpt lat="43.7381" lon="3.40402">
        <ele>434.1</ele>
        <time>2017-04-12T08:17:21Z</time>
      </trkpt>
      <trkpt lat="43.7381" lon="3.40406">
        <ele>434.3</ele>
        <time>2017-04-12T08:17:28Z</time>
      </trkpt>
      <trkpt lat="43.73804" lon="3.40409">
        <ele>434.3</ele>
        <time>2017-04-12T08:17:35Z</time>
      </trkpt>
      <trkpt lat="43.73798" lon="3.40417">
        <ele>434.9</ele>
        <time>2017-04-12T08:17:42Z</time>
      </trkpt>
      <trkpt lat="43.73794" lon="3.40428">
        <ele>436.1</ele>
        <time>2017-04-12T08:17:49Z</time>
      </trkpt>
      <trkpt lat="43.73789" lon="3.40436">
        <ele>437</ele>
        <time>2017-04-12T08:17:55Z</time>
      </trkpt>
      <trkpt lat="43.73782" lon="3.40438">
        <ele>437.9</ele>
        <time>2017-04-12T08:18:02Z</time>
      </trkpt>
      <trkpt lat="43.73778" lon="3.4043">
        <ele>438.9</ele>
        <time>2017-04-12T08:18:07Z</time>
      </trkpt>
      <trkpt lat="43.73773" lon="3.40421">
        <ele>440.1</ele>
        <time>2017-04-12T08:18:14Z</time>
      </trkpt>
      <trkpt lat="43.73768" lon="3.40412">
        <ele>440.8</ele>
        <time>2017-04-12T08:18:19Z</time>
      </trkpt>
      <trkpt lat="43.73765" lon="3.40411">
        <ele>441.7</ele>
        <time>2017-04-12T08:18:26Z</time>
      </trkpt>
      <trkpt lat="43.73761" lon="3.40409">
        <ele>442.7</ele>
        <time>2017-04-12T08:18:33Z</time>
      </trkpt>
      <trkpt lat="43.73757" lon="3.40411">
        <ele>443.9</ele>
        <time>2017-04-12T08:18:40Z</time>
      </trkpt>
      <trkpt lat="43.73753" lon="3.40413">
        <ele>445.3</ele>
        <time>2017-04-12T08:18:47Z</time>
      </trkpt>
      <trkpt lat="43.7375" lon="3.40416">
        <ele>446.2</ele>
        <time>2017-04-12T08:18:54Z</time>
      </trkpt>
      <trkpt lat="43.73747" lon="3.40418">
        <ele>447.6</ele>
        <time>2017-04-12T08:19:01Z</time>
      </trkpt>
      <trkpt lat="43.73741" lon="3.4042">
        <ele>448.7</ele>
        <time>2017-04-12T08:19:08Z</time>
      </trkpt>
      <trkpt lat="43.73737" lon="3.40417">
        <ele>450</ele>
        <time>2017-04-12T08:19:15Z</time>
      </trkpt>
      <trkpt lat="43.73729" lon="3.40416">
        <ele>450.5</ele>
        <time>2017-04-12T08:19:19Z</time>
      </trkpt>
      <trkpt lat="43.7372" lon="3.40418">
        <ele>451.1</ele>
        <time>2017-04-12T08:19:24Z</time>
      </trkpt>
      <trkpt lat="43.73713" lon="3.40421">
        <ele>451.4</ele>
        <time>2017-04-12T08:19:28Z</time>
      </trkpt>
      <trkpt lat="43.73708" lon="3.4043">
        <ele>451.7</ele>
        <time>2017-04-12T08:19:33Z</time>
      </trkpt>
      <trkpt lat="43.73701" lon="3.40437">
        <ele>451.9</ele>
        <time>2017-04-12T08:19:38Z</time>
      </trkpt>
      <trkpt lat="43.73698" lon="3.40451">
        <ele>451.8</ele>
        <time>2017-04-12T08:19:41Z</time>
      </trkpt>
      <trkpt lat="43.73693" lon="3.4046">
        <ele>451.8</ele>
        <time>2017-04-12T08:19:45Z</time>
      </trkpt>
      <trkpt lat="43.73688" lon="3.40467">
        <ele>451.9</ele>
        <time>2017-04-12T08:19:50Z</time>
      </trkpt>
      <trkpt lat="43.73685" lon="3.40476">
        <ele>452.4</ele>
        <time>2017-04-12T08:19:54Z</time>
      </trkpt>
      <trkpt lat="43.73689" lon="3.40484">
        <ele>452.9</ele>
        <time>2017-04-12T08:19:59Z</time>
      </trkpt>
      <trkpt lat="43.73692" lon="3.40495">
        <ele>453.6</ele>
        <time>2017-04-12T08:20:04Z</time>
      </trkpt>
      <trkpt lat="43.73693" lon="3.40507">
        <ele>453.8</ele>
        <time>2017-04-12T08:20:07Z</time>
      </trkpt>
      <trkpt lat="43.73684" lon="3.40516">
        <ele>453.8</ele>
        <time>2017-04-12T08:20:19Z</time>
      </trkpt>
      <trkpt lat="43.73679" lon="3.40523">
        <ele>454</ele>
        <time>2017-04-12T08:20:24Z</time>
      </trkpt>
      <trkpt lat="43.73671" lon="3.40525">
        <ele>454.3</ele>
        <time>2017-04-12T08:20:29Z</time>
      </trkpt>
      <trkpt lat="43.73668" lon="3.40535">
        <ele>454.5</ele>
        <time>2017-04-12T08:20:34Z</time>
      </trkpt>
      <trkpt lat="43.73664" lon="3.40544">
        <ele>454.8</ele>
        <time>2017-04-12T08:20:39Z</time>
      </trkpt>
      <trkpt lat="43.73659" lon="3.40553">
        <ele>455</ele>
        <time>2017-04-12T08:20:43Z</time>
      </trkpt>
      <trkpt lat="43.73651" lon="3.40555">
        <ele>455.1</ele>
        <time>2017-04-12T08:20:47Z</time>
      </trkpt>
      <trkpt lat="43.73644" lon="3.40553">
        <ele>455.2</ele>
        <time>2017-04-12T08:20:51Z</time>
      </trkpt>
      <trkpt lat="43.73637" lon="3.40555">
        <ele>455.3</ele>
        <time>2017-04-12T08:20:55Z</time>
      </trkpt>
      <trkpt lat="43.73635" lon="3.40566">
        <ele>455.7</ele>
        <time>2017-04-12T08:21:00Z</time>
      </trkpt>
      <trkpt lat="43.73627" lon="3.40572">
        <ele>455.7</ele>
        <time>2017-04-12T08:21:04Z</time>
      </trkpt>
      <trkpt lat="43.7362" lon="3.40576">
        <ele>455.7</ele>
        <time>2017-04-12T08:21:07Z</time>
      </trkpt>
      <trkpt lat="43.73614" lon="3.40583">
        <ele>455.6</ele>
        <time>2017-04-12T08:21:10Z</time>
      </trkpt>
      <trkpt lat="43.73608" lon="3.40588">
        <ele>455.6</ele>
        <time>2017-04-12T08:21:14Z</time>
      </trkpt>
      <trkpt lat="43.73606" lon="3.40588">
        <ele>455.3</ele>
        <time>2017-04-12T08:21:21Z</time>
      </trkpt>
      <trkpt lat="43.73604" lon="3.40589">
        <ele>455.6</ele>
        <time>2017-04-12T08:21:39Z</time>
      </trkpt>
      <trkpt lat="43.736" lon="3.40591">
        <ele>455</ele>
        <time>2017-04-12T08:21:59Z</time>
      </trkpt>
      <trkpt lat="43.73592" lon="3.40594">
        <ele>454.9</ele>
        <time>2017-04-12T08:22:03Z</time>
      </trkpt>
      <trkpt lat="43.73584" lon="3.40593">
        <ele>454.9</ele>
        <time>2017-04-12T08:22:06Z</time>
      </trkpt>
      <trkpt lat="43.73576" lon="3.40595">
        <ele>454.9</ele>
        <time>2017-04-12T08:22:10Z</time>
      </trkpt>
      <trkpt lat="43.73567" lon="3.40596">
        <ele>454.7</ele>
        <time>2017-04-12T08:22:13Z</time>
      </trkpt>
      <trkpt lat="43.73564" lon="3.40599">
        <ele>454.8</ele>
        <time>2017-04-12T08:22:20Z</time>
      </trkpt>
      <trkpt lat="43.73557" lon="3.40597">
        <ele>454</ele>
        <time>2017-04-12T08:22:49Z</time>
      </trkpt>
      <trkpt lat="43.73548" lon="3.40597">
        <ele>454.1</ele>
        <time>2017-04-12T08:22:52Z</time>
      </trkpt>
      <trkpt lat="43.73542" lon="3.40603">
        <ele>454</ele>
        <time>2017-04-12T08:22:56Z</time>
      </trkpt>
      <trkpt lat="43.73536" lon="3.4061">
        <ele>454</ele>
        <time>2017-04-12T08:23:01Z</time>
      </trkpt>
      <trkpt lat="43.7353" lon="3.40617">
        <ele>454.1</ele>
        <time>2017-04-12T08:23:04Z</time>
      </trkpt>
      <trkpt lat="43.73523" lon="3.40624">
        <ele>454</ele>
        <time>2017-04-12T08:23:08Z</time>
      </trkpt>
      <trkpt lat="43.73516" lon="3.40628">
        <ele>453.8</ele>
        <time>2017-04-12T08:23:11Z</time>
      </trkpt>
      <trkpt lat="43.73509" lon="3.40629">
        <ele>452.9</ele>
        <time>2017-04-12T08:23:18Z</time>
      </trkpt>
      <trkpt lat="43.73502" lon="3.40632">
        <ele>451.8</ele>
        <time>2017-04-12T08:23:25Z</time>
      </trkpt>
      <trkpt lat="43.73496" lon="3.40634">
        <ele>451.2</ele>
        <time>2017-04-12T08:23:32Z</time>
      </trkpt>
      <trkpt lat="43.73503" lon="3.40633">
        <ele>449.8</ele>
        <time>2017-04-12T08:24:17Z</time>
      </trkpt>
      <trkpt lat="43.73504" lon="3.40632">
        <ele>449.9</ele>
        <time>2017-04-12T08:24:24Z</time>
      </trkpt>
      <trkpt lat="43.73504" lon="3.40629">
        <ele>449.9</ele>
        <time>2017-04-12T08:24:34Z</time>
      </trkpt>
      <trkpt lat="43.73502" lon="3.40617">
        <ele>449.9</ele>
        <time>2017-04-12T08:24:39Z</time>
      </trkpt>
      <trkpt lat="43.73502" lon="3.40606">
        <ele>449.9</ele>
        <time>2017-04-12T08:24:43Z</time>
      </trkpt>
      <trkpt lat="43.73503" lon="3.40597">
        <ele>449.2</ele>
        <time>2017-04-12T08:24:50Z</time>
      </trkpt>
      <trkpt lat="43.73504" lon="3.40594">
        <ele>448.9</ele>
        <time>2017-04-12T08:24:57Z</time>
      </trkpt>
      <trkpt lat="43.73503" lon="3.40594">
        <ele>448.4</ele>
        <time>2017-04-12T08:25:04Z</time>
      </trkpt>
      <trkpt lat="43.73503" lon="3.40601">
        <ele>447.9</ele>
        <time>2017-04-12T08:25:19Z</time>
      </trkpt>
      <trkpt lat="43.73502" lon="3.40606">
        <ele>447.9</ele>
        <time>2017-04-12T08:25:26Z</time>
      </trkpt>
      <trkpt lat="43.73501" lon="3.40613">
        <ele>448.2</ele>
        <time>2017-04-12T08:25:33Z</time>
      </trkpt>
      <trkpt lat="43.73501" lon="3.40624">
        <ele>448.4</ele>
        <time>2017-04-12T08:25:40Z</time>
      </trkpt>
      <trkpt lat="43.73504" lon="3.40629">
        <ele>448.2</ele>
        <time>2017-04-12T08:25:47Z</time>
      </trkpt>
      <trkpt lat="43.73508" lon="3.40629">
        <ele>448.5</ele>
        <time>2017-04-12T08:25:54Z</time>
      </trkpt>
      <trkpt lat="43.73512" lon="3.40626">
        <ele>448.6</ele>
        <time>2017-04-12T08:26:11Z</time>
      </trkpt>
      <trkpt lat="43.73519" lon="3.40621">
        <ele>448.6</ele>
        <time>2017-04-12T08:26:17Z</time>
      </trkpt>
      <trkpt lat="43.73525" lon="3.40615">
        <ele>448.9</ele>
        <time>2017-04-12T08:26:22Z</time>
      </trkpt>
      <trkpt lat="43.73532" lon="3.40609">
        <ele>449.5</ele>
        <time>2017-04-12T08:26:29Z</time>
      </trkpt>
      <trkpt lat="43.7354" lon="3.40607">
        <ele>449.8</ele>
        <time>2017-04-12T08:26:34Z</time>
      </trkpt>
      <trkpt lat="43.73548" lon="3.40609">
        <ele>450.4</ele>
        <time>2017-04-12T08:26:40Z</time>
      </trkpt>
      <trkpt lat="43.73555" lon="3.40606">
        <ele>450.9</ele>
        <time>2017-04-12T08:26:47Z</time>
      </trkpt>
      <trkpt lat="43.73562" lon="3.40604">
        <ele>452.1</ele>
        <time>2017-04-12T08:27:01Z</time>
      </trkpt>
      <trkpt lat="43.73564" lon="3.40601">
        <ele>452.3</ele>
        <time>2017-04-12T08:27:08Z</time>
      </trkpt>
      <trkpt lat="43.73568" lon="3.40598">
        <ele>452.7</ele>
        <time>2017-04-12T08:27:15Z</time>
      </trkpt>
      <trkpt lat="43.73575" lon="3.40597">
        <ele>453.4</ele>
        <time>2017-04-12T08:27:22Z</time>
      </trkpt>
      <trkpt lat="43.73582" lon="3.40594">
        <ele>453.7</ele>
        <time>2017-04-12T08:27:29Z</time>
      </trkpt>
      <trkpt lat="43.7359" lon="3.40591">
        <ele>454</ele>
        <time>2017-04-12T08:27:34Z</time>
      </trkpt>
      <trkpt lat="43.73597" lon="3.40589">
        <ele>454.3</ele>
        <time>2017-04-12T08:27:40Z</time>
      </trkpt>
      <trkpt lat="43.73605" lon="3.40588">
        <ele>454.8</ele>
        <time>2017-04-12T08:27:46Z</time>
      </trkpt>
      <trkpt lat="43.73612" lon="3.40585">
        <ele>455.2</ele>
        <time>2017-04-12T08:27:52Z</time>
      </trkpt>
      <trkpt lat="43.73617" lon="3.40577">
        <ele>455</ele>
        <time>2017-04-12T08:27:59Z</time>
      </trkpt>
      <trkpt lat="43.73623" lon="3.40571">
        <ele>454.6</ele>
        <time>2017-04-12T08:28:06Z</time>
      </trkpt>
      <trkpt lat="43.7363" lon="3.40568">
        <ele>454.6</ele>
        <time>2017-04-12T08:28:12Z</time>
      </trkpt>
      <trkpt lat="43.73633" lon="3.40559">
        <ele>454.5</ele>
        <time>2017-04-12T08:28:18Z</time>
      </trkpt>
      <trkpt lat="43.7364" lon="3.40553">
        <ele>454.6</ele>
        <time>2017-04-12T08:28:24Z</time>
      </trkpt>
      <trkpt lat="43.73648" lon="3.40553">
        <ele>454.6</ele>
        <time>2017-04-12T08:28:30Z</time>
      </trkpt>
      <trkpt lat="43.73657" lon="3.40552">
        <ele>454.5</ele>
        <time>2017-04-12T08:28:35Z</time>
      </trkpt>
      <trkpt lat="43.7366" lon="3.40548">
        <ele>454.5</ele>
        <time>2017-04-12T08:28:42Z</time>
      </trkpt>
      <trkpt lat="43.73655" lon="3.40553">
        <ele>454.3</ele>
        <time>2017-04-12T08:28:56Z</time>
      </trkpt>
      <trkpt lat="43.73647" lon="3.40555">
        <ele>454.2</ele>
        <time>2017-04-12T08:29:00Z</time>
      </trkpt>
      <trkpt lat="43.7364" lon="3.40551">
        <ele>454</ele>
        <time>2017-04-12T08:29:04Z</time>
      </trkpt>
      <trkpt lat="43.73634" lon="3.40556">
        <ele>454.2</ele>
        <time>2017-04-12T08:29:09Z</time>
      </trkpt>
      <trkpt lat="43.73628" lon="3.40567">
        <ele>454.3</ele>
        <time>2017-04-12T08:29:14Z</time>
      </trkpt>
      <trkpt lat="43.73621" lon="3.40573">
        <ele>454.1</ele>
        <time>2017-04-12T08:29:19Z</time>
      </trkpt>
      <trkpt lat="43.73614" lon="3.40579">
        <ele>454</ele>
        <time>2017-04-12T08:29:23Z</time>
      </trkpt>
      <trkpt lat="43.73608" lon="3.40586">
        <ele>453.8</ele>
        <time>2017-04-12T08:29:27Z</time>
      </trkpt>
      <trkpt lat="43.736" lon="3.40589">
        <ele>453.9</ele>
        <time>2017-04-12T08:29:31Z</time>
      </trkpt>
      <trkpt lat="43.73592" lon="3.40591">
        <ele>453.7</ele>
        <time>2017-04-12T08:29:35Z</time>
      </trkpt>
      <trkpt lat="43.73583" lon="3.40592">
        <ele>453.7</ele>
        <time>2017-04-12T08:29:40Z</time>
      </trkpt>
      <trkpt lat="43.73576" lon="3.40595">
        <ele>453.8</ele>
        <time>2017-04-12T08:29:44Z</time>
      </trkpt>
      <trkpt lat="43.73568" lon="3.40596">
        <ele>453.9</ele>
        <time>2017-04-12T08:29:50Z</time>
      </trkpt>
      <trkpt lat="43.7356" lon="3.40597">
        <ele>453.7</ele>
        <time>2017-04-12T08:29:55Z</time>
      </trkpt>
      <trkpt lat="43.73552" lon="3.40596">
        <ele>453.5</ele>
        <time>2017-04-12T08:29:58Z</time>
      </trkpt>
      <trkpt lat="43.73544" lon="3.40599">
        <ele>453.2</ele>
        <time>2017-04-12T08:30:03Z</time>
      </trkpt>
      <trkpt lat="43.7354" lon="3.40608">
        <ele>453</ele>
        <time>2017-04-12T08:30:08Z</time>
      </trkpt>
      <trkpt lat="43.73533" lon="3.40614">
        <ele>453</ele>
        <time>2017-04-12T08:30:14Z</time>
      </trkpt>
      <trkpt lat="43.73526" lon="3.4062">
        <ele>452.7</ele>
        <time>2017-04-12T08:30:19Z</time>
      </trkpt>
      <trkpt lat="43.73519" lon="3.40624">
        <ele>452.6</ele>
        <time>2017-04-12T08:30:23Z</time>
      </trkpt>
      <trkpt lat="43.73512" lon="3.40628">
        <ele>452.4</ele>
        <time>2017-04-12T08:30:28Z</time>
      </trkpt>
      <trkpt lat="43.73507" lon="3.40631">
        <ele>451.7</ele>
        <time>2017-04-12T08:30:35Z</time>
      </trkpt>
      <trkpt lat="43.73504" lon="3.40628">
        <ele>451</ele>
        <time>2017-04-12T08:30:42Z</time>
      </trkpt>
      <trkpt lat="43.73502" lon="3.40618">
        <ele>450.5</ele>
        <time>2017-04-12T08:30:47Z</time>
      </trkpt>
      <trkpt lat="43.73503" lon="3.40608">
        <ele>450.4</ele>
        <time>2017-04-12T08:30:52Z</time>
      </trkpt>
      <trkpt lat="43.73503" lon="3.40606">
        <ele>450.4</ele>
        <time>2017-04-12T08:30:59Z</time>
      </trkpt>
      <trkpt lat="43.73495" lon="3.40608">
        <ele>450</ele>
        <time>2017-04-12T08:31:08Z</time>
      </trkpt>
      <trkpt lat="43.73487" lon="3.4061">
        <ele>449.6</ele>
        <time>2017-04-12T08:31:11Z</time>
      </trkpt>
      <trkpt lat="43.73479" lon="3.40611">
        <ele>449.3</ele>
        <time>2017-04-12T08:31:13Z</time>
      </trkpt>
      <trkpt lat="43.7347" lon="3.40616">
        <ele>448.7</ele>
        <time>2017-04-12T08:31:16Z</time>
      </trkpt>
      <trkpt lat="43.73463" lon="3.40619">
        <ele>444.9</ele>
        <time>2017-04-12T08:31:18Z</time>
      </trkpt>
      <trkpt lat="43.73455" lon="3.40621">
        <ele>443.1</ele>
        <time>2017-04-12T08:31:20Z</time>
      </trkpt>
      <trkpt lat="43.73447" lon="3.40622">
        <ele>442.7</ele>
        <time>2017-04-12T08:31:23Z</time>
      </trkpt>
      <trkpt lat="43.73438" lon="3.40625">
        <ele>442.2</ele>
        <time>2017-04-12T08:31:26Z</time>
      </trkpt>
      <trkpt lat="43.73433" lon="3.40626">
        <ele>441.3</ele>
        <time>2017-04-12T08:31:33Z</time>
      </trkpt>
      <trkpt lat="43.73433" lon="3.40625">
        <ele>439.6</ele>
        <time>2017-04-12T08:31:58Z</time>
      </trkpt>
      <trkpt lat="43.73438" lon="3.40624">
        <ele>439.5</ele>
        <time>2017-04-12T08:32:05Z</time>
      </trkpt>
      <trkpt lat="43.73446" lon="3.40622">
        <ele>439.3</ele>
        <time>2017-04-12T08:32:08Z</time>
      </trkpt>
      <trkpt lat="43.73454" lon="3.40622">
        <ele>439.3</ele>
        <time>2017-04-12T08:32:12Z</time>
      </trkpt>
      <trkpt lat="43.73461" lon="3.40618">
        <ele>439.3</ele>
        <time>2017-04-12T08:32:15Z</time>
      </trkpt>
      <trkpt lat="43.73469" lon="3.40616">
        <ele>439.4</ele>
        <time>2017-04-12T08:32:18Z</time>
      </trkpt>
      <trkpt lat="43.73477" lon="3.40611">
        <ele>439.4</ele>
        <time>2017-04-12T08:32:21Z</time>
      </trkpt>
      <trkpt lat="43.73484" lon="3.4061">
        <ele>439.4</ele>
        <time>2017-04-12T08:32:24Z</time>
      </trkpt>
      <trkpt lat="43.73491" lon="3.40608">
        <ele>439.5</ele>
        <time>2017-04-12T08:32:28Z</time>
      </trkpt>
      <trkpt lat="43.73497" lon="3.40604">
        <ele>440</ele>
        <time>2017-04-12T08:32:35Z</time>
      </trkpt>
      <trkpt lat="43.735" lon="3.40602">
        <ele>440.1</ele>
        <time>2017-04-12T08:32:42Z</time>
      </trkpt>
      <trkpt lat="43.735" lon="3.40598">
        <ele>441</ele>
        <time>2017-04-12T08:33:28Z</time>
      </trkpt>
      <trkpt lat="43.73503" lon="3.40596">
        <ele>442.1</ele>
        <time>2017-04-12T08:33:35Z</time>
      </trkpt>
      <trkpt lat="43.73505" lon="3.40596">
        <ele>443.3</ele>
        <time>2017-04-12T08:33:42Z</time>
      </trkpt>
      <trkpt lat="43.73499" lon="3.40588">
        <ele>443.4</ele>
        <time>2017-04-12T08:33:52Z</time>
      </trkpt>
      <trkpt lat="43.735" lon="3.40583">
        <ele>444</ele>
        <time>2017-04-12T08:33:59Z</time>
      </trkpt>
      <trkpt lat="43.73501" lon="3.40587">
        <ele>443.5</ele>
        <time>2017-04-12T08:34:17Z</time>
      </trkpt>
      <trkpt lat="43.73499" lon="3.40587">
        <ele>443.2</ele>
        <time>2017-04-12T08:34:24Z</time>
      </trkpt>
      <trkpt lat="43.73499" lon="3.40588">
        <ele>441.9</ele>
        <time>2017-04-12T08:34:40Z</time>
      </trkpt>
      <trkpt lat="43.73499" lon="3.40589">
        <ele>442</ele>
        <time>2017-04-12T08:34:51Z</time>
      </trkpt>
      <trkpt lat="43.73502" lon="3.40591">
        <ele>442.6</ele>
        <time>2017-04-12T08:34:58Z</time>
      </trkpt>
      <trkpt lat="43.73499" lon="3.40586">
        <ele>443.1</ele>
        <time>2017-04-12T08:35:10Z</time>
      </trkpt>
      <trkpt lat="43.73501" lon="3.4058">
        <ele>443</ele>
        <time>2017-04-12T08:35:17Z</time>
      </trkpt>
      <trkpt lat="43.73501" lon="3.40576">
        <ele>443.5</ele>
        <time>2017-04-12T08:35:24Z</time>
      </trkpt>
      <trkpt lat="43.73498" lon="3.40565">
        <ele>443.9</ele>
        <time>2017-04-12T08:35:30Z</time>
      </trkpt>
      <trkpt lat="43.73496" lon="3.40555">
        <ele>443.5</ele>
        <time>2017-04-12T08:35:35Z</time>
      </trkpt>
      <trkpt lat="43.73494" lon="3.4056">
        <ele>439.5</ele>
        <time>2017-04-12T08:36:30Z</time>
      </trkpt>
      <trkpt lat="43.73495" lon="3.40564">
        <ele>439.5</ele>
        <time>2017-04-12T08:36:37Z</time>
      </trkpt>
      <trkpt lat="43.73496" lon="3.40568">
        <ele>439.7</ele>
        <time>2017-04-12T08:36:44Z</time>
      </trkpt>
      <trkpt lat="43.73496" lon="3.40571">
        <ele>439.7</ele>
        <time>2017-04-12T08:36:51Z</time>
      </trkpt>
      <trkpt lat="43.73499" lon="3.40585">
        <ele>440.7</ele>
        <time>2017-04-12T08:37:05Z</time>
      </trkpt>
      <trkpt lat="43.73501" lon="3.40588">
        <ele>441.3</ele>
        <time>2017-04-12T08:37:12Z</time>
      </trkpt>
      <trkpt lat="43.735" lon="3.40592">
        <ele>442.1</ele>
        <time>2017-04-12T08:37:19Z</time>
      </trkpt>
      <trkpt lat="43.73499" lon="3.40599">
        <ele>442.8</ele>
        <time>2017-04-12T08:37:26Z</time>
      </trkpt>
      <trkpt lat="43.73499" lon="3.40607">
        <ele>443.4</ele>
        <time>2017-04-12T08:37:33Z</time>
      </trkpt>
      <trkpt lat="43.73497" lon="3.40616">
        <ele>444</ele>
        <time>2017-04-12T08:37:40Z</time>
      </trkpt>
      <trkpt lat="43.73497" lon="3.40623">
        <ele>444.4</ele>
        <time>2017-04-12T08:37:47Z</time>
      </trkpt>
      <trkpt lat="43.73501" lon="3.40629">
        <ele>444.9</ele>
        <time>2017-04-12T08:37:54Z</time>
      </trkpt>
      <trkpt lat="43.73495" lon="3.40632">
        <ele>445.3</ele>
        <time>2017-04-12T08:38:08Z</time>
      </trkpt>
      <trkpt lat="43.73498" lon="3.40633">
        <ele>445.2</ele>
        <time>2017-04-12T08:38:34Z</time>
      </trkpt>
      <trkpt lat="43.73504" lon="3.40629">
        <ele>445.6</ele>
        <time>2017-04-12T08:38:41Z</time>
      </trkpt>
      <trkpt lat="43.73508" lon="3.40628">
        <ele>446.2</ele>
        <time>2017-04-12T08:38:48Z</time>
      </trkpt>
      <trkpt lat="43.73514" lon="3.40629">
        <ele>447.3</ele>
        <time>2017-04-12T08:39:07Z</time>
      </trkpt>
      <trkpt lat="43.7352" lon="3.40622">
        <ele>447.8</ele>
        <time>2017-04-12T08:39:12Z</time>
      </trkpt>
      <trkpt lat="43.73526" lon="3.40615">
        <ele>448.4</ele>
        <time>2017-04-12T08:39:19Z</time>
      </trkpt>
      <trkpt lat="43.73532" lon="3.40613">
        <ele>449.2</ele>
        <time>2017-04-12T08:39:26Z</time>
      </trkpt>
      <trkpt lat="43.73535" lon="3.40611">
        <ele>449.5</ele>
        <time>2017-04-12T08:39:33Z</time>
      </trkpt>
      <trkpt lat="43.7354" lon="3.40603">
        <ele>449.8</ele>
        <time>2017-04-12T08:39:39Z</time>
      </trkpt>
      <trkpt lat="43.73543" lon="3.40597">
        <ele>450.1</ele>
        <time>2017-04-12T08:39:46Z</time>
      </trkpt>
      <trkpt lat="43.73549" lon="3.40598">
        <ele>450.6</ele>
        <time>2017-04-12T08:39:53Z</time>
      </trkpt>
      <trkpt lat="43.73555" lon="3.40597">
        <ele>451.4</ele>
        <time>2017-04-12T08:40:00Z</time>
      </trkpt>
      <trkpt lat="43.73561" lon="3.40598">
        <ele>452.2</ele>
        <time>2017-04-12T08:40:07Z</time>
      </trkpt>
      <trkpt lat="43.73565" lon="3.40597">
        <ele>452.8</ele>
        <time>2017-04-12T08:40:14Z</time>
      </trkpt>
      <trkpt lat="43.7357" lon="3.40595">
        <ele>453.2</ele>
        <time>2017-04-12T08:40:21Z</time>
      </trkpt>
      <trkpt lat="43.73576" lon="3.40595">
        <ele>453.3</ele>
        <time>2017-04-12T08:40:28Z</time>
      </trkpt>
      <trkpt lat="43.73585" lon="3.40597">
        <ele>453.7</ele>
        <time>2017-04-12T08:40:34Z</time>
      </trkpt>
      <trkpt lat="43.73591" lon="3.40594">
        <ele>454.2</ele>
        <time>2017-04-12T08:40:41Z</time>
      </trkpt>
      <trkpt lat="43.73597" lon="3.40592">
        <ele>454.7</ele>
        <time>2017-04-12T08:40:48Z</time>
      </trkpt>
      <trkpt lat="43.73601" lon="3.40591">
        <ele>455.6</ele>
        <time>2017-04-12T08:40:55Z</time>
      </trkpt>
      <trkpt lat="43.73607" lon="3.40589">
        <ele>455.9</ele>
        <time>2017-04-12T08:41:02Z</time>
      </trkpt>
      <trkpt lat="43.73599" lon="3.40588">
        <ele>455.3</ele>
        <time>2017-04-12T08:41:15Z</time>
      </trkpt>
      <trkpt lat="43.73595" lon="3.40589">
        <ele>454.8</ele>
        <time>2017-04-12T08:41:22Z</time>
      </trkpt>
      <trkpt lat="43.73592" lon="3.40589">
        <ele>453.8</ele>
        <time>2017-04-12T08:41:29Z</time>
      </trkpt>
      <trkpt lat="43.73587" lon="3.40592">
        <ele>453.2</ele>
        <time>2017-04-12T08:41:36Z</time>
      </trkpt>
      <trkpt lat="43.73584" lon="3.40591">
        <ele>453</ele>
        <time>2017-04-12T08:41:43Z</time>
      </trkpt>
      <trkpt lat="43.73581" lon="3.40591">
        <ele>453</ele>
        <time>2017-04-12T08:41:50Z</time>
      </trkpt>
      <trkpt lat="43.73577" lon="3.40592">
        <ele>453.1</ele>
        <time>2017-04-12T08:41:57Z</time>
      </trkpt>
      <trkpt lat="43.73568" lon="3.40594">
        <ele>453.3</ele>
        <time>2017-04-12T08:42:04Z</time>
      </trkpt>
      <trkpt lat="43.73563" lon="3.40597">
        <ele>453.5</ele>
        <time>2017-04-12T08:42:11Z</time>
      </trkpt>
      <trkpt lat="43.73559" lon="3.40601">
        <ele>454.2</ele>
        <time>2017-04-12T08:42:18Z</time>
      </trkpt>
      <trkpt lat="43.73554" lon="3.40604">
        <ele>454.4</ele>
        <time>2017-04-12T08:42:25Z</time>
      </trkpt>
      <trkpt lat="43.73548" lon="3.40606">
        <ele>454.2</ele>
        <time>2017-04-12T08:42:32Z</time>
      </trkpt>
      <trkpt lat="43.73541" lon="3.40607">
        <ele>453.6</ele>
        <time>2017-04-12T08:42:39Z</time>
      </trkpt>
      <trkpt lat="43.73533" lon="3.40611">
        <ele>453.3</ele>
        <time>2017-04-12T08:42:43Z</time>
      </trkpt>
      <trkpt lat="43.73527" lon="3.40618">
        <ele>453</ele>
        <time>2017-04-12T08:42:48Z</time>
      </trkpt>
      <trkpt lat="43.73522" lon="3.40627">
        <ele>452.4</ele>
        <time>2017-04-12T08:42:55Z</time>
      </trkpt>
      <trkpt lat="43.73516" lon="3.40633">
        <ele>452.2</ele>
        <time>2017-04-12T08:43:01Z</time>
      </trkpt>
      <trkpt lat="43.73511" lon="3.40634">
        <ele>451.8</ele>
        <time>2017-04-12T08:43:08Z</time>
      </trkpt>
      <trkpt lat="43.73503" lon="3.40633">
        <ele>451.7</ele>
        <time>2017-04-12T08:43:14Z</time>
      </trkpt>
      <trkpt lat="43.73495" lon="3.40632">
        <ele>451.2</ele>
        <time>2017-04-12T08:43:21Z</time>
      </trkpt>
      <trkpt lat="43.73492" lon="3.40633">
        <ele>450.3</ele>
        <time>2017-04-12T08:43:38Z</time>
      </trkpt>
      <trkpt lat="43.73486" lon="3.40634">
        <ele>448.8</ele>
        <time>2017-04-12T08:43:52Z</time>
      </trkpt>
      <trkpt lat="43.73479" lon="3.40642">
        <ele>448</ele>
        <time>2017-04-12T08:43:58Z</time>
      </trkpt>
      <trkpt lat="43.73471" lon="3.40643">
        <ele>447.6</ele>
        <time>2017-04-12T08:44:01Z</time>
      </trkpt>
      <trkpt lat="43.73464" lon="3.4064">
        <ele>446.1</ele>
        <time>2017-04-12T08:44:03Z</time>
      </trkpt>
      <trkpt lat="43.73454" lon="3.40645">
        <ele>445.8</ele>
        <time>2017-04-12T08:44:06Z</time>
      </trkpt>
      <trkpt lat="43.73446" lon="3.40643">
        <ele>445.7</ele>
        <time>2017-04-12T08:44:08Z</time>
      </trkpt>
      <trkpt lat="43.7344" lon="3.40643">
        <ele>443.1</ele>
        <time>2017-04-12T08:44:29Z</time>
      </trkpt>
      <trkpt lat="43.73435" lon="3.40645">
        <ele>442.7</ele>
        <time>2017-04-12T08:44:36Z</time>
      </trkpt>
      <trkpt lat="43.73428" lon="3.4064">
        <ele>442.5</ele>
        <time>2017-04-12T08:44:40Z</time>
      </trkpt>
      <trkpt lat="43.73421" lon="3.40641">
        <ele>442.2</ele>
        <time>2017-04-12T08:44:43Z</time>
      </trkpt>
      <trkpt lat="43.73413" lon="3.40648">
        <ele>441.8</ele>
        <time>2017-04-12T08:44:46Z</time>
      </trkpt>
      <trkpt lat="43.73409" lon="3.40638">
        <ele>441.2</ele>
        <time>2017-04-12T08:44:50Z</time>
      </trkpt>
      <trkpt lat="43.73409" lon="3.40631">
        <ele>440.5</ele>
        <time>2017-04-12T08:44:57Z</time>
      </trkpt>
      <trkpt lat="43.73411" lon="3.40633">
        <ele>437.6</ele>
        <time>2017-04-12T08:45:30Z</time>
      </trkpt>
      <trkpt lat="43.73409" lon="3.40621">
        <ele>436.4</ele>
        <time>2017-04-12T08:45:35Z</time>
      </trkpt>
      <trkpt lat="43.73411" lon="3.40607">
        <ele>436.1</ele>
        <time>2017-04-12T08:45:38Z</time>
      </trkpt>
      <trkpt lat="43.73415" lon="3.40597">
        <ele>435.8</ele>
        <time>2017-04-12T08:45:41Z</time>
      </trkpt>
      <trkpt lat="43.73416" lon="3.40588">
        <ele>434.2</ele>
        <time>2017-04-12T08:45:55Z</time>
      </trkpt>
      <trkpt lat="43.73417" lon="3.40578">
        <ele>433.9</ele>
        <time>2017-04-12T08:45:59Z</time>
      </trkpt>
      <trkpt lat="43.7342" lon="3.40568">
        <ele>433.5</ele>
        <time>2017-04-12T08:46:02Z</time>
      </trkpt>
      <trkpt lat="43.73425" lon="3.4056">
        <ele>432.3</ele>
        <time>2017-04-12T08:46:08Z</time>
      </trkpt>
      <trkpt lat="43.73431" lon="3.4056">
        <ele>427.4</ele>
        <time>2017-04-12T08:46:36Z</time>
      </trkpt>
      <trkpt lat="43.73433" lon="3.40557">
        <ele>426.7</ele>
        <time>2017-04-12T08:46:43Z</time>
      </trkpt>
      <trkpt lat="43.73435" lon="3.40548">
        <ele>426.5</ele>
        <time>2017-04-12T08:46:50Z</time>
      </trkpt>
      <trkpt lat="43.73429" lon="3.40547">
        <ele>426</ele>
        <time>2017-04-12T08:46:57Z</time>
      </trkpt>
      <trkpt lat="43.73423" lon="3.40538">
        <ele>425.3</ele>
        <time>2017-04-12T08:47:02Z</time>
      </trkpt>
      <trkpt lat="43.7342" lon="3.40529">
        <ele>424.7</ele>
        <time>2017-04-12T08:47:05Z</time>
      </trkpt>
      <trkpt lat="43.73418" lon="3.40519">
        <ele>423.6</ele>
        <time>2017-04-12T08:47:11Z</time>
      </trkpt>
      <trkpt lat="43.73418" lon="3.40509">
        <ele>422.9</ele>
        <time>2017-04-12T08:47:15Z</time>
      </trkpt>
      <trkpt lat="43.73414" lon="3.40499">
        <ele>421.6</ele>
        <time>2017-04-12T08:47:22Z</time>
      </trkpt>
      <trkpt lat="43.73407" lon="3.40492">
        <ele>420.5</ele>
        <time>2017-04-12T08:47:26Z</time>
      </trkpt>
      <trkpt lat="43.73401" lon="3.40492">
        <ele>418</ele>
        <time>2017-04-12T08:47:33Z</time>
      </trkpt>
      <trkpt lat="43.73399" lon="3.40492">
        <ele>415.8</ele>
        <time>2017-04-12T08:47:40Z</time>
      </trkpt>
      <trkpt lat="43.73391" lon="3.4049">
        <ele>413.6</ele>
        <time>2017-04-12T08:47:47Z</time>
      </trkpt>
      <trkpt lat="43.73381" lon="3.40487">
        <ele>412.3</ele>
        <time>2017-04-12T08:47:51Z</time>
      </trkpt>
      <trkpt lat="43.73374" lon="3.40492">
        <ele>411.2</ele>
        <time>2017-04-12T08:47:54Z</time>
      </trkpt>
      <trkpt lat="43.73366" lon="3.40492">
        <ele>409.6</ele>
        <time>2017-04-12T08:47:58Z</time>
      </trkpt>
      <trkpt lat="43.7336" lon="3.40494">
        <ele>406.7</ele>
        <time>2017-04-12T08:48:05Z</time>
      </trkpt>
      <trkpt lat="43.73353" lon="3.40499">
        <ele>404.8</ele>
        <time>2017-04-12T08:48:11Z</time>
      </trkpt>
      <trkpt lat="43.73345" lon="3.40502">
        <ele>403.6</ele>
        <time>2017-04-12T08:48:15Z</time>
      </trkpt>
      <trkpt lat="43.73337" lon="3.40502">
        <ele>402</ele>
        <time>2017-04-12T08:48:21Z</time>
      </trkpt>
      <trkpt lat="43.73329" lon="3.40509">
        <ele>399.4</ele>
        <time>2017-04-12T08:48:35Z</time>
      </trkpt>
      <trkpt lat="43.73321" lon="3.40511">
        <ele>397.9</ele>
        <time>2017-04-12T08:48:40Z</time>
      </trkpt>
      <trkpt lat="43.73314" lon="3.40516">
        <ele>396.7</ele>
        <time>2017-04-12T08:48:45Z</time>
      </trkpt>
      <trkpt lat="43.73307" lon="3.40514">
        <ele>395.5</ele>
        <time>2017-04-12T08:48:50Z</time>
      </trkpt>
      <trkpt lat="43.73301" lon="3.4051">
        <ele>390.1</ele>
        <time>2017-04-12T08:49:13Z</time>
      </trkpt>
      <trkpt lat="43.73293" lon="3.40506">
        <ele>388.2</ele>
        <time>2017-04-12T08:49:18Z</time>
      </trkpt>
      <trkpt lat="43.73294" lon="3.40504">
        <ele>386.7</ele>
        <time>2017-04-12T08:49:25Z</time>
      </trkpt>
      <trkpt lat="43.73301" lon="3.40497">
        <ele>386</ele>
        <time>2017-04-12T08:49:32Z</time>
      </trkpt>
      <trkpt lat="43.73308" lon="3.40494">
        <ele>385.8</ele>
        <time>2017-04-12T08:49:35Z</time>
      </trkpt>
      <trkpt lat="43.73316" lon="3.4049">
        <ele>385.6</ele>
        <time>2017-04-12T08:49:38Z</time>
      </trkpt>
      <trkpt lat="43.73324" lon="3.40487">
        <ele>385.4</ele>
        <time>2017-04-12T08:49:42Z</time>
      </trkpt>
      <trkpt lat="43.73315" lon="3.40491">
        <ele>385.1</ele>
        <time>2017-04-12T08:49:50Z</time>
      </trkpt>
      <trkpt lat="43.73308" lon="3.40496">
        <ele>384.8</ele>
        <time>2017-04-12T08:49:52Z</time>
      </trkpt>
      <trkpt lat="43.73301" lon="3.40503">
        <ele>384.5</ele>
        <time>2017-04-12T08:49:55Z</time>
      </trkpt>
      <trkpt lat="43.73298" lon="3.4051">
        <ele>383.3</ele>
        <time>2017-04-12T08:50:01Z</time>
      </trkpt>
      <trkpt lat="43.73295" lon="3.40513">
        <ele>381.4</ele>
        <time>2017-04-12T08:50:18Z</time>
      </trkpt>
      <trkpt lat="43.73288" lon="3.40515">
        <ele>380</ele>
        <time>2017-04-12T08:50:23Z</time>
      </trkpt>
      <trkpt lat="43.73279" lon="3.40521">
        <ele>378.1</ele>
        <time>2017-04-12T08:50:26Z</time>
      </trkpt>
      <trkpt lat="43.7327" lon="3.40528">
        <ele>375</ele>
        <time>2017-04-12T08:50:28Z</time>
      </trkpt>
      <trkpt lat="43.73262" lon="3.40536">
        <ele>374.3</ele>
        <time>2017-04-12T08:50:30Z</time>
      </trkpt>
      <trkpt lat="43.73252" lon="3.40544">
        <ele>373.6</ele>
        <time>2017-04-12T08:50:32Z</time>
      </trkpt>
      <trkpt lat="43.7324" lon="3.40552">
        <ele>372.3</ele>
        <time>2017-04-12T08:50:34Z</time>
      </trkpt>
      <trkpt lat="43.73234" lon="3.40556">
        <ele>371.4</ele>
        <time>2017-04-12T08:50:35Z</time>
      </trkpt>
      <trkpt lat="43.73226" lon="3.4056">
        <ele>370.2</ele>
        <time>2017-04-12T08:50:36Z</time>
      </trkpt>
      <trkpt lat="43.73219" lon="3.40563">
        <ele>368.7</ele>
        <time>2017-04-12T08:50:37Z</time>
      </trkpt>
      <trkpt lat="43.73208" lon="3.4057">
        <ele>368.3</ele>
        <time>2017-04-12T08:50:39Z</time>
      </trkpt>
      <trkpt lat="43.73196" lon="3.40576">
        <ele>368.2</ele>
        <time>2017-04-12T08:50:41Z</time>
      </trkpt>
      <trkpt lat="43.73183" lon="3.4058">
        <ele>368.9</ele>
        <time>2017-04-12T08:50:43Z</time>
      </trkpt>
      <trkpt lat="43.73175" lon="3.40582">
        <ele>368.8</ele>
        <time>2017-04-12T08:50:44Z</time>
      </trkpt>
      <trkpt lat="43.73168" lon="3.40584">
        <ele>368.6</ele>
        <time>2017-04-12T08:50:45Z</time>
      </trkpt>
      <trkpt lat="43.7316" lon="3.40586">
        <ele>368.3</ele>
        <time>2017-04-12T08:50:46Z</time>
      </trkpt>
      <trkpt lat="43.73153" lon="3.40588">
        <ele>367.7</ele>
        <time>2017-04-12T08:50:47Z</time>
      </trkpt>
      <trkpt lat="43.73145" lon="3.40588">
        <ele>366.6</ele>
        <time>2017-04-12T08:50:48Z</time>
      </trkpt>
      <trkpt lat="43.7313" lon="3.40585">
        <ele>364.4</ele>
        <time>2017-04-12T08:50:50Z</time>
      </trkpt>
      <trkpt lat="43.73122" lon="3.40583">
        <ele>363.2</ele>
        <time>2017-04-12T08:50:51Z</time>
      </trkpt>
      <trkpt lat="43.73115" lon="3.40581">
        <ele>362</ele>
        <time>2017-04-12T08:50:52Z</time>
      </trkpt>
      <trkpt lat="43.73107" lon="3.40578">
        <ele>361.5</ele>
        <time>2017-04-12T08:50:53Z</time>
      </trkpt>
      <trkpt lat="43.73101" lon="3.4057">
        <ele>361.3</ele>
        <time>2017-04-12T08:50:54Z</time>
      </trkpt>
      <trkpt lat="43.73095" lon="3.40562">
        <ele>360.9</ele>
        <time>2017-04-12T08:50:55Z</time>
      </trkpt>
      <trkpt lat="43.73089" lon="3.40554">
        <ele>360.8</ele>
        <time>2017-04-12T08:50:56Z</time>
      </trkpt>
      <trkpt lat="43.73082" lon="3.40547">
        <ele>360.4</ele>
        <time>2017-04-12T08:50:57Z</time>
      </trkpt>
      <trkpt lat="43.73074" lon="3.40539">
        <ele>359.8</ele>
        <time>2017-04-12T08:50:58Z</time>
      </trkpt>
      <trkpt lat="43.73065" lon="3.40533">
        <ele>358.5</ele>
        <time>2017-04-12T08:50:59Z</time>
      </trkpt>
      <trkpt lat="43.73055" lon="3.40529">
        <ele>356.9</ele>
        <time>2017-04-12T08:51:00Z</time>
      </trkpt>
      <trkpt lat="43.73046" lon="3.40525">
        <ele>355.3</ele>
        <time>2017-04-12T08:51:01Z</time>
      </trkpt>
      <trkpt lat="43.73036" lon="3.40522">
        <ele>353.9</ele>
        <time>2017-04-12T08:51:02Z</time>
      </trkpt>
      <trkpt lat="43.73027" lon="3.4052">
        <ele>352.6</ele>
        <time>2017-04-12T08:51:03Z</time>
      </trkpt>
      <trkpt lat="43.73018" lon="3.4052">
        <ele>351.4</ele>
        <time>2017-04-12T08:51:04Z</time>
      </trkpt>
      <trkpt lat="43.73009" lon="3.40519">
        <ele>350.4</ele>
        <time>2017-04-12T08:51:05Z</time>
      </trkpt>
      <trkpt lat="43.73" lon="3.4052">
        <ele>349.8</ele>
        <time>2017-04-12T08:51:06Z</time>
      </trkpt>
      <trkpt lat="43.72991" lon="3.40521">
        <ele>349.5</ele>
        <time>2017-04-12T08:51:07Z</time>
      </trkpt>
      <trkpt lat="43.72984" lon="3.40523">
        <ele>349.3</ele>
        <time>2017-04-12T08:51:08Z</time>
      </trkpt>
      <trkpt lat="43.72975" lon="3.40525">
        <ele>349</ele>
        <time>2017-04-12T08:51:09Z</time>
      </trkpt>
      <trkpt lat="43.72967" lon="3.40528">
        <ele>349</ele>
        <time>2017-04-12T08:51:10Z</time>
      </trkpt>
      <trkpt lat="43.72959" lon="3.40531">
        <ele>349.3</ele>
        <time>2017-04-12T08:51:11Z</time>
      </trkpt>
      <trkpt lat="43.7295" lon="3.40534">
        <ele>349.5</ele>
        <time>2017-04-12T08:51:12Z</time>
      </trkpt>
      <trkpt lat="43.72942" lon="3.40538">
        <ele>349.6</ele>
        <time>2017-04-12T08:51:13Z</time>
      </trkpt>
      <trkpt lat="43.72933" lon="3.40544">
        <ele>349.5</ele>
        <time>2017-04-12T08:51:14Z</time>
      </trkpt>
      <trkpt lat="43.72926" lon="3.40548">
        <ele>349.2</ele>
        <time>2017-04-12T08:51:15Z</time>
      </trkpt>
      <trkpt lat="43.72917" lon="3.40553">
        <ele>348.8</ele>
        <time>2017-04-12T08:51:16Z</time>
      </trkpt>
      <trkpt lat="43.72908" lon="3.40558">
        <ele>348.4</ele>
        <time>2017-04-12T08:51:17Z</time>
      </trkpt>
      <trkpt lat="43.72901" lon="3.40562">
        <ele>347.9</ele>
        <time>2017-04-12T08:51:19Z</time>
      </trkpt>
      <trkpt lat="43.72894" lon="3.40565">
        <ele>347.8</ele>
        <time>2017-04-12T08:51:19Z</time>
      </trkpt>
      <trkpt lat="43.72885" lon="3.40569">
        <ele>347.8</ele>
        <time>2017-04-12T08:51:20Z</time>
      </trkpt>
      <trkpt lat="43.72876" lon="3.40573">
        <ele>347.5</ele>
        <time>2017-04-12T08:51:21Z</time>
      </trkpt>
      <trkpt lat="43.72867" lon="3.40576">
        <ele>346.7</ele>
        <time>2017-04-12T08:51:22Z</time>
      </trkpt>
      <trkpt lat="43.72857" lon="3.40581">
        <ele>345.8</ele>
        <time>2017-04-12T08:51:23Z</time>
      </trkpt>
      <trkpt lat="43.72847" lon="3.40585">
        <ele>344.7</ele>
        <time>2017-04-12T08:51:24Z</time>
      </trkpt>
      <trkpt lat="43.72838" lon="3.40589">
        <ele>344.1</ele>
        <time>2017-04-12T08:51:25Z</time>
      </trkpt>
      <trkpt lat="43.72829" lon="3.40594">
        <ele>343.4</ele>
        <time>2017-04-12T08:51:26Z</time>
      </trkpt>
      <trkpt lat="43.72819" lon="3.40598">
        <ele>342.4</ele>
        <time>2017-04-12T08:51:27Z</time>
      </trkpt>
      <trkpt lat="43.72809" lon="3.40602">
        <ele>341.8</ele>
        <time>2017-04-12T08:51:28Z</time>
      </trkpt>
      <trkpt lat="43.728" lon="3.40606">
        <ele>341.2</ele>
        <time>2017-04-12T08:51:29Z</time>
      </trkpt>
      <trkpt lat="43.72791" lon="3.4061">
        <ele>340.6</ele>
        <time>2017-04-12T08:51:30Z</time>
      </trkpt>
      <trkpt lat="43.72782" lon="3.40613">
        <ele>339.7</ele>
        <time>2017-04-12T08:51:31Z</time>
      </trkpt>
      <trkpt lat="43.72773" lon="3.40618">
        <ele>339.7</ele>
        <time>2017-04-12T08:51:32Z</time>
      </trkpt>
      <trkpt lat="43.72764" lon="3.40619">
        <ele>338.1</ele>
        <time>2017-04-12T08:51:34Z</time>
      </trkpt>
      <trkpt lat="43.72761" lon="3.40615">
        <ele>336.9</ele>
        <time>2017-04-12T08:51:41Z</time>
      </trkpt>
      <trkpt lat="43.72758" lon="3.40622">
        <ele>334.6</ele>
        <time>2017-04-12T08:51:54Z</time>
      </trkpt>
      <trkpt lat="43.72751" lon="3.40631">
        <ele>333.9</ele>
        <time>2017-04-12T08:51:58Z</time>
      </trkpt>
      <trkpt lat="43.72739" lon="3.40638">
        <ele>333</ele>
        <time>2017-04-12T08:52:08Z</time>
      </trkpt>
      <trkpt lat="43.72731" lon="3.40644">
        <ele>332.5</ele>
        <time>2017-04-12T08:52:11Z</time>
      </trkpt>
      <trkpt lat="43.72722" lon="3.40653">
        <ele>330.7</ele>
        <time>2017-04-12T08:52:14Z</time>
      </trkpt>
      <trkpt lat="43.72713" lon="3.40663">
        <ele>328.6</ele>
        <time>2017-04-12T08:52:16Z</time>
      </trkpt>
      <trkpt lat="43.72706" lon="3.40673">
        <ele>328.4</ele>
        <time>2017-04-12T08:52:18Z</time>
      </trkpt>
      <trkpt lat="43.72697" lon="3.40677">
        <ele>328</ele>
        <time>2017-04-12T08:52:21Z</time>
      </trkpt>
      <trkpt lat="43.72686" lon="3.40678">
        <ele>324.4</ele>
        <time>2017-04-12T08:52:24Z</time>
      </trkpt>
      <trkpt lat="43.72677" lon="3.4068">
        <ele>322.9</ele>
        <time>2017-04-12T08:52:26Z</time>
      </trkpt>
      <trkpt lat="43.72671" lon="3.40688">
        <ele>322.5</ele>
        <time>2017-04-12T08:52:28Z</time>
      </trkpt>
      <trkpt lat="43.72665" lon="3.40699">
        <ele>321.8</ele>
        <time>2017-04-12T08:52:31Z</time>
      </trkpt>
      <trkpt lat="43.72659" lon="3.40706">
        <ele>321.1</ele>
        <time>2017-04-12T08:52:34Z</time>
      </trkpt>
      <trkpt lat="43.72652" lon="3.40713">
        <ele>320.4</ele>
        <time>2017-04-12T08:52:37Z</time>
      </trkpt>
      <trkpt lat="43.72649" lon="3.40723">
        <ele>319.1</ele>
        <time>2017-04-12T08:52:41Z</time>
      </trkpt>
      <trkpt lat="43.72644" lon="3.40731">
        <ele>318.2</ele>
        <time>2017-04-12T08:52:44Z</time>
      </trkpt>
      <trkpt lat="43.72639" lon="3.40742">
        <ele>317.4</ele>
        <time>2017-04-12T08:52:47Z</time>
      </trkpt>
      <trkpt lat="43.72635" lon="3.40751">
        <ele>312.7</ele>
        <time>2017-04-12T08:52:49Z</time>
      </trkpt>
      <trkpt lat="43.72629" lon="3.4076">
        <ele>310.4</ele>
        <time>2017-04-12T08:52:52Z</time>
      </trkpt>
      <trkpt lat="43.72623" lon="3.40749">
        <ele>309.4</ele>
        <time>2017-04-12T08:52:57Z</time>
      </trkpt>
      <trkpt lat="43.72623" lon="3.40738">
        <ele>308.7</ele>
        <time>2017-04-12T08:53:01Z</time>
      </trkpt>
      <trkpt lat="43.72624" lon="3.40727">
        <ele>307.9</ele>
        <time>2017-04-12T08:53:05Z</time>
      </trkpt>
      <trkpt lat="43.72623" lon="3.40716">
        <ele>307</ele>
        <time>2017-04-12T08:53:10Z</time>
      </trkpt>
      <trkpt lat="43.72623" lon="3.40715">
        <ele>306.2</ele>
        <time>2017-04-12T08:53:17Z</time>
      </trkpt>
      <trkpt lat="43.72619" lon="3.40705">
        <ele>305.9</ele>
        <time>2017-04-12T08:53:19Z</time>
      </trkpt>
      <trkpt lat="43.72617" lon="3.40692">
        <ele>305.6</ele>
        <time>2017-04-12T08:53:22Z</time>
      </trkpt>
      <trkpt lat="43.72615" lon="3.40681">
        <ele>303.7</ele>
        <time>2017-04-12T08:53:24Z</time>
      </trkpt>
      <trkpt lat="43.72608" lon="3.40674">
        <ele>302</ele>
        <time>2017-04-12T08:53:26Z</time>
      </trkpt>
      <trkpt lat="43.72599" lon="3.40681">
        <ele>299</ele>
        <time>2017-04-12T08:53:28Z</time>
      </trkpt>
      <trkpt lat="43.72588" lon="3.4069">
        <ele>297.6</ele>
        <time>2017-04-12T08:53:30Z</time>
      </trkpt>
      <trkpt lat="43.72576" lon="3.40701">
        <ele>297.5</ele>
        <time>2017-04-12T08:53:32Z</time>
      </trkpt>
      <trkpt lat="43.72571" lon="3.40707">
        <ele>297.2</ele>
        <time>2017-04-12T08:53:33Z</time>
      </trkpt>
      <trkpt lat="43.72562" lon="3.40722">
        <ele>297.1</ele>
        <time>2017-04-12T08:53:35Z</time>
      </trkpt>
      <trkpt lat="43.72554" lon="3.40734">
        <ele>296.4</ele>
        <time>2017-04-12T08:53:37Z</time>
      </trkpt>
      <trkpt lat="43.72546" lon="3.4074">
        <ele>296.2</ele>
        <time>2017-04-12T08:53:40Z</time>
      </trkpt>
      <trkpt lat="43.72545" lon="3.40741">
        <ele>295.9</ele>
        <time>2017-04-12T08:53:47Z</time>
      </trkpt>
      <trkpt lat="43.72538" lon="3.40736">
        <ele>294.2</ele>
        <time>2017-04-12T08:54:00Z</time>
      </trkpt>
      <trkpt lat="43.72531" lon="3.40727">
        <ele>293.6</ele>
        <time>2017-04-12T08:54:04Z</time>
      </trkpt>
      <trkpt lat="43.72527" lon="3.40718">
        <ele>293</ele>
        <time>2017-04-12T08:54:08Z</time>
      </trkpt>
      <trkpt lat="43.72522" lon="3.40711">
        <ele>292.7</ele>
        <time>2017-04-12T08:54:11Z</time>
      </trkpt>
      <trkpt lat="43.72514" lon="3.40716">
        <ele>291.5</ele>
        <time>2017-04-12T08:54:13Z</time>
      </trkpt>
      <trkpt lat="43.7251" lon="3.40729">
        <ele>291</ele>
        <time>2017-04-12T08:54:16Z</time>
      </trkpt>
      <trkpt lat="43.72511" lon="3.40742">
        <ele>290.9</ele>
        <time>2017-04-12T08:54:19Z</time>
      </trkpt>
      <trkpt lat="43.72516" lon="3.40754">
        <ele>289.6</ele>
        <time>2017-04-12T08:54:22Z</time>
      </trkpt>
      <trkpt lat="43.72518" lon="3.40765">
        <ele>289.3</ele>
        <time>2017-04-12T08:54:25Z</time>
      </trkpt>
      <trkpt lat="43.72519" lon="3.40769">
        <ele>289.1</ele>
        <time>2017-04-12T08:54:32Z</time>
      </trkpt>
      <trkpt lat="43.72513" lon="3.40775">
        <ele>288</ele>
        <time>2017-04-12T08:54:41Z</time>
      </trkpt>
      <trkpt lat="43.72509" lon="3.40785">
        <ele>287.2</ele>
        <time>2017-04-12T08:54:43Z</time>
      </trkpt>
      <trkpt lat="43.72506" lon="3.40796">
        <ele>284.7</ele>
        <time>2017-04-12T08:54:46Z</time>
      </trkpt>
      <trkpt lat="43.72496" lon="3.40804">
        <ele>283.4</ele>
        <time>2017-04-12T08:54:47Z</time>
      </trkpt>
      <trkpt lat="43.72487" lon="3.4081">
        <ele>281.8</ele>
        <time>2017-04-12T08:54:49Z</time>
      </trkpt>
      <trkpt lat="43.72481" lon="3.40814">
        <ele>280.5</ele>
        <time>2017-04-12T08:54:51Z</time>
      </trkpt>
      <trkpt lat="43.72472" lon="3.40822">
        <ele>280.1</ele>
        <time>2017-04-12T08:54:55Z</time>
      </trkpt>
      <trkpt lat="43.72465" lon="3.40825">
        <ele>279.3</ele>
        <time>2017-04-12T08:55:01Z</time>
      </trkpt>
      <trkpt lat="43.72457" lon="3.40829">
        <ele>277.5</ele>
        <time>2017-04-12T08:55:04Z</time>
      </trkpt>
      <trkpt lat="43.72449" lon="3.40834">
        <ele>275.1</ele>
        <time>2017-04-12T08:55:06Z</time>
      </trkpt>
      <trkpt lat="43.72441" lon="3.40839">
        <ele>273.5</ele>
        <time>2017-04-12T08:55:08Z</time>
      </trkpt>
      <trkpt lat="43.72431" lon="3.40846">
        <ele>272.9</ele>
        <time>2017-04-12T08:55:10Z</time>
      </trkpt>
      <trkpt lat="43.72422" lon="3.40852">
        <ele>272.8</ele>
        <time>2017-04-12T08:55:12Z</time>
      </trkpt>
      <trkpt lat="43.72413" lon="3.40858">
        <ele>272.3</ele>
        <time>2017-04-12T08:55:14Z</time>
      </trkpt>
      <trkpt lat="43.72402" lon="3.40864">
        <ele>272.5</ele>
        <time>2017-04-12T08:55:16Z</time>
      </trkpt>
      <trkpt lat="43.72389" lon="3.4087">
        <ele>271.7</ele>
        <time>2017-04-12T08:55:18Z</time>
      </trkpt>
      <trkpt lat="43.72377" lon="3.40877">
        <ele>271.3</ele>
        <time>2017-04-12T08:55:20Z</time>
      </trkpt>
      <trkpt lat="43.7237" lon="3.4088">
        <ele>270.4</ele>
        <time>2017-04-12T08:55:21Z</time>
      </trkpt>
      <trkpt lat="43.72356" lon="3.40886">
        <ele>269.1</ele>
        <time>2017-04-12T08:55:23Z</time>
      </trkpt>
      <trkpt lat="43.72341" lon="3.40888">
        <ele>267.4</ele>
        <time>2017-04-12T08:55:25Z</time>
      </trkpt>
      <trkpt lat="43.72334" lon="3.40887">
        <ele>266.6</ele>
        <time>2017-04-12T08:55:26Z</time>
      </trkpt>
      <trkpt lat="43.72327" lon="3.40886">
        <ele>265.6</ele>
        <time>2017-04-12T08:55:27Z</time>
      </trkpt>
      <trkpt lat="43.72319" lon="3.40884">
        <ele>265</ele>
        <time>2017-04-12T08:55:28Z</time>
      </trkpt>
      <trkpt lat="43.72312" lon="3.40882">
        <ele>264.5</ele>
        <time>2017-04-12T08:55:29Z</time>
      </trkpt>
      <trkpt lat="43.72305" lon="3.4088">
        <ele>264.2</ele>
        <time>2017-04-12T08:55:30Z</time>
      </trkpt>
      <trkpt lat="43.72293" lon="3.40878">
        <ele>262.7</ele>
        <time>2017-04-12T08:55:32Z</time>
      </trkpt>
      <trkpt lat="43.72285" lon="3.4088">
        <ele>262.4</ele>
        <time>2017-04-12T08:55:33Z</time>
      </trkpt>
      <trkpt lat="43.72276" lon="3.40881">
        <ele>261.7</ele>
        <time>2017-04-12T08:55:34Z</time>
      </trkpt>
      <trkpt lat="43.72267" lon="3.40883">
        <ele>261</ele>
        <time>2017-04-12T08:55:35Z</time>
      </trkpt>
      <trkpt lat="43.72259" lon="3.40885">
        <ele>259.8</ele>
        <time>2017-04-12T08:55:36Z</time>
      </trkpt>
      <trkpt lat="43.7225" lon="3.40888">
        <ele>259.4</ele>
        <time>2017-04-12T08:55:37Z</time>
      </trkpt>
      <trkpt lat="43.72241" lon="3.40891">
        <ele>258.4</ele>
        <time>2017-04-12T08:55:38Z</time>
      </trkpt>
      <trkpt lat="43.72233" lon="3.40894">
        <ele>257</ele>
        <time>2017-04-12T08:55:39Z</time>
      </trkpt>
      <trkpt lat="43.72226" lon="3.40897">
        <ele>255.7</ele>
        <time>2017-04-12T08:55:40Z</time>
      </trkpt>
      <trkpt lat="43.72218" lon="3.409">
        <ele>253.9</ele>
        <time>2017-04-12T08:55:41Z</time>
      </trkpt>
      <trkpt lat="43.72211" lon="3.40903">
        <ele>252.3</ele>
        <time>2017-04-12T08:55:42Z</time>
      </trkpt>
      <trkpt lat="43.72203" lon="3.40906">
        <ele>251.5</ele>
        <time>2017-04-12T08:55:43Z</time>
      </trkpt>
      <trkpt lat="43.72189" lon="3.4091">
        <ele>248.9</ele>
        <time>2017-04-12T08:55:45Z</time>
      </trkpt>
      <trkpt lat="43.72182" lon="3.40913">
        <ele>248.3</ele>
        <time>2017-04-12T08:55:46Z</time>
      </trkpt>
      <trkpt lat="43.72175" lon="3.40915">
        <ele>248.3</ele>
        <time>2017-04-12T08:55:47Z</time>
      </trkpt>
      <trkpt lat="43.72168" lon="3.40919">
        <ele>248.1</ele>
        <time>2017-04-12T08:55:48Z</time>
      </trkpt>
      <trkpt lat="43.72161" lon="3.40922">
        <ele>247.4</ele>
        <time>2017-04-12T08:55:49Z</time>
      </trkpt>
      <trkpt lat="43.72153" lon="3.40927">
        <ele>246.5</ele>
        <time>2017-04-12T08:55:50Z</time>
      </trkpt>
      <trkpt lat="43.72146" lon="3.40931">
        <ele>244.9</ele>
        <time>2017-04-12T08:55:52Z</time>
      </trkpt>
      <trkpt lat="43.72138" lon="3.40936">
        <ele>243.7</ele>
        <time>2017-04-12T08:55:52Z</time>
      </trkpt>
      <trkpt lat="43.72131" lon="3.40941">
        <ele>242.7</ele>
        <time>2017-04-12T08:55:53Z</time>
      </trkpt>
      <trkpt lat="43.72123" lon="3.40946">
        <ele>241.7</ele>
        <time>2017-04-12T08:55:54Z</time>
      </trkpt>
      <trkpt lat="43.72113" lon="3.40955">
        <ele>241.1</ele>
        <time>2017-04-12T08:55:56Z</time>
      </trkpt>
      <trkpt lat="43.72105" lon="3.40962">
        <ele>240.6</ele>
        <time>2017-04-12T08:55:58Z</time>
      </trkpt>
      <trkpt lat="43.72099" lon="3.40968">
        <ele>240.4</ele>
        <time>2017-04-12T08:56:00Z</time>
      </trkpt>
      <trkpt lat="43.7209" lon="3.40978">
        <ele>239.8</ele>
        <time>2017-04-12T08:56:03Z</time>
      </trkpt>
      <trkpt lat="43.72081" lon="3.40987">
        <ele>238.7</ele>
        <time>2017-04-12T08:56:05Z</time>
      </trkpt>
      <trkpt lat="43.72072" lon="3.40994">
        <ele>237.7</ele>
        <time>2017-04-12T08:56:07Z</time>
      </trkpt>
      <trkpt lat="43.72066" lon="3.41">
        <ele>237</ele>
        <time>2017-04-12T08:56:08Z</time>
      </trkpt>
      <trkpt lat="43.7206" lon="3.41005">
        <ele>236.5</ele>
        <time>2017-04-12T08:56:09Z</time>
      </trkpt>
      <trkpt lat="43.72054" lon="3.41012">
        <ele>235.6</ele>
        <time>2017-04-12T08:56:10Z</time>
      </trkpt>
      <trkpt lat="43.72047" lon="3.4102">
        <ele>234.7</ele>
        <time>2017-04-12T08:56:11Z</time>
      </trkpt>
      <trkpt lat="43.72041" lon="3.41029">
        <ele>233.6</ele>
        <time>2017-04-12T08:56:12Z</time>
      </trkpt>
      <trkpt lat="43.72035" lon="3.41038">
        <ele>232.7</ele>
        <time>2017-04-12T08:56:13Z</time>
      </trkpt>
      <trkpt lat="43.7203" lon="3.41046">
        <ele>231.9</ele>
        <time>2017-04-12T08:56:14Z</time>
      </trkpt>
      <trkpt lat="43.72025" lon="3.41054">
        <ele>231.5</ele>
        <time>2017-04-12T08:56:15Z</time>
      </trkpt>
      <trkpt lat="43.72014" lon="3.41069">
        <ele>230.5</ele>
        <time>2017-04-12T08:56:17Z</time>
      </trkpt>
      <trkpt lat="43.7201" lon="3.41079">
        <ele>230.2</ele>
        <time>2017-04-12T08:56:18Z</time>
      </trkpt>
      <trkpt lat="43.72006" lon="3.41089">
        <ele>229.4</ele>
        <time>2017-04-12T08:56:19Z</time>
      </trkpt>
      <trkpt lat="43.72003" lon="3.41099">
        <ele>228.7</ele>
        <time>2017-04-12T08:56:20Z</time>
      </trkpt>
      <trkpt lat="43.71999" lon="3.41108">
        <ele>228</ele>
        <time>2017-04-12T08:56:21Z</time>
      </trkpt>
      <trkpt lat="43.71995" lon="3.41118">
        <ele>227.1</ele>
        <time>2017-04-12T08:56:22Z</time>
      </trkpt>
      <trkpt lat="43.7199" lon="3.41127">
        <ele>226.3</ele>
        <time>2017-04-12T08:56:23Z</time>
      </trkpt>
      <trkpt lat="43.71981" lon="3.41142">
        <ele>224.5</ele>
        <time>2017-04-12T08:56:25Z</time>
      </trkpt>
      <trkpt lat="43.71975" lon="3.41148">
        <ele>224</ele>
        <time>2017-04-12T08:56:26Z</time>
      </trkpt>
      <trkpt lat="43.71964" lon="3.41159">
        <ele>223.1</ele>
        <time>2017-04-12T08:56:28Z</time>
      </trkpt>
      <trkpt lat="43.71954" lon="3.41169">
        <ele>223</ele>
        <time>2017-04-12T08:56:30Z</time>
      </trkpt>
      <trkpt lat="43.71946" lon="3.41179">
        <ele>222.8</ele>
        <time>2017-04-12T08:56:32Z</time>
      </trkpt>
      <trkpt lat="43.71939" lon="3.41187">
        <ele>222.7</ele>
        <time>2017-04-12T08:56:34Z</time>
      </trkpt>
      <trkpt lat="43.71933" lon="3.41196">
        <ele>222.8</ele>
        <time>2017-04-12T08:56:37Z</time>
      </trkpt>
      <trkpt lat="43.71928" lon="3.41206">
        <ele>222.7</ele>
        <time>2017-04-12T08:56:42Z</time>
      </trkpt>
      <trkpt lat="43.71921" lon="3.4121">
        <ele>222.7</ele>
        <time>2017-04-12T08:56:45Z</time>
      </trkpt>
      <trkpt lat="43.71913" lon="3.41215">
        <ele>222.6</ele>
        <time>2017-04-12T08:56:48Z</time>
      </trkpt>
      <trkpt lat="43.71906" lon="3.4122">
        <ele>222.4</ele>
        <time>2017-04-12T08:56:50Z</time>
      </trkpt>
      <trkpt lat="43.71899" lon="3.41224">
        <ele>220.8</ele>
        <time>2017-04-12T08:56:52Z</time>
      </trkpt>
      <trkpt lat="43.71891" lon="3.41227">
        <ele>218.8</ele>
        <time>2017-04-12T08:56:54Z</time>
      </trkpt>
      <trkpt lat="43.71883" lon="3.41229">
        <ele>218.1</ele>
        <time>2017-04-12T08:56:56Z</time>
      </trkpt>
      <trkpt lat="43.71875" lon="3.41232">
        <ele>217.6</ele>
        <time>2017-04-12T08:56:58Z</time>
      </trkpt>
      <trkpt lat="43.71867" lon="3.41233">
        <ele>216.7</ele>
        <time>2017-04-12T08:57:00Z</time>
      </trkpt>
      <trkpt lat="43.71857" lon="3.41233">
        <ele>215.6</ele>
        <time>2017-04-12T08:57:02Z</time>
      </trkpt>
      <trkpt lat="43.71849" lon="3.41233">
        <ele>215.2</ele>
        <time>2017-04-12T08:57:04Z</time>
      </trkpt>
      <trkpt lat="43.7184" lon="3.41236">
        <ele>215.2</ele>
        <time>2017-04-12T08:57:06Z</time>
      </trkpt>
      <trkpt lat="43.7183" lon="3.41243">
        <ele>216.2</ele>
        <time>2017-04-12T08:57:09Z</time>
      </trkpt>
      <trkpt lat="43.71821" lon="3.4125">
        <ele>216.5</ele>
        <time>2017-04-12T08:57:11Z</time>
      </trkpt>
      <trkpt lat="43.71811" lon="3.41255">
        <ele>216</ele>
        <time>2017-04-12T08:57:13Z</time>
      </trkpt>
      <trkpt lat="43.718" lon="3.41259">
        <ele>215.1</ele>
        <time>2017-04-12T08:57:15Z</time>
      </trkpt>
      <trkpt lat="43.71791" lon="3.41259">
        <ele>215.1</ele>
        <time>2017-04-12T08:57:18Z</time>
      </trkpt>
      <trkpt lat="43.71784" lon="3.41261">
        <ele>215.1</ele>
        <time>2017-04-12T08:57:21Z</time>
      </trkpt>
      <trkpt lat="43.71777" lon="3.41265">
        <ele>215.4</ele>
        <time>2017-04-12T08:57:23Z</time>
      </trkpt>
      <trkpt lat="43.71769" lon="3.41271">
        <ele>216.1</ele>
        <time>2017-04-12T08:57:27Z</time>
      </trkpt>
      <trkpt lat="43.71761" lon="3.41276">
        <ele>216.6</ele>
        <time>2017-04-12T08:57:30Z</time>
      </trkpt>
      <trkpt lat="43.71752" lon="3.41282">
        <ele>217.4</ele>
        <time>2017-04-12T08:57:34Z</time>
      </trkpt>
      <trkpt lat="43.71743" lon="3.41287">
        <ele>217.7</ele>
        <time>2017-04-12T08:57:37Z</time>
      </trkpt>
      <trkpt lat="43.71734" lon="3.41291">
        <ele>217.9</ele>
        <time>2017-04-12T08:57:40Z</time>
      </trkpt>
      <trkpt lat="43.71726" lon="3.41293">
        <ele>218.3</ele>
        <time>2017-04-12T08:57:43Z</time>
      </trkpt>
      <trkpt lat="43.71717" lon="3.41293">
        <ele>218.8</ele>
        <time>2017-04-12T08:57:46Z</time>
      </trkpt>
      <trkpt lat="43.71707" lon="3.41291">
        <ele>220</ele>
        <time>2017-04-12T08:57:48Z</time>
      </trkpt>
      <trkpt lat="43.71695" lon="3.41292">
        <ele>220.6</ele>
        <time>2017-04-12T08:57:50Z</time>
      </trkpt>
      <trkpt lat="43.71684" lon="3.41295">
        <ele>221.1</ele>
        <time>2017-04-12T08:57:52Z</time>
      </trkpt>
      <trkpt lat="43.71674" lon="3.413">
        <ele>221.8</ele>
        <time>2017-04-12T08:57:54Z</time>
      </trkpt>
      <trkpt lat="43.71664" lon="3.41304">
        <ele>220.6</ele>
        <time>2017-04-12T08:57:56Z</time>
      </trkpt>
      <trkpt lat="43.7165" lon="3.41307">
        <ele>218.9</ele>
        <time>2017-04-12T08:57:58Z</time>
      </trkpt>
      <trkpt lat="43.71637" lon="3.41309">
        <ele>217.6</ele>
        <time>2017-04-12T08:58:00Z</time>
      </trkpt>
      <trkpt lat="43.71623" lon="3.41311">
        <ele>216.7</ele>
        <time>2017-04-12T08:58:02Z</time>
      </trkpt>
      <trkpt lat="43.71616" lon="3.41312">
        <ele>216.3</ele>
        <time>2017-04-12T08:58:04Z</time>
      </trkpt>
      <trkpt lat="43.71603" lon="3.4131">
        <ele>215.8</ele>
        <time>2017-04-12T08:58:05Z</time>
      </trkpt>
      <trkpt lat="43.71591" lon="3.41309">
        <ele>215</ele>
        <time>2017-04-12T08:58:07Z</time>
      </trkpt>
      <trkpt lat="43.71581" lon="3.41307">
        <ele>214.5</ele>
        <time>2017-04-12T08:58:09Z</time>
      </trkpt>
      <trkpt lat="43.71572" lon="3.41306">
        <ele>215.2</ele>
        <time>2017-04-12T08:58:11Z</time>
      </trkpt>
      <trkpt lat="43.71562" lon="3.41306">
        <ele>214.7</ele>
        <time>2017-04-12T08:58:13Z</time>
      </trkpt>
      <trkpt lat="43.71554" lon="3.41307">
        <ele>214.4</ele>
        <time>2017-04-12T08:58:14Z</time>
      </trkpt>
      <trkpt lat="43.71542" lon="3.41308">
        <ele>214</ele>
        <time>2017-04-12T08:58:16Z</time>
      </trkpt>
      <trkpt lat="43.71532" lon="3.41307">
        <ele>214.1</ele>
        <time>2017-04-12T08:58:18Z</time>
      </trkpt>
      <trkpt lat="43.71523" lon="3.41303">
        <ele>213.4</ele>
        <time>2017-04-12T08:58:20Z</time>
      </trkpt>
      <trkpt lat="43.71515" lon="3.41297">
        <ele>213.1</ele>
        <time>2017-04-12T08:58:22Z</time>
      </trkpt>
      <trkpt lat="43.71505" lon="3.41291">
        <ele>212.9</ele>
        <time>2017-04-12T08:58:24Z</time>
      </trkpt>
      <trkpt lat="43.71496" lon="3.41287">
        <ele>213.4</ele>
        <time>2017-04-12T08:58:26Z</time>
      </trkpt>
      <trkpt lat="43.71485" lon="3.41285">
        <ele>213.6</ele>
        <time>2017-04-12T08:58:28Z</time>
      </trkpt>
      <trkpt lat="43.71477" lon="3.41283">
        <ele>214.2</ele>
        <time>2017-04-12T08:58:30Z</time>
      </trkpt>
      <trkpt lat="43.71468" lon="3.41282">
        <ele>213.9</ele>
        <time>2017-04-12T08:58:32Z</time>
      </trkpt>
      <trkpt lat="43.71457" lon="3.41281">
        <ele>214</ele>
        <time>2017-04-12T08:58:34Z</time>
      </trkpt>
      <trkpt lat="43.71446" lon="3.4128">
        <ele>214.1</ele>
        <time>2017-04-12T08:58:36Z</time>
      </trkpt>
      <trkpt lat="43.71436" lon="3.41281">
        <ele>214.4</ele>
        <time>2017-04-12T08:58:38Z</time>
      </trkpt>
      <trkpt lat="43.71426" lon="3.41279">
        <ele>214.1</ele>
        <time>2017-04-12T08:58:40Z</time>
      </trkpt>
      <trkpt lat="43.71416" lon="3.41275">
        <ele>213.8</ele>
        <time>2017-04-12T08:58:42Z</time>
      </trkpt>
      <trkpt lat="43.71407" lon="3.41269">
        <ele>213.3</ele>
        <time>2017-04-12T08:58:44Z</time>
      </trkpt>
      <trkpt lat="43.714" lon="3.41256">
        <ele>212.1</ele>
        <time>2017-04-12T08:58:46Z</time>
      </trkpt>
      <trkpt lat="43.71395" lon="3.41245">
        <ele>211</ele>
        <time>2017-04-12T08:58:48Z</time>
      </trkpt>
      <trkpt lat="43.71392" lon="3.41235">
        <ele>210.5</ele>
        <time>2017-04-12T08:58:50Z</time>
      </trkpt>
      <trkpt lat="43.71393" lon="3.41223">
        <ele>210.4</ele>
        <time>2017-04-12T08:58:52Z</time>
      </trkpt>
      <trkpt lat="43.71394" lon="3.4121">
        <ele>210.9</ele>
        <time>2017-04-12T08:58:54Z</time>
      </trkpt>
      <trkpt lat="43.71388" lon="3.41201">
        <ele>211.9</ele>
        <time>2017-04-12T08:58:56Z</time>
      </trkpt>
      <trkpt lat="43.71381" lon="3.41201">
        <ele>211</ele>
        <time>2017-04-12T08:58:58Z</time>
      </trkpt>
      <trkpt lat="43.71371" lon="3.41209">
        <ele>212.4</ele>
        <time>2017-04-12T08:59:01Z</time>
      </trkpt>
      <trkpt lat="43.71366" lon="3.41218">
        <ele>212.6</ele>
        <time>2017-04-12T08:59:03Z</time>
      </trkpt>
      <trkpt lat="43.71358" lon="3.41227">
        <ele>215.4</ele>
        <time>2017-04-12T08:59:05Z</time>
      </trkpt>
      <trkpt lat="43.7135" lon="3.41237">
        <ele>217</ele>
        <time>2017-04-12T08:59:07Z</time>
      </trkpt>
      <trkpt lat="43.71341" lon="3.41245">
        <ele>217</ele>
        <time>2017-04-12T08:59:09Z</time>
      </trkpt>
      <trkpt lat="43.71332" lon="3.41251">
        <ele>217.8</ele>
        <time>2017-04-12T08:59:11Z</time>
      </trkpt>
      <trkpt lat="43.71323" lon="3.41259">
        <ele>217.6</ele>
        <time>2017-04-12T08:59:13Z</time>
      </trkpt>
      <trkpt lat="43.71314" lon="3.41265">
        <ele>217.6</ele>
        <time>2017-04-12T08:59:15Z</time>
      </trkpt>
      <trkpt lat="43.71305" lon="3.41273">
        <ele>218.1</ele>
        <time>2017-04-12T08:59:17Z</time>
      </trkpt>
      <trkpt lat="43.71296" lon="3.4128">
        <ele>217.9</ele>
        <time>2017-04-12T08:59:19Z</time>
      </trkpt>
      <trkpt lat="43.71285" lon="3.41287">
        <ele>216.8</ele>
        <time>2017-04-12T08:59:21Z</time>
      </trkpt>
      <trkpt lat="43.71274" lon="3.41292">
        <ele>215.1</ele>
        <time>2017-04-12T08:59:23Z</time>
      </trkpt>
      <trkpt lat="43.7126" lon="3.413">
        <ele>214.4</ele>
        <time>2017-04-12T08:59:25Z</time>
      </trkpt>
      <trkpt lat="43.71253" lon="3.41301">
        <ele>213.4</ele>
        <time>2017-04-12T08:59:26Z</time>
      </trkpt>
      <trkpt lat="43.71245" lon="3.413">
        <ele>212.1</ele>
        <time>2017-04-12T08:59:27Z</time>
      </trkpt>
      <trkpt lat="43.71232" lon="3.41296">
        <ele>210.8</ele>
        <time>2017-04-12T08:59:29Z</time>
      </trkpt>
      <trkpt lat="43.7122" lon="3.41294">
        <ele>210.2</ele>
        <time>2017-04-12T08:59:31Z</time>
      </trkpt>
      <trkpt lat="43.71207" lon="3.41299">
        <ele>210.1</ele>
        <time>2017-04-12T08:59:33Z</time>
      </trkpt>
      <trkpt lat="43.71194" lon="3.41305">
        <ele>210</ele>
        <time>2017-04-12T08:59:35Z</time>
      </trkpt>
      <trkpt lat="43.71187" lon="3.41308">
        <ele>210.4</ele>
        <time>2017-04-12T08:59:36Z</time>
      </trkpt>
      <trkpt lat="43.7118" lon="3.41312">
        <ele>210.5</ele>
        <time>2017-04-12T08:59:37Z</time>
      </trkpt>
      <trkpt lat="43.71168" lon="3.41319">
        <ele>210.4</ele>
        <time>2017-04-12T08:59:39Z</time>
      </trkpt>
      <trkpt lat="43.71161" lon="3.41322">
        <ele>209.9</ele>
        <time>2017-04-12T08:59:40Z</time>
      </trkpt>
      <trkpt lat="43.71147" lon="3.41327">
        <ele>208.8</ele>
        <time>2017-04-12T08:59:42Z</time>
      </trkpt>
      <trkpt lat="43.71133" lon="3.4133">
        <ele>207.5</ele>
        <time>2017-04-12T08:59:44Z</time>
      </trkpt>
      <trkpt lat="43.71121" lon="3.41329">
        <ele>205.6</ele>
        <time>2017-04-12T08:59:46Z</time>
      </trkpt>
      <trkpt lat="43.71113" lon="3.41329">
        <ele>204.5</ele>
        <time>2017-04-12T08:59:48Z</time>
      </trkpt>
      <trkpt lat="43.71105" lon="3.41321">
        <ele>204.2</ele>
        <time>2017-04-12T08:59:55Z</time>
      </trkpt>
      <trkpt lat="43.711" lon="3.41313">
        <ele>203.9</ele>
        <time>2017-04-12T08:59:57Z</time>
      </trkpt>
      <trkpt lat="43.71093" lon="3.41302">
        <ele>201.5</ele>
        <time>2017-04-12T09:00:00Z</time>
      </trkpt>
      <trkpt lat="43.71087" lon="3.41292">
        <ele>201.1</ele>
        <time>2017-04-12T09:00:02Z</time>
      </trkpt>
      <trkpt lat="43.71081" lon="3.41282">
        <ele>200.9</ele>
        <time>2017-04-12T09:00:04Z</time>
      </trkpt>
      <trkpt lat="43.71071" lon="3.41274">
        <ele>200.7</ele>
        <time>2017-04-12T09:00:06Z</time>
      </trkpt>
      <trkpt lat="43.71062" lon="3.41271">
        <ele>201</ele>
        <time>2017-04-12T09:00:08Z</time>
      </trkpt>
      <trkpt lat="43.71054" lon="3.41267">
        <ele>201</ele>
        <time>2017-04-12T09:00:10Z</time>
      </trkpt>
      <trkpt lat="43.71045" lon="3.41263">
        <ele>201.6</ele>
        <time>2017-04-12T09:00:12Z</time>
      </trkpt>
      <trkpt lat="43.71038" lon="3.41259">
        <ele>202.1</ele>
        <time>2017-04-12T09:00:14Z</time>
      </trkpt>
      <trkpt lat="43.7103" lon="3.41254">
        <ele>202.2</ele>
        <time>2017-04-12T09:00:16Z</time>
      </trkpt>
      <trkpt lat="43.71022" lon="3.4125">
        <ele>202.1</ele>
        <time>2017-04-12T09:00:18Z</time>
      </trkpt>
      <trkpt lat="43.71013" lon="3.41245">
        <ele>202</ele>
        <time>2017-04-12T09:00:20Z</time>
      </trkpt>
      <trkpt lat="43.71002" lon="3.41239">
        <ele>202.5</ele>
        <time>2017-04-12T09:00:22Z</time>
      </trkpt>
      <trkpt lat="43.7099" lon="3.41231">
        <ele>203</ele>
        <time>2017-04-12T09:00:24Z</time>
      </trkpt>
      <trkpt lat="43.70983" lon="3.41227">
        <ele>203.4</ele>
        <time>2017-04-12T09:00:25Z</time>
      </trkpt>
      <trkpt lat="43.70976" lon="3.41222">
        <ele>203.6</ele>
        <time>2017-04-12T09:00:26Z</time>
      </trkpt>
      <trkpt lat="43.70969" lon="3.41219">
        <ele>203.5</ele>
        <time>2017-04-12T09:00:27Z</time>
      </trkpt>
      <trkpt lat="43.70961" lon="3.41215">
        <ele>203.3</ele>
        <time>2017-04-12T09:00:28Z</time>
      </trkpt>
      <trkpt lat="43.70953" lon="3.41212">
        <ele>203</ele>
        <time>2017-04-12T09:00:29Z</time>
      </trkpt>
      <trkpt lat="43.70945" lon="3.41208">
        <ele>202.9</ele>
        <time>2017-04-12T09:00:30Z</time>
      </trkpt>
      <trkpt lat="43.70938" lon="3.41205">
        <ele>202.7</ele>
        <time>2017-04-12T09:00:31Z</time>
      </trkpt>
      <trkpt lat="43.7093" lon="3.41202">
        <ele>202.5</ele>
        <time>2017-04-12T09:00:32Z</time>
      </trkpt>
      <trkpt lat="43.7092" lon="3.41197">
        <ele>201.9</ele>
        <time>2017-04-12T09:00:34Z</time>
      </trkpt>
      <trkpt lat="43.70911" lon="3.41202">
        <ele>201.8</ele>
        <time>2017-04-12T09:00:37Z</time>
      </trkpt>
      <trkpt lat="43.70911" lon="3.41213">
        <ele>201.7</ele>
        <time>2017-04-12T09:00:40Z</time>
      </trkpt>
      <trkpt lat="43.70914" lon="3.41225">
        <ele>200.3</ele>
        <time>2017-04-12T09:00:43Z</time>
      </trkpt>
      <trkpt lat="43.70919" lon="3.41237">
        <ele>199.3</ele>
        <time>2017-04-12T09:00:45Z</time>
      </trkpt>
      <trkpt lat="43.70924" lon="3.41251">
        <ele>198.5</ele>
        <time>2017-04-12T09:00:47Z</time>
      </trkpt>
      <trkpt lat="43.70928" lon="3.41263">
        <ele>198.5</ele>
        <time>2017-04-12T09:00:49Z</time>
      </trkpt>
      <trkpt lat="43.70933" lon="3.41275">
        <ele>198.9</ele>
        <time>2017-04-12T09:00:51Z</time>
      </trkpt>
      <trkpt lat="43.70938" lon="3.41287">
        <ele>197.9</ele>
        <time>2017-04-12T09:00:53Z</time>
      </trkpt>
      <trkpt lat="43.70944" lon="3.413">
        <ele>196.1</ele>
        <time>2017-04-12T09:00:55Z</time>
      </trkpt>
      <trkpt lat="43.7095" lon="3.41313">
        <ele>194</ele>
        <time>2017-04-12T09:00:57Z</time>
      </trkpt>
      <trkpt lat="43.70956" lon="3.41325">
        <ele>191.7</ele>
        <time>2017-04-12T09:00:59Z</time>
      </trkpt>
      <trkpt lat="43.70962" lon="3.41337">
        <ele>189.3</ele>
        <time>2017-04-12T09:01:01Z</time>
      </trkpt>
      <trkpt lat="43.70967" lon="3.41351">
        <ele>187.1</ele>
        <time>2017-04-12T09:01:03Z</time>
      </trkpt>
      <trkpt lat="43.70973" lon="3.41363">
        <ele>185.3</ele>
        <time>2017-04-12T09:01:05Z</time>
      </trkpt>
      <trkpt lat="43.7098" lon="3.41377">
        <ele>184.1</ele>
        <time>2017-04-12T09:01:07Z</time>
      </trkpt>
      <trkpt lat="43.70986" lon="3.41391">
        <ele>183.1</ele>
        <time>2017-04-12T09:01:09Z</time>
      </trkpt>
      <trkpt lat="43.70993" lon="3.41405">
        <ele>182.2</ele>
        <time>2017-04-12T09:01:11Z</time>
      </trkpt>
      <trkpt lat="43.70999" lon="3.41417">
        <ele>181.4</ele>
        <time>2017-04-12T09:01:13Z</time>
      </trkpt>
      <trkpt lat="43.71004" lon="3.41429">
        <ele>180.3</ele>
        <time>2017-04-12T09:01:15Z</time>
      </trkpt>
      <trkpt lat="43.71009" lon="3.4144">
        <ele>179.7</ele>
        <time>2017-04-12T09:01:17Z</time>
      </trkpt>
      <trkpt lat="43.71014" lon="3.41451">
        <ele>179.3</ele>
        <time>2017-04-12T09:01:20Z</time>
      </trkpt>
      <trkpt lat="43.71019" lon="3.41462">
        <ele>178.6</ele>
        <time>2017-04-12T09:01:21Z</time>
      </trkpt>
      <trkpt lat="43.71023" lon="3.41472">
        <ele>177.8</ele>
        <time>2017-04-12T09:01:23Z</time>
      </trkpt>
      <trkpt lat="43.71028" lon="3.41483">
        <ele>177.5</ele>
        <time>2017-04-12T09:01:25Z</time>
      </trkpt>
      <trkpt lat="43.71032" lon="3.41493">
        <ele>177</ele>
        <time>2017-04-12T09:01:27Z</time>
      </trkpt>
      <trkpt lat="43.71036" lon="3.41503">
        <ele>176.3</ele>
        <time>2017-04-12T09:01:29Z</time>
      </trkpt>
      <trkpt lat="43.71041" lon="3.41513">
        <ele>175.6</ele>
        <time>2017-04-12T09:01:31Z</time>
      </trkpt>
      <trkpt lat="43.71045" lon="3.41523">
        <ele>175.1</ele>
        <time>2017-04-12T09:01:33Z</time>
      </trkpt>
      <trkpt lat="43.7105" lon="3.41533">
        <ele>174.7</ele>
        <time>2017-04-12T09:01:35Z</time>
      </trkpt>
      <trkpt lat="43.71055" lon="3.41544">
        <ele>174.4</ele>
        <time>2017-04-12T09:01:37Z</time>
      </trkpt>
      <trkpt lat="43.71059" lon="3.41555">
        <ele>174.2</ele>
        <time>2017-04-12T09:01:39Z</time>
      </trkpt>
      <trkpt lat="43.71064" lon="3.41566">
        <ele>173.9</ele>
        <time>2017-04-12T09:01:41Z</time>
      </trkpt>
      <trkpt lat="43.71069" lon="3.41577">
        <ele>173.6</ele>
        <time>2017-04-12T09:01:43Z</time>
      </trkpt>
      <trkpt lat="43.71074" lon="3.41588">
        <ele>173.4</ele>
        <time>2017-04-12T09:01:45Z</time>
      </trkpt>
      <trkpt lat="43.71079" lon="3.416">
        <ele>173.2</ele>
        <time>2017-04-12T09:01:47Z</time>
      </trkpt>
      <trkpt lat="43.71084" lon="3.41612">
        <ele>173.3</ele>
        <time>2017-04-12T09:01:49Z</time>
      </trkpt>
      <trkpt lat="43.71089" lon="3.41622">
        <ele>173.4</ele>
        <time>2017-04-12T09:01:51Z</time>
      </trkpt>
      <trkpt lat="43.71094" lon="3.41632">
        <ele>173.5</ele>
        <time>2017-04-12T09:01:53Z</time>
      </trkpt>
      <trkpt lat="43.71099" lon="3.41642">
        <ele>172.5</ele>
        <time>2017-04-12T09:01:55Z</time>
      </trkpt>
      <trkpt lat="43.71105" lon="3.41652">
        <ele>171.2</ele>
        <time>2017-04-12T09:01:57Z</time>
      </trkpt>
      <trkpt lat="43.71111" lon="3.41661">
        <ele>173.9</ele>
        <time>2017-04-12T09:01:59Z</time>
      </trkpt>
      <trkpt lat="43.71118" lon="3.41669">
        <ele>181.6</ele>
        <time>2017-04-12T09:02:01Z</time>
      </trkpt>
      <trkpt lat="43.71124" lon="3.41677">
        <ele>188.2</ele>
        <time>2017-04-12T09:02:03Z</time>
      </trkpt>
      <trkpt lat="43.71131" lon="3.41682">
        <ele>191.1</ele>
        <time>2017-04-12T09:02:05Z</time>
      </trkpt>
      <trkpt lat="43.71138" lon="3.41687">
        <ele>195.5</ele>
        <time>2017-04-12T09:02:07Z</time>
      </trkpt>
      <trkpt lat="43.71145" lon="3.41691">
        <ele>197.5</ele>
        <time>2017-04-12T09:02:09Z</time>
      </trkpt>
      <trkpt lat="43.71152" lon="3.41696">
        <ele>199.8</ele>
        <time>2017-04-12T09:02:11Z</time>
      </trkpt>
      <trkpt lat="43.71163" lon="3.41703">
        <ele>202.1</ele>
        <time>2017-04-12T09:02:14Z</time>
      </trkpt>
      <trkpt lat="43.71172" lon="3.41708">
        <ele>204.7</ele>
        <time>2017-04-12T09:02:16Z</time>
      </trkpt>
      <trkpt lat="43.7118" lon="3.41713">
        <ele>205.1</ele>
        <time>2017-04-12T09:02:18Z</time>
      </trkpt>
      <trkpt lat="43.71188" lon="3.41718">
        <ele>205.6</ele>
        <time>2017-04-12T09:02:20Z</time>
      </trkpt>
      <trkpt lat="43.71195" lon="3.41722">
        <ele>206.3</ele>
        <time>2017-04-12T09:02:22Z</time>
      </trkpt>
      <trkpt lat="43.71203" lon="3.41726">
        <ele>207.1</ele>
        <time>2017-04-12T09:02:24Z</time>
      </trkpt>
      <trkpt lat="43.71211" lon="3.41732">
        <ele>208.1</ele>
        <time>2017-04-12T09:02:27Z</time>
      </trkpt>
      <trkpt lat="43.71217" lon="3.41738">
        <ele>207.9</ele>
        <time>2017-04-12T09:02:29Z</time>
      </trkpt>
      <trkpt lat="43.71223" lon="3.41744">
        <ele>207.9</ele>
        <time>2017-04-12T09:02:31Z</time>
      </trkpt>
      <trkpt lat="43.7123" lon="3.41751">
        <ele>208</ele>
        <time>2017-04-12T09:02:33Z</time>
      </trkpt>
      <trkpt lat="43.71235" lon="3.41758">
        <ele>209</ele>
        <time>2017-04-12T09:02:35Z</time>
      </trkpt>
      <trkpt lat="43.71243" lon="3.41769">
        <ele>209.2</ele>
        <time>2017-04-12T09:02:38Z</time>
      </trkpt>
      <trkpt lat="43.71249" lon="3.41781">
        <ele>209</ele>
        <time>2017-04-12T09:02:41Z</time>
      </trkpt>
      <trkpt lat="43.71254" lon="3.41789">
        <ele>208.5</ele>
        <time>2017-04-12T09:02:43Z</time>
      </trkpt>
      <trkpt lat="43.71259" lon="3.41798">
        <ele>208.3</ele>
        <time>2017-04-12T09:02:45Z</time>
      </trkpt>
      <trkpt lat="43.71263" lon="3.41807">
        <ele>208.2</ele>
        <time>2017-04-12T09:02:47Z</time>
      </trkpt>
      <trkpt lat="43.71268" lon="3.41816">
        <ele>208.8</ele>
        <time>2017-04-12T09:02:49Z</time>
      </trkpt>
      <trkpt lat="43.71272" lon="3.41824">
        <ele>209.6</ele>
        <time>2017-04-12T09:02:52Z</time>
      </trkpt>
      <trkpt lat="43.71277" lon="3.41833">
        <ele>210.8</ele>
        <time>2017-04-12T09:02:53Z</time>
      </trkpt>
      <trkpt lat="43.71282" lon="3.41842">
        <ele>211.6</ele>
        <time>2017-04-12T09:02:55Z</time>
      </trkpt>
      <trkpt lat="43.71286" lon="3.4185">
        <ele>212.6</ele>
        <time>2017-04-12T09:02:57Z</time>
      </trkpt>
      <trkpt lat="43.71291" lon="3.41858">
        <ele>213.4</ele>
        <time>2017-04-12T09:02:59Z</time>
      </trkpt>
      <trkpt lat="43.71296" lon="3.41868">
        <ele>214</ele>
        <time>2017-04-12T09:03:01Z</time>
      </trkpt>
      <trkpt lat="43.71301" lon="3.41876">
        <ele>214.5</ele>
        <time>2017-04-12T09:03:03Z</time>
      </trkpt>
      <trkpt lat="43.71306" lon="3.41885">
        <ele>214.1</ele>
        <time>2017-04-12T09:03:05Z</time>
      </trkpt>
      <trkpt lat="43.71311" lon="3.41893">
        <ele>213.4</ele>
        <time>2017-04-12T09:03:07Z</time>
      </trkpt>
      <trkpt lat="43.71316" lon="3.41903">
        <ele>212.5</ele>
        <time>2017-04-12T09:03:09Z</time>
      </trkpt>
      <trkpt lat="43.71321" lon="3.41912">
        <ele>211.9</ele>
        <time>2017-04-12T09:03:11Z</time>
      </trkpt>
      <trkpt lat="43.71326" lon="3.41922">
        <ele>211.1</ele>
        <time>2017-04-12T09:03:13Z</time>
      </trkpt>
      <trkpt lat="43.71332" lon="3.41932">
        <ele>210.5</ele>
        <time>2017-04-12T09:03:16Z</time>
      </trkpt>
      <trkpt lat="43.71339" lon="3.41942">
        <ele>210.1</ele>
        <time>2017-04-12T09:03:17Z</time>
      </trkpt>
      <trkpt lat="43.71346" lon="3.41954">
        <ele>209.5</ele>
        <time>2017-04-12T09:03:19Z</time>
      </trkpt>
      <trkpt lat="43.71352" lon="3.41965">
        <ele>209.8</ele>
        <time>2017-04-12T09:03:21Z</time>
      </trkpt>
      <trkpt lat="43.71359" lon="3.41977">
        <ele>209.2</ele>
        <time>2017-04-12T09:03:23Z</time>
      </trkpt>
      <trkpt lat="43.71366" lon="3.4199">
        <ele>208.7</ele>
        <time>2017-04-12T09:03:25Z</time>
      </trkpt>
      <trkpt lat="43.71373" lon="3.42003">
        <ele>208.7</ele>
        <time>2017-04-12T09:03:27Z</time>
      </trkpt>
      <trkpt lat="43.7138" lon="3.42016">
        <ele>208.9</ele>
        <time>2017-04-12T09:03:29Z</time>
      </trkpt>
      <trkpt lat="43.71387" lon="3.42028">
        <ele>208.5</ele>
        <time>2017-04-12T09:03:31Z</time>
      </trkpt>
      <trkpt lat="43.71392" lon="3.42039">
        <ele>208.3</ele>
        <time>2017-04-12T09:03:33Z</time>
      </trkpt>
      <trkpt lat="43.71397" lon="3.4205">
        <ele>208.1</ele>
        <time>2017-04-12T09:03:35Z</time>
      </trkpt>
      <trkpt lat="43.71403" lon="3.42061">
        <ele>207.6</ele>
        <time>2017-04-12T09:03:38Z</time>
      </trkpt>
      <trkpt lat="43.71408" lon="3.42071">
        <ele>206.9</ele>
        <time>2017-04-12T09:03:39Z</time>
      </trkpt>
      <trkpt lat="43.71414" lon="3.42082">
        <ele>206.9</ele>
        <time>2017-04-12T09:03:41Z</time>
      </trkpt>
      <trkpt lat="43.7142" lon="3.42093">
        <ele>206.7</ele>
        <time>2017-04-12T09:03:44Z</time>
      </trkpt>
      <trkpt lat="43.71424" lon="3.42101">
        <ele>207.8</ele>
        <time>2017-04-12T09:03:45Z</time>
      </trkpt>
      <trkpt lat="43.7143" lon="3.4211">
        <ele>208.3</ele>
        <time>2017-04-12T09:03:47Z</time>
      </trkpt>
      <trkpt lat="43.71434" lon="3.4212">
        <ele>208.8</ele>
        <time>2017-04-12T09:03:49Z</time>
      </trkpt>
      <trkpt lat="43.7144" lon="3.42133">
        <ele>210.1</ele>
        <time>2017-04-12T09:03:51Z</time>
      </trkpt>
      <trkpt lat="43.71445" lon="3.42147">
        <ele>212.6</ele>
        <time>2017-04-12T09:03:53Z</time>
      </trkpt>
      <trkpt lat="43.71448" lon="3.42161">
        <ele>215.9</ele>
        <time>2017-04-12T09:03:55Z</time>
      </trkpt>
      <trkpt lat="43.71449" lon="3.42175">
        <ele>218.5</ele>
        <time>2017-04-12T09:03:57Z</time>
      </trkpt>
      <trkpt lat="43.71452" lon="3.42187">
        <ele>219.9</ele>
        <time>2017-04-12T09:03:59Z</time>
      </trkpt>
      <trkpt lat="43.71451" lon="3.42198">
        <ele>220.1</ele>
        <time>2017-04-12T09:04:01Z</time>
      </trkpt>
      <trkpt lat="43.71451" lon="3.42213">
        <ele>220.1</ele>
        <time>2017-04-12T09:04:04Z</time>
      </trkpt>
      <trkpt lat="43.71452" lon="3.42225">
        <ele>220.1</ele>
        <time>2017-04-12T09:04:07Z</time>
      </trkpt>
      <trkpt lat="43.71453" lon="3.42238">
        <ele>220.6</ele>
        <time>2017-04-12T09:04:09Z</time>
      </trkpt>
      <trkpt lat="43.71453" lon="3.42248">
        <ele>220.7</ele>
        <time>2017-04-12T09:04:11Z</time>
      </trkpt>
      <trkpt lat="43.71449" lon="3.42238">
        <ele>220.8</ele>
        <time>2017-04-12T09:04:16Z</time>
      </trkpt>
      <trkpt lat="43.71447" lon="3.42229">
        <ele>220.7</ele>
        <time>2017-04-12T09:04:23Z</time>
      </trkpt>
    </trkseg>
  </trk>
</gpx>